<?xml version="1.0" encoding="UTF-8"?>
<gpx version="1.1" creator="https://www.youtrack.es" xsi:schemaLocation="http://www.topografix.com/GPX/1/1 http://www.topografix.com/GPX/1/1/gpx.xsd http://www.garmin.com/xmlschemas/GpxExtensions/v3 http://www.garmin.com/xmlschemas/GpxExtensionsv3.xsd http://www.garmin.com/xmlschemas/TrackPointExtension/v1 http://www.garmin.com/xmlschemas/TrackPointExtensionv1.xsd" xmlns:gpxtpx="http://www.garmin.com/xmlschemas/TrackPointExtension/v1" xmlns:gpxx="http://www.garmin.com/xmlschemas/GpxExtensions/v3" xmlns:xsi="http://www.w3.org/2001/XMLSchema-instance">
  <metadata>
    <link href="https://www.youtrack.es">
      <text>YouTrack.es</text>
    </link>
    <time>2026-05-08T16:22:42Z</time>
  </metadata>
  <trk>
    <src>https://www.youtrack.es</src>
    <link href="https://www.youtrack.es/ruta/1069-collbaix-x3">
      <text>YouTrack.es</text>
    </link>
    <trkseg>
      <trkpt lat="41.736438274383544921875" lon="1.77674914710223674774169921875">
        <ele>312.399993896484375</ele>
        <time>2018-06-21T07:22:03.000Z</time>
      </trkpt>
      <trkpt lat="41.7364424653351306915283203125" lon="1.77673556841909885406494140625">
        <ele>312.20001220703125</ele>
        <time>2018-06-21T07:22:04.000Z</time>
      </trkpt>
      <trkpt lat="41.7365001328289508819580078125" lon="1.776609756052494049072265625">
        <ele>311.399993896484375</ele>
        <time>2018-06-21T07:22:13.000Z</time>
      </trkpt>
      <trkpt lat="41.73655754886567592620849609375" lon="1.77648846991360187530517578125">
        <ele>311</ele>
        <time>2018-06-21T07:22:22.000Z</time>
      </trkpt>
      <trkpt lat="41.7366305552423000335693359375" lon="1.7764308862388134002685546875">
        <ele>311.399993896484375</ele>
        <time>2018-06-21T07:22:29.000Z</time>
      </trkpt>
      <trkpt lat="41.7366751469671726226806640625" lon="1.77642233669757843017578125">
        <ele>311.79998779296875</ele>
        <time>2018-06-21T07:22:33.000Z</time>
      </trkpt>
      <trkpt lat="41.73679224215447902679443359375" lon="1.7763735540211200714111328125">
        <ele>312.79998779296875</ele>
        <time>2018-06-21T07:22:44.000Z</time>
      </trkpt>
      <trkpt lat="41.7369463853538036346435546875" lon="1.7763386853039264678955078125">
        <ele>314.20001220703125</ele>
        <time>2018-06-21T07:22:57.000Z</time>
      </trkpt>
      <trkpt lat="41.73707756213843822479248046875" lon="1.77631647326052188873291015625">
        <ele>315.399993896484375</ele>
        <time>2018-06-21T07:23:08.000Z</time>
      </trkpt>
      <trkpt lat="41.73718585632741451263427734375" lon="1.7762883938848972320556640625">
        <ele>315.79998779296875</ele>
        <time>2018-06-21T07:23:17.000Z</time>
      </trkpt>
      <trkpt lat="41.737286858260631561279296875" lon="1.7762645892798900604248046875">
        <ele>316</ele>
        <time>2018-06-21T07:23:26.000Z</time>
      </trkpt>
      <trkpt lat="41.7372990958392620086669921875" lon="1.776258386671543121337890625">
        <ele>316</ele>
        <time>2018-06-21T07:23:27.000Z</time>
      </trkpt>
      <trkpt lat="41.73740579746663570404052734375" lon="1.77623265422880649566650390625">
        <ele>316.600006103515625</ele>
        <time>2018-06-21T07:23:36.000Z</time>
      </trkpt>
      <trkpt lat="41.7374293506145477294921875" lon="1.77622578106820583343505859375">
        <ele>317</ele>
        <time>2018-06-21T07:23:38.000Z</time>
      </trkpt>
      <trkpt lat="41.7374910414218902587890625" lon="1.7762102745473384857177734375">
        <ele>318</ele>
        <time>2018-06-21T07:23:43.000Z</time>
      </trkpt>
      <trkpt lat="41.73758366145193576812744140625" lon="1.77620164118707180023193359375">
        <ele>319.79998779296875</ele>
        <time>2018-06-21T07:23:51.000Z</time>
      </trkpt>
      <trkpt lat="41.737638898193836212158203125" lon="1.77618085406720638275146484375">
        <ele>320.600006103515625</ele>
        <time>2018-06-21T07:23:56.000Z</time>
      </trkpt>
      <trkpt lat="41.73772238194942474365234375" lon="1.77618957124650478363037109375">
        <ele>322.20001220703125</ele>
        <time>2018-06-21T07:24:04.000Z</time>
      </trkpt>
      <trkpt lat="41.7377426661550998687744140625" lon="1.77619057707488536834716796875">
        <ele>322.600006103515625</ele>
        <time>2018-06-21T07:24:06.000Z</time>
      </trkpt>
      <trkpt lat="41.737798489630222320556640625" lon="1.77620667032897472381591796875">
        <ele>324</ele>
        <time>2018-06-21T07:24:11.000Z</time>
      </trkpt>
      <trkpt lat="41.737890355288982391357421875" lon="1.7762796767055988311767578125">
        <ele>326.399993896484375</ele>
        <time>2018-06-21T07:24:19.000Z</time>
      </trkpt>
      <trkpt lat="41.737960763275623321533203125" lon="1.77631764672696590423583984375">
        <ele>328</ele>
        <time>2018-06-21T07:24:26.000Z</time>
      </trkpt>
      <trkpt lat="41.7380232922732830047607421875" lon="1.77631529979407787322998046875">
        <ele>329.20001220703125</ele>
        <time>2018-06-21T07:24:34.000Z</time>
      </trkpt>
      <trkpt lat="41.738070063292980194091796875" lon="1.776287555694580078125">
        <ele>329.600006103515625</ele>
        <time>2018-06-21T07:24:38.000Z</time>
      </trkpt>
      <trkpt lat="41.73815019428730010986328125" lon="1.776235587894916534423828125">
        <ele>330.399993896484375</ele>
        <time>2018-06-21T07:24:46.000Z</time>
      </trkpt>
      <trkpt lat="41.738238036632537841796875" lon="1.776208765804767608642578125">
        <ele>332</ele>
        <time>2018-06-21T07:24:53.000Z</time>
      </trkpt>
      <trkpt lat="41.738263852894306182861328125" lon="1.77619359456002712249755859375">
        <ele>332.79998779296875</ele>
        <time>2018-06-21T07:24:55.000Z</time>
      </trkpt>
      <trkpt lat="41.73834825865924358367919921875" lon="1.7761975340545177459716796875">
        <ele>335.79998779296875</ele>
        <time>2018-06-21T07:25:02.000Z</time>
      </trkpt>
      <trkpt lat="41.73842537216842174530029296875" lon="1.77618739195168018341064453125">
        <ele>338.399993896484375</ele>
        <time>2018-06-21T07:25:08.000Z</time>
      </trkpt>
      <trkpt lat="41.7384539544582366943359375" lon="1.77618286572396755218505859375">
        <ele>339.20001220703125</ele>
        <time>2018-06-21T07:25:11.000Z</time>
      </trkpt>
      <trkpt lat="41.73853383399546146392822265625" lon="1.7761371843516826629638671875">
        <ele>341.399993896484375</ele>
        <time>2018-06-21T07:25:18.000Z</time>
      </trkpt>
      <trkpt lat="41.73855596221983432769775390625" lon="1.77612125873565673828125">
        <ele>342</ele>
        <time>2018-06-21T07:25:20.000Z</time>
      </trkpt>
      <trkpt lat="41.73858446069061756134033203125" lon="1.7760764993727207183837890625">
        <ele>342.399993896484375</ele>
        <time>2018-06-21T07:25:24.000Z</time>
      </trkpt>
      <trkpt lat="41.7385972850024700164794921875" lon="1.77597315050661563873291015625">
        <ele>341.399993896484375</ele>
        <time>2018-06-21T07:25:30.000Z</time>
      </trkpt>
      <trkpt lat="41.73859887756407260894775390625" lon="1.77595403976738452911376953125">
        <ele>341.20001220703125</ele>
        <time>2018-06-21T07:25:31.000Z</time>
      </trkpt>
      <trkpt lat="41.73857104964554309844970703125" lon="1.77583359181880950927734375">
        <ele>338.600006103515625</ele>
        <time>2018-06-21T07:25:38.000Z</time>
      </trkpt>
      <trkpt lat="41.738595776259899139404296875" lon="1.77580417133867740631103515625">
        <ele>339</ele>
        <time>2018-06-21T07:25:40.000Z</time>
      </trkpt>
      <trkpt lat="41.73864095471799373626708984375" lon="1.775729656219482421875">
        <ele>339.399993896484375</ele>
        <time>2018-06-21T07:25:46.000Z</time>
      </trkpt>
      <trkpt lat="41.7386814393103122711181640625" lon="1.7756731621921062469482421875">
        <ele>340.20001220703125</ele>
        <time>2018-06-21T07:25:52.000Z</time>
      </trkpt>
      <trkpt lat="41.73871706239879131317138671875" lon="1.7755906842648983001708984375">
        <ele>341.20001220703125</ele>
        <time>2018-06-21T07:25:59.000Z</time>
      </trkpt>
      <trkpt lat="41.73878897912800312042236328125" lon="1.7755135707557201385498046875">
        <ele>343.399993896484375</ele>
        <time>2018-06-21T07:26:06.000Z</time>
      </trkpt>
      <trkpt lat="41.7387994565069675445556640625" lon="1.77550275810062885284423828125">
        <ele>343.79998779296875</ele>
        <time>2018-06-21T07:26:07.000Z</time>
      </trkpt>
      <trkpt lat="41.7388641647994518280029296875" lon="1.77544743753969669342041015625">
        <ele>345.399993896484375</ele>
        <time>2018-06-21T07:26:12.000Z</time>
      </trkpt>
      <trkpt lat="41.73890096135437488555908203125" lon="1.775397397577762603759765625">
        <ele>346.20001220703125</ele>
        <time>2018-06-21T07:26:16.000Z</time>
      </trkpt>
      <trkpt lat="41.73892225138843059539794921875" lon="1.77532128989696502685546875">
        <ele>346.20001220703125</ele>
        <time>2018-06-21T07:26:22.000Z</time>
      </trkpt>
      <trkpt lat="41.7389288730919361114501953125" lon="1.77520939148962497711181640625">
        <ele>345.79998779296875</ele>
        <time>2018-06-21T07:26:28.000Z</time>
      </trkpt>
      <trkpt lat="41.73893985338509082794189453125" lon="1.77518608979880809783935546875">
        <ele>346</ele>
        <time>2018-06-21T07:26:30.000Z</time>
      </trkpt>
      <trkpt lat="41.7389741353690624237060546875" lon="1.77511786110699176788330078125">
        <ele>346.600006103515625</ele>
        <time>2018-06-21T07:26:35.000Z</time>
      </trkpt>
      <trkpt lat="41.7390197329223155975341796875" lon="1.775010488927364349365234375">
        <ele>347.20001220703125</ele>
        <time>2018-06-21T07:26:41.000Z</time>
      </trkpt>
      <trkpt lat="41.7390874586999416351318359375" lon="1.7748889513313770294189453125">
        <ele>349.20001220703125</ele>
        <time>2018-06-21T07:26:49.000Z</time>
      </trkpt>
      <trkpt lat="41.7391105927526950836181640625" lon="1.7748128436505794525146484375">
        <ele>350.399993896484375</ele>
        <time>2018-06-21T07:26:54.000Z</time>
      </trkpt>
      <trkpt lat="41.73910279758274555206298828125" lon="1.77473095245659351348876953125">
        <ele>350.399993896484375</ele>
        <time>2018-06-21T07:26:58.000Z</time>
      </trkpt>
      <trkpt lat="41.73905275762081146240234375" lon="1.77456934936344623565673828125">
        <ele>348.600006103515625</ele>
        <time>2018-06-21T07:27:06.000Z</time>
      </trkpt>
      <trkpt lat="41.73903088085353374481201171875" lon="1.7744792439043521881103515625">
        <ele>348.20001220703125</ele>
        <time>2018-06-21T07:27:12.000Z</time>
      </trkpt>
      <trkpt lat="41.73902995884418487548828125" lon="1.77446625195443630218505859375">
        <ele>348.20001220703125</ele>
        <time>2018-06-21T07:27:13.000Z</time>
      </trkpt>
      <trkpt lat="41.73899374902248382568359375" lon="1.77443473599851131439208984375">
        <ele>347</ele>
        <time>2018-06-21T07:27:18.000Z</time>
      </trkpt>
      <trkpt lat="41.73895963467657566070556640625" lon="1.77437455393373966217041015625">
        <ele>346.20001220703125</ele>
        <time>2018-06-21T07:27:25.000Z</time>
      </trkpt>
      <trkpt lat="41.7389087565243244171142578125" lon="1.7743280343711376190185546875">
        <ele>344.79998779296875</ele>
        <time>2018-06-21T07:27:31.000Z</time>
      </trkpt>
      <trkpt lat="41.73888067714869976043701171875" lon="1.7742914892733097076416015625">
        <ele>344</ele>
        <time>2018-06-21T07:27:34.000Z</time>
      </trkpt>
      <trkpt lat="41.7389144562184810638427734375" lon="1.77419937215745449066162109375">
        <ele>345.399993896484375</ele>
        <time>2018-06-21T07:27:40.000Z</time>
      </trkpt>
      <trkpt lat="41.73895158804953098297119140625" lon="1.774189062416553497314453125">
        <ele>346.600006103515625</ele>
        <time>2018-06-21T07:27:43.000Z</time>
      </trkpt>
      <trkpt lat="41.73905275762081146240234375" lon="1.77418847568333148956298828125">
        <ele>350</ele>
        <time>2018-06-21T07:27:51.000Z</time>
      </trkpt>
      <trkpt lat="41.73911587335169315338134765625" lon="1.77415587007999420166015625">
        <ele>353</ele>
        <time>2018-06-21T07:27:57.000Z</time>
      </trkpt>
      <trkpt lat="41.73915929161012172698974609375" lon="1.77405486814677715301513671875">
        <ele>354.600006103515625</ele>
        <time>2018-06-21T07:28:04.000Z</time>
      </trkpt>
      <trkpt lat="41.739174462854862213134765625" lon="1.77400474436581134796142578125">
        <ele>354.79998779296875</ele>
        <time>2018-06-21T07:28:07.000Z</time>
      </trkpt>
      <trkpt lat="41.7391729541122913360595703125" lon="1.77389276213943958282470703125">
        <ele>353.399993896484375</ele>
        <time>2018-06-21T07:28:15.000Z</time>
      </trkpt>
      <trkpt lat="41.739184856414794921875" lon="1.77383727394044399261474609375">
        <ele>353.399993896484375</ele>
        <time>2018-06-21T07:28:19.000Z</time>
      </trkpt>
      <trkpt lat="41.739195249974727630615234375" lon="1.773726381361484527587890625">
        <ele>352.600006103515625</ele>
        <time>2018-06-21T07:28:26.000Z</time>
      </trkpt>
      <trkpt lat="41.73922844231128692626953125" lon="1.7736722342669963836669921875">
        <ele>353.20001220703125</ele>
        <time>2018-06-21T07:28:31.000Z</time>
      </trkpt>
      <trkpt lat="41.73927295021712779998779296875" lon="1.77361465059220790863037109375">
        <ele>354.20001220703125</ele>
        <time>2018-06-21T07:28:36.000Z</time>
      </trkpt>
      <trkpt lat="41.73930916003882884979248046875" lon="1.77354323677718639373779296875">
        <ele>355</ele>
        <time>2018-06-21T07:28:41.000Z</time>
      </trkpt>
      <trkpt lat="41.7393764667212963104248046875" lon="1.773446761071681976318359375">
        <ele>355.600006103515625</ele>
        <time>2018-06-21T07:28:48.000Z</time>
      </trkpt>
      <trkpt lat="41.7394391633570194244384765625" lon="1.7734147422015666961669921875">
        <ele>356.79998779296875</ele>
        <time>2018-06-21T07:28:53.000Z</time>
      </trkpt>
      <trkpt lat="41.7394589446485042572021484375" lon="1.77340845577418804168701171875">
        <ele>357.399993896484375</ele>
        <time>2018-06-21T07:28:55.000Z</time>
      </trkpt>
      <trkpt lat="41.7395172826945781707763671875" lon="1.77341046743094921112060546875">
        <ele>359.20001220703125</ele>
        <time>2018-06-21T07:29:01.000Z</time>
      </trkpt>
      <trkpt lat="41.73958676867187023162841796875" lon="1.7733949609100818634033203125">
        <ele>361</ele>
        <time>2018-06-21T07:29:08.000Z</time>
      </trkpt>
      <trkpt lat="41.7396721802651882171630859375" lon="1.773421950638294219970703125">
        <ele>364</ele>
        <time>2018-06-21T07:29:15.000Z</time>
      </trkpt>
      <trkpt lat="41.73976086080074310302734375" lon="1.77341717295348644256591796875">
        <ele>366.600006103515625</ele>
        <time>2018-06-21T07:29:22.000Z</time>
      </trkpt>
      <trkpt lat="41.739813499152660369873046875" lon="1.7734234593808650970458984375">
        <ele>368.20001220703125</ele>
        <time>2018-06-21T07:29:26.000Z</time>
      </trkpt>
      <trkpt lat="41.73982925713062286376953125" lon="1.77342555485665798187255859375">
        <ele>368.79998779296875</ele>
        <time>2018-06-21T07:29:27.000Z</time>
      </trkpt>
      <trkpt lat="41.73989756964147090911865234375" lon="1.77344508469104766845703125">
        <ele>371.399993896484375</ele>
        <time>2018-06-21T07:29:32.000Z</time>
      </trkpt>
      <trkpt lat="41.73991885967552661895751953125" lon="1.77345505915582180023193359375">
        <ele>372.399993896484375</ele>
        <time>2018-06-21T07:29:34.000Z</time>
      </trkpt>
      <trkpt lat="41.740003265440464019775390625" lon="1.7734251357614994049072265625">
        <ele>375</ele>
        <time>2018-06-21T07:29:42.000Z</time>
      </trkpt>
      <trkpt lat="41.74001927487552165985107421875" lon="1.77341415546834468841552734375">
        <ele>375.20001220703125</ele>
        <time>2018-06-21T07:29:43.000Z</time>
      </trkpt>
      <trkpt lat="41.740069650113582611083984375" lon="1.77343209274113178253173828125">
        <ele>377.600006103515625</ele>
        <time>2018-06-21T07:29:48.000Z</time>
      </trkpt>
      <trkpt lat="41.74012237228453159332275390625" lon="1.7734509520232677459716796875">
        <ele>379.79998779296875</ele>
        <time>2018-06-21T07:29:53.000Z</time>
      </trkpt>
      <trkpt lat="41.740142069756984710693359375" lon="1.77345656789839267730712890625">
        <ele>380.399993896484375</ele>
        <time>2018-06-21T07:29:55.000Z</time>
      </trkpt>
      <trkpt lat="41.74018506892025470733642578125" lon="1.77346788346767425537109375">
        <ele>381.79998779296875</ele>
        <time>2018-06-21T07:29:59.000Z</time>
      </trkpt>
      <trkpt lat="41.74027626402676105499267578125" lon="1.77348389290273189544677734375">
        <ele>384.600006103515625</ele>
        <time>2018-06-21T07:30:06.000Z</time>
      </trkpt>
      <trkpt lat="41.7403185926377773284912109375" lon="1.77347534336149692535400390625">
        <ele>385.399993896484375</ele>
        <time>2018-06-21T07:30:10.000Z</time>
      </trkpt>
      <trkpt lat="41.74034248106181621551513671875" lon="1.77347668446600437164306640625">
        <ele>386</ele>
        <time>2018-06-21T07:30:12.000Z</time>
      </trkpt>
      <trkpt lat="41.74040316604077816009521484375" lon="1.77345179021358489990234375">
        <ele>386.79998779296875</ele>
        <time>2018-06-21T07:30:18.000Z</time>
      </trkpt>
      <trkpt lat="41.7404855601489543914794921875" lon="1.77344114519655704498291015625">
        <ele>388.600006103515625</ele>
        <time>2018-06-21T07:30:26.000Z</time>
      </trkpt>
      <trkpt lat="41.740561164915561676025390625" lon="1.77342203445732593536376953125">
        <ele>389.79998779296875</ele>
        <time>2018-06-21T07:30:32.000Z</time>
      </trkpt>
      <trkpt lat="41.74060919322073459625244140625" lon="1.7734194360673427581787109375">
        <ele>391</ele>
        <time>2018-06-21T07:30:37.000Z</time>
      </trkpt>
      <trkpt lat="41.74062545411288738250732421875" lon="1.7733882553875446319580078125">
        <ele>390.399993896484375</ele>
        <time>2018-06-21T07:30:40.000Z</time>
      </trkpt>
      <trkpt lat="41.74065965227782726287841796875" lon="1.7733815498650074005126953125">
        <ele>391</ele>
        <time>2018-06-21T07:30:43.000Z</time>
      </trkpt>
      <trkpt lat="41.7407336644828319549560546875" lon="1.7733513750135898590087890625">
        <ele>392.399993896484375</ele>
        <time>2018-06-21T07:30:49.000Z</time>
      </trkpt>
      <trkpt lat="41.7408355884253978729248046875" lon="1.7732997424900531768798828125">
        <ele>395</ele>
        <time>2018-06-21T07:30:58.000Z</time>
      </trkpt>
      <trkpt lat="41.7408704571425914764404296875" lon="1.77326914854347705841064453125">
        <ele>395.600006103515625</ele>
        <time>2018-06-21T07:31:02.000Z</time>
      </trkpt>
      <trkpt lat="41.7409066669642925262451171875" lon="1.77323696203529834747314453125">
        <ele>396.399993896484375</ele>
        <time>2018-06-21T07:31:06.000Z</time>
      </trkpt>
      <trkpt lat="41.74092586152255535125732421875" lon="1.77322053350508213043212890625">
        <ele>397</ele>
        <time>2018-06-21T07:31:08.000Z</time>
      </trkpt>
      <trkpt lat="41.7409599758684635162353515625" lon="1.773155741393566131591796875">
        <ele>397.20001220703125</ele>
        <time>2018-06-21T07:31:13.000Z</time>
      </trkpt>
      <trkpt lat="41.74097858369350433349609375" lon="1.7731136642396450042724609375">
        <ele>397.20001220703125</ele>
        <time>2018-06-21T07:31:17.000Z</time>
      </trkpt>
      <trkpt lat="41.74101219512522220611572265625" lon="1.7730167694389820098876953125">
        <ele>396.79998779296875</ele>
        <time>2018-06-21T07:31:23.000Z</time>
      </trkpt>
      <trkpt lat="41.7410206608474254608154296875" lon="1.77296455018222332000732421875">
        <ele>396.20001220703125</ele>
        <time>2018-06-21T07:31:26.000Z</time>
      </trkpt>
      <trkpt lat="41.7410394363105297088623046875" lon="1.77287645637989044189453125">
        <ele>395.399993896484375</ele>
        <time>2018-06-21T07:31:32.000Z</time>
      </trkpt>
      <trkpt lat="41.74103985540568828582763671875" lon="1.7728610336780548095703125">
        <ele>395</ele>
        <time>2018-06-21T07:31:33.000Z</time>
      </trkpt>
      <trkpt lat="41.7410665936768054962158203125" lon="1.7727354727685451507568359375">
        <ele>393.79998779296875</ele>
        <time>2018-06-21T07:31:41.000Z</time>
      </trkpt>
      <trkpt lat="41.74107036553323268890380859375" lon="1.77263178862631320953369140625">
        <ele>392.20001220703125</ele>
        <time>2018-06-21T07:31:48.000Z</time>
      </trkpt>
      <trkpt lat="41.74106734804809093475341796875" lon="1.77250958047807216644287109375">
        <ele>390</ele>
        <time>2018-06-21T07:31:55.000Z</time>
      </trkpt>
      <trkpt lat="41.74106449820101261138916015625" lon="1.77249399013817310333251953125">
        <ele>389.600006103515625</ele>
        <time>2018-06-21T07:31:56.000Z</time>
      </trkpt>
      <trkpt lat="41.74106466583907604217529296875" lon="1.77242986857891082763671875">
        <ele>388.600006103515625</ele>
        <time>2018-06-21T07:32:00.000Z</time>
      </trkpt>
      <trkpt lat="41.741062067449092864990234375" lon="1.77236759103834629058837890625">
        <ele>387.399993896484375</ele>
        <time>2018-06-21T07:32:04.000Z</time>
      </trkpt>
      <trkpt lat="41.7411054857075214385986328125" lon="1.77231528796255588531494140625">
        <ele>388.79998779296875</ele>
        <time>2018-06-21T07:32:09.000Z</time>
      </trkpt>
      <trkpt lat="41.74117027781903743743896484375" lon="1.772283352911472320556640625">
        <ele>391.399993896484375</ele>
        <time>2018-06-21T07:32:15.000Z</time>
      </trkpt>
      <trkpt lat="41.741214953362941741943359375" lon="1.77226063795387744903564453125">
        <ele>393</ele>
        <time>2018-06-21T07:32:19.000Z</time>
      </trkpt>
      <trkpt lat="41.7412429489195346832275390625" lon="1.7722771503031253814697265625">
        <ele>394.600006103515625</ele>
        <time>2018-06-21T07:32:23.000Z</time>
      </trkpt>
      <trkpt lat="41.741245798766613006591796875" lon="1.77235116250813007354736328125">
        <ele>395.79998779296875</ele>
        <time>2018-06-21T07:32:29.000Z</time>
      </trkpt>
      <trkpt lat="41.74128837883472442626953125" lon="1.772387959063053131103515625">
        <ele>398.399993896484375</ele>
        <time>2018-06-21T07:32:34.000Z</time>
      </trkpt>
      <trkpt lat="41.74134897999465465545654296875" lon="1.7723844386637210845947265625">
        <ele>401.20001220703125</ele>
        <time>2018-06-21T07:32:39.000Z</time>
      </trkpt>
      <trkpt lat="41.7413810826838016510009765625" lon="1.77238267846405506134033203125">
        <ele>402.600006103515625</ele>
        <time>2018-06-21T07:32:43.000Z</time>
      </trkpt>
      <trkpt lat="41.74141804687678813934326171875" lon="1.7723703570663928985595703125">
        <ele>404.20001220703125</ele>
        <time>2018-06-21T07:32:45.000Z</time>
      </trkpt>
      <trkpt lat="41.74147236160933971405029296875" lon="1.772368848323822021484375">
        <ele>406.600006103515625</ele>
        <time>2018-06-21T07:32:49.000Z</time>
      </trkpt>
      <trkpt lat="41.74152365885674953460693359375" lon="1.77235116250813007354736328125">
        <ele>408.600006103515625</ele>
        <time>2018-06-21T07:32:53.000Z</time>
      </trkpt>
      <trkpt lat="41.7416013590991497039794921875" lon="1.772308163344860076904296875">
        <ele>410.79998779296875</ele>
        <time>2018-06-21T07:33:00.000Z</time>
      </trkpt>
      <trkpt lat="41.74162843264639377593994140625" lon="1.77229315973818302154541015625">
        <ele>411.600006103515625</ele>
        <time>2018-06-21T07:33:03.000Z</time>
      </trkpt>
      <trkpt lat="41.7417176999151706695556640625" lon="1.77222476340830326080322265625">
        <ele>413.600006103515625</ele>
        <time>2018-06-21T07:33:11.000Z</time>
      </trkpt>
      <trkpt lat="41.74178467132151126861572265625" lon="1.77217765711247920989990234375">
        <ele>415.399993896484375</ele>
        <time>2018-06-21T07:33:18.000Z</time>
      </trkpt>
      <trkpt lat="41.74181166104972362518310546875" lon="1.77218419499695301055908203125">
        <ele>416.79998779296875</ele>
        <time>2018-06-21T07:33:21.000Z</time>
      </trkpt>
      <trkpt lat="41.7417825758457183837890625" lon="1.77225745283067226409912109375">
        <ele>417.600006103515625</ele>
        <time>2018-06-21T07:33:26.000Z</time>
      </trkpt>
      <trkpt lat="41.74169716425240039825439453125" lon="1.77234403789043426513671875">
        <ele>416.20001220703125</ele>
        <time>2018-06-21T07:33:34.000Z</time>
      </trkpt>
      <trkpt lat="41.74164419062435626983642578125" lon="1.77242986857891082763671875">
        <ele>416.600006103515625</ele>
        <time>2018-06-21T07:33:41.000Z</time>
      </trkpt>
      <trkpt lat="41.7416365630924701690673828125" lon="1.77244286052882671356201171875">
        <ele>416.600006103515625</ele>
        <time>2018-06-21T07:33:42.000Z</time>
      </trkpt>
      <trkpt lat="41.74157814122736454010009765625" lon="1.77248443476855754852294921875">
        <ele>414.20001220703125</ele>
        <time>2018-06-21T07:33:47.000Z</time>
      </trkpt>
      <trkpt lat="41.74152986146509647369384765625" lon="1.77251209504902362823486328125">
        <ele>411.79998779296875</ele>
        <time>2018-06-21T07:33:51.000Z</time>
      </trkpt>
      <trkpt lat="41.74145828001201152801513671875" lon="1.7726040445268154144287109375">
        <ele>410</ele>
        <time>2018-06-21T07:33:58.000Z</time>
      </trkpt>
      <trkpt lat="41.74141234718263149261474609375" lon="1.7726603709161281585693359375">
        <ele>408.79998779296875</ele>
        <time>2018-06-21T07:34:03.000Z</time>
      </trkpt>
      <trkpt lat="41.7414204776287078857421875" lon="1.77268509753048419952392578125">
        <ele>409.600006103515625</ele>
        <time>2018-06-21T07:34:05.000Z</time>
      </trkpt>
      <trkpt lat="41.741428859531879425048828125" lon="1.77272449247539043426513671875">
        <ele>410.600006103515625</ele>
        <time>2018-06-21T07:34:09.000Z</time>
      </trkpt>
      <trkpt lat="41.7414655722677707672119140625" lon="1.77277495153248310089111328125">
        <ele>413.20001220703125</ele>
        <time>2018-06-21T07:34:15.000Z</time>
      </trkpt>
      <trkpt lat="41.74149197526276111602783203125" lon="1.7728179506957530975341796875">
        <ele>415.20001220703125</ele>
        <time>2018-06-21T07:34:21.000Z</time>
      </trkpt>
      <trkpt lat="41.741530783474445343017578125" lon="1.7728610336780548095703125">
        <ele>417.600006103515625</ele>
        <time>2018-06-21T07:34:27.000Z</time>
      </trkpt>
      <trkpt lat="41.74156707711517810821533203125" lon="1.7728682421147823333740234375">
        <ele>419.79998779296875</ele>
        <time>2018-06-21T07:34:31.000Z</time>
      </trkpt>
      <trkpt lat="41.74159415066242218017578125" lon="1.7728985846042633056640625">
        <ele>422</ele>
        <time>2018-06-21T07:34:35.000Z</time>
      </trkpt>
      <trkpt lat="41.74164519645273685455322265625" lon="1.77292448468506336212158203125">
        <ele>425.600006103515625</ele>
        <time>2018-06-21T07:34:42.000Z</time>
      </trkpt>
      <trkpt lat="41.74167587421834468841552734375" lon="1.7729171924293041229248046875">
        <ele>427.399993896484375</ele>
        <time>2018-06-21T07:34:47.000Z</time>
      </trkpt>
      <trkpt lat="41.74173119477927684783935546875" lon="1.7729181982576847076416015625">
        <ele>431</ele>
        <time>2018-06-21T07:34:53.000Z</time>
      </trkpt>
      <trkpt lat="41.74176438711583614349365234375" lon="1.7729168571531772613525390625">
        <ele>433</ele>
        <time>2018-06-21T07:34:58.000Z</time>
      </trkpt>
      <trkpt lat="41.7417971603572368621826171875" lon="1.77293487824499607086181640625">
        <ele>435.399993896484375</ele>
        <time>2018-06-21T07:35:03.000Z</time>
      </trkpt>
      <trkpt lat="41.7417934723198413848876953125" lon="1.77300947718322277069091796875">
        <ele>436.399993896484375</ele>
        <time>2018-06-21T07:35:09.000Z</time>
      </trkpt>
      <trkpt lat="41.74179288558661937713623046875" lon="1.77304266951978206634521484375">
        <ele>436.79998779296875</ele>
        <time>2018-06-21T07:35:11.000Z</time>
      </trkpt>
      <trkpt lat="41.74180763773620128631591796875" lon="1.773093044757843017578125">
        <ele>438.600006103515625</ele>
        <time>2018-06-21T07:35:14.000Z</time>
      </trkpt>
      <trkpt lat="41.74182347953319549560546875" lon="1.77323427982628345489501953125">
        <ele>442</ele>
        <time>2018-06-21T07:35:23.000Z</time>
      </trkpt>
      <trkpt lat="41.74182725138962268829345703125" lon="1.7733285762369632720947265625">
        <ele>443.79998779296875</ele>
        <time>2018-06-21T07:35:29.000Z</time>
      </trkpt>
      <trkpt lat="41.741827167570590972900390625" lon="1.7733681388199329376220703125">
        <ele>444.399993896484375</ele>
        <time>2018-06-21T07:35:32.000Z</time>
      </trkpt>
      <trkpt lat="41.74184116534888744354248046875" lon="1.77346159704029560089111328125">
        <ele>446.600006103515625</ele>
        <time>2018-06-21T07:35:39.000Z</time>
      </trkpt>
      <trkpt lat="41.74186396412551403045654296875" lon="1.77353837527334690093994140625">
        <ele>449.20001220703125</ele>
        <time>2018-06-21T07:35:46.000Z</time>
      </trkpt>
      <trkpt lat="41.74189028330147266387939453125" lon="1.77362236194312572479248046875">
        <ele>452.79998779296875</ele>
        <time>2018-06-21T07:35:52.000Z</time>
      </trkpt>
      <trkpt lat="41.74190034158527851104736328125" lon="1.77364826202392578125">
        <ele>454</ele>
        <time>2018-06-21T07:35:54.000Z</time>
      </trkpt>
      <trkpt lat="41.74189849756658077239990234375" lon="1.77370869554579257965087890625">
        <ele>455.399993896484375</ele>
        <time>2018-06-21T07:36:00.000Z</time>
      </trkpt>
      <trkpt lat="41.74188315868377685546875" lon="1.77378044463694095611572265625">
        <ele>456.399993896484375</ele>
        <time>2018-06-21T07:36:06.000Z</time>
      </trkpt>
      <trkpt lat="41.741877458989620208740234375" lon="1.773883290588855743408203125">
        <ele>458.600006103515625</ele>
        <time>2018-06-21T07:36:13.000Z</time>
      </trkpt>
      <trkpt lat="41.7418764531612396240234375" lon="1.77396635524928569793701171875">
        <ele>460.79998779296875</ele>
        <time>2018-06-21T07:36:18.000Z</time>
      </trkpt>
      <trkpt lat="41.74187846481800079345703125" lon="1.7739808559417724609375">
        <ele>461.20001220703125</ele>
        <time>2018-06-21T07:36:19.000Z</time>
      </trkpt>
      <trkpt lat="41.7418514750897884368896484375" lon="1.7740564607083797454833984375">
        <ele>461.399993896484375</ele>
        <time>2018-06-21T07:36:25.000Z</time>
      </trkpt>
      <trkpt lat="41.741840578615665435791015625" lon="1.7741590552031993865966796875">
        <ele>461</ele>
        <time>2018-06-21T07:36:32.000Z</time>
      </trkpt>
      <trkpt lat="41.7418561689555644989013671875" lon="1.77429375238716602325439453125">
        <ele>462</ele>
        <time>2018-06-21T07:36:41.000Z</time>
      </trkpt>
      <trkpt lat="41.741811074316501617431640625" lon="1.774369776248931884765625">
        <ele>461.600006103515625</ele>
        <time>2018-06-21T07:36:48.000Z</time>
      </trkpt>
      <trkpt lat="41.74179506488144397735595703125" lon="1.77442635409533977508544921875">
        <ele>463.20001220703125</ele>
        <time>2018-06-21T07:36:53.000Z</time>
      </trkpt>
      <trkpt lat="41.74175198189914226531982421875" lon="1.7744678445160388946533203125">
        <ele>464</ele>
        <time>2018-06-21T07:36:58.000Z</time>
      </trkpt>
      <trkpt lat="41.7417324520647525787353515625" lon="1.774480082094669342041015625">
        <ele>464</ele>
        <time>2018-06-21T07:37:00.000Z</time>
      </trkpt>
      <trkpt lat="41.74165827222168445587158203125" lon="1.7745794914662837982177734375">
        <ele>466.399993896484375</ele>
        <time>2018-06-21T07:37:07.000Z</time>
      </trkpt>
      <trkpt lat="41.74159607850015163421630859375" lon="1.77465735934674739837646484375">
        <ele>468</ele>
        <time>2018-06-21T07:37:13.000Z</time>
      </trkpt>
      <trkpt lat="41.74151024781167507171630859375" lon="1.77473145537078380584716796875">
        <ele>468.600006103515625</ele>
        <time>2018-06-21T07:37:20.000Z</time>
      </trkpt>
      <trkpt lat="41.7414524964988231658935546875" lon="1.77478216588497161865234375">
        <ele>468.20001220703125</ele>
        <time>2018-06-21T07:37:26.000Z</time>
      </trkpt>
      <trkpt lat="41.74135736189782619476318359375" lon="1.774785183370113372802734375">
        <ele>464</ele>
        <time>2018-06-21T07:37:33.000Z</time>
      </trkpt>
      <trkpt lat="41.74128703773021697998046875" lon="1.77484109066426753997802734375">
        <ele>462.399993896484375</ele>
        <time>2018-06-21T07:37:40.000Z</time>
      </trkpt>
      <trkpt lat="41.741201542317867279052734375" lon="1.774914264678955078125">
        <ele>460.20001220703125</ele>
        <time>2018-06-21T07:37:48.000Z</time>
      </trkpt>
      <trkpt lat="41.7411500774323940277099609375" lon="1.77505575120449066162109375">
        <ele>460.600006103515625</ele>
        <time>2018-06-21T07:37:56.000Z</time>
      </trkpt>
      <trkpt lat="41.7411416955292224884033203125" lon="1.77509455941617488861083984375">
        <ele>461</ele>
        <time>2018-06-21T07:37:58.000Z</time>
      </trkpt>
      <trkpt lat="41.741135157644748687744140625" lon="1.7751645483076572418212890625">
        <ele>462</ele>
        <time>2018-06-21T07:38:02.000Z</time>
      </trkpt>
      <trkpt lat="41.74113809131085872650146484375" lon="1.7752768658101558685302734375">
        <ele>464.20001220703125</ele>
        <time>2018-06-21T07:38:08.000Z</time>
      </trkpt>
      <trkpt lat="41.74112216569483280181884765625" lon="1.77538725547492504119873046875">
        <ele>465.399993896484375</ele>
        <time>2018-06-21T07:38:14.000Z</time>
      </trkpt>
      <trkpt lat="41.74110976047813892364501953125" lon="1.775441654026508331298828125">
        <ele>465.600006103515625</ele>
        <time>2018-06-21T07:38:17.000Z</time>
      </trkpt>
      <trkpt lat="41.7411024682223796844482421875" lon="1.77551466040313243865966796875">
        <ele>466.399993896484375</ele>
        <time>2018-06-21T07:38:21.000Z</time>
      </trkpt>
      <trkpt lat="41.74107338301837444305419921875" lon="1.7756483517587184906005859375">
        <ele>467</ele>
        <time>2018-06-21T07:38:28.000Z</time>
      </trkpt>
      <trkpt lat="41.74106215126812458038330078125" lon="1.77569705061614513397216796875">
        <ele>467.20001220703125</ele>
        <time>2018-06-21T07:38:30.000Z</time>
      </trkpt>
      <trkpt lat="41.74106307327747344970703125" lon="1.77581573836505413055419921875">
        <ele>467</ele>
        <time>2018-06-21T07:38:36.000Z</time>
      </trkpt>
      <trkpt lat="41.74101655371487140655517578125" lon="1.7759628407657146453857421875">
        <ele>464</ele>
        <time>2018-06-21T07:38:45.000Z</time>
      </trkpt>
      <trkpt lat="41.741009093821048736572265625" lon="1.7759772576391696929931640625">
        <ele>463.600006103515625</ele>
        <time>2018-06-21T07:38:46.000Z</time>
      </trkpt>
      <trkpt lat="41.7409837804734706878662109375" lon="1.7760984599590301513671875">
        <ele>463.600006103515625</ele>
        <time>2018-06-21T07:38:53.000Z</time>
      </trkpt>
      <trkpt lat="41.74098269082605838775634765625" lon="1.776138357818126678466796875">
        <ele>464</ele>
        <time>2018-06-21T07:38:55.000Z</time>
      </trkpt>
      <trkpt lat="41.740982271730899810791015625" lon="1.77629317156970500946044921875">
        <ele>465.79998779296875</ele>
        <time>2018-06-21T07:39:03.000Z</time>
      </trkpt>
      <trkpt lat="41.74098168499767780303955078125" lon="1.77640465088188648223876953125">
        <ele>467.20001220703125</ele>
        <time>2018-06-21T07:39:09.000Z</time>
      </trkpt>
      <trkpt lat="41.7409626580774784088134765625" lon="1.7765257693827152252197265625">
        <ele>468</ele>
        <time>2018-06-21T07:39:15.000Z</time>
      </trkpt>
      <trkpt lat="41.74095737747848033905029296875" lon="1.7766206525266170501708984375">
        <ele>468.20001220703125</ele>
        <time>2018-06-21T07:39:20.000Z</time>
      </trkpt>
      <trkpt lat="41.740979254245758056640625" lon="1.7767027951776981353759765625">
        <ele>469.20001220703125</ele>
        <time>2018-06-21T07:39:26.000Z</time>
      </trkpt>
      <trkpt lat="41.74099266529083251953125" lon="1.77677647210657596588134765625">
        <ele>469.79998779296875</ele>
        <time>2018-06-21T07:39:32.000Z</time>
      </trkpt>
      <trkpt lat="41.74101345241069793701171875" lon="1.776839755475521087646484375">
        <ele>470.600006103515625</ele>
        <time>2018-06-21T07:39:37.000Z</time>
      </trkpt>
      <trkpt lat="41.7410434596240520477294921875" lon="1.7768533341586589813232421875">
        <ele>471.600006103515625</ele>
        <time>2018-06-21T07:39:40.000Z</time>
      </trkpt>
      <trkpt lat="41.74105376936495304107666015625" lon="1.776873953640460968017578125">
        <ele>472</ele>
        <time>2018-06-21T07:39:42.000Z</time>
      </trkpt>
      <trkpt lat="41.74106684513390064239501953125" lon="1.77693019621074199676513671875">
        <ele>472.79998779296875</ele>
        <time>2018-06-21T07:39:46.000Z</time>
      </trkpt>
      <trkpt lat="41.74110573716461658477783203125" lon="1.77697755396366119384765625">
        <ele>474.399993896484375</ele>
        <time>2018-06-21T07:39:51.000Z</time>
      </trkpt>
      <trkpt lat="41.7411289550364017486572265625" lon="1.77702273242175579071044921875">
        <ele>475.600006103515625</ele>
        <time>2018-06-21T07:39:55.000Z</time>
      </trkpt>
      <trkpt lat="41.74116005189716815948486328125" lon="1.77712197415530681610107421875">
        <ele>477.600006103515625</ele>
        <time>2018-06-21T07:40:02.000Z</time>
      </trkpt>
      <trkpt lat="41.7411678470671176910400390625" lon="1.77717075683176517486572265625">
        <ele>478.600006103515625</ele>
        <time>2018-06-21T07:40:05.000Z</time>
      </trkpt>
      <trkpt lat="41.74118754453957080841064453125" lon="1.77722238935530185699462890625">
        <ele>479.79998779296875</ele>
        <time>2018-06-21T07:40:09.000Z</time>
      </trkpt>
      <trkpt lat="41.74121704883873462677001953125" lon="1.777252145111560821533203125">
        <ele>480.79998779296875</ele>
        <time>2018-06-21T07:40:14.000Z</time>
      </trkpt>
      <trkpt lat="41.74122476018965244293212890625" lon="1.7773015983402729034423828125">
        <ele>481.79998779296875</ele>
        <time>2018-06-21T07:40:17.000Z</time>
      </trkpt>
      <trkpt lat="41.741199195384979248046875" lon="1.77741366438567638397216796875">
        <ele>483</ele>
        <time>2018-06-21T07:40:23.000Z</time>
      </trkpt>
      <trkpt lat="41.741189472377300262451171875" lon="1.777457334101200103759765625">
        <ele>483.600006103515625</ele>
        <time>2018-06-21T07:40:26.000Z</time>
      </trkpt>
      <trkpt lat="41.7411631532013416290283203125" lon="1.77753235213458538055419921875">
        <ele>484.399993896484375</ele>
        <time>2018-06-21T07:40:31.000Z</time>
      </trkpt>
      <trkpt lat="41.741139851510524749755859375" lon="1.777620278298854827880859375">
        <ele>485.399993896484375</ele>
        <time>2018-06-21T07:40:37.000Z</time>
      </trkpt>
      <trkpt lat="41.74111428670585155487060546875" lon="1.7777320928871631622314453125">
        <ele>486.79998779296875</ele>
        <time>2018-06-21T07:40:43.000Z</time>
      </trkpt>
      <trkpt lat="41.74111068248748779296875" lon="1.7777478508651256561279296875">
        <ele>487</ele>
        <time>2018-06-21T07:40:44.000Z</time>
      </trkpt>
      <trkpt lat="41.741066761314868927001953125" lon="1.77790517918765544891357421875">
        <ele>489.20001220703125</ele>
        <time>2018-06-21T07:40:53.000Z</time>
      </trkpt>
      <trkpt lat="41.74104236997663974761962890625" lon="1.77800995297729969024658203125">
        <ele>490.79998779296875</ele>
        <time>2018-06-21T07:40:59.000Z</time>
      </trkpt>
      <trkpt lat="41.741027869284152984619140625" lon="1.77810198627412319183349609375">
        <ele>492.20001220703125</ele>
        <time>2018-06-21T07:41:04.000Z</time>
      </trkpt>
      <trkpt lat="41.74101747572422027587890625" lon="1.7781793512403964996337890625">
        <ele>493.600006103515625</ele>
        <time>2018-06-21T07:41:10.000Z</time>
      </trkpt>
      <trkpt lat="41.74102485179901123046875" lon="1.7782061733305454254150390625">
        <ele>494.20001220703125</ele>
        <time>2018-06-21T07:41:12.000Z</time>
      </trkpt>
      <trkpt lat="41.74103247933089733123779296875" lon="1.7782735638320446014404296875">
        <ele>496</ele>
        <time>2018-06-21T07:41:16.000Z</time>
      </trkpt>
      <trkpt lat="41.7410484887659549713134765625" lon="1.7783288843929767608642578125">
        <ele>497.600006103515625</ele>
        <time>2018-06-21T07:41:20.000Z</time>
      </trkpt>
      <trkpt lat="41.74105695448815822601318359375" lon="1.7784802615642547607421875">
        <ele>501.600006103515625</ele>
        <time>2018-06-21T07:41:28.000Z</time>
      </trkpt>
      <trkpt lat="41.74105904996395111083984375" lon="1.77849526517093181610107421875">
        <ele>502</ele>
        <time>2018-06-21T07:41:29.000Z</time>
      </trkpt>
      <trkpt lat="41.7410608939826488494873046875" lon="1.7785796709358692169189453125">
        <ele>504.20001220703125</ele>
        <time>2018-06-21T07:41:34.000Z</time>
      </trkpt>
      <trkpt lat="41.7410637438297271728515625" lon="1.77863524295389652252197265625">
        <ele>505.399993896484375</ele>
        <time>2018-06-21T07:41:38.000Z</time>
      </trkpt>
      <trkpt lat="41.7410717904567718505859375" lon="1.778651587665081024169921875">
        <ele>506</ele>
        <time>2018-06-21T07:41:40.000Z</time>
      </trkpt>
      <trkpt lat="41.7411299608647823333740234375" lon="1.77867799066007137298583984375">
        <ele>507.600006103515625</ele>
        <time>2018-06-21T07:41:45.000Z</time>
      </trkpt>
      <trkpt lat="41.74117664806544780731201171875" lon="1.77867849357426166534423828125">
        <ele>508.600006103515625</ele>
        <time>2018-06-21T07:41:49.000Z</time>
      </trkpt>
      <trkpt lat="41.7412137798964977264404296875" lon="1.77871294319629669189453125">
        <ele>510.20001220703125</ele>
        <time>2018-06-21T07:41:55.000Z</time>
      </trkpt>
      <trkpt lat="41.74130983650684356689453125" lon="1.77871755324304103851318359375">
        <ele>511.79998779296875</ele>
        <time>2018-06-21T07:42:02.000Z</time>
      </trkpt>
      <trkpt lat="41.741340346634387969970703125" lon="1.77872459404170513153076171875">
        <ele>512.5999755859375</ele>
        <time>2018-06-21T07:42:04.000Z</time>
      </trkpt>
      <trkpt lat="41.74137965776026248931884765625" lon="1.77874923683702945709228515625">
        <ele>513.79998779296875</ele>
        <time>2018-06-21T07:42:08.000Z</time>
      </trkpt>
      <trkpt lat="41.74142056144773960113525390625" lon="1.77877706475555896759033203125">
        <ele>515.20001220703125</ele>
        <time>2018-06-21T07:42:12.000Z</time>
      </trkpt>
      <trkpt lat="41.74144939519464969635009765625" lon="1.77878879941999912261962890625">
        <ele>516</ele>
        <time>2018-06-21T07:42:15.000Z</time>
      </trkpt>
      <trkpt lat="41.7414863593876361846923828125" lon="1.77881176583468914031982421875">
        <ele>517.20001220703125</ele>
        <time>2018-06-21T07:42:19.000Z</time>
      </trkpt>
      <trkpt lat="41.7414977587759494781494140625" lon="1.7789169587194919586181640625">
        <ele>520</ele>
        <time>2018-06-21T07:42:27.000Z</time>
      </trkpt>
      <trkpt lat="41.74151577986776828765869140625" lon="1.77896775305271148681640625">
        <ele>521.5999755859375</ele>
        <time>2018-06-21T07:42:31.000Z</time>
      </trkpt>
      <trkpt lat="41.74150505103170871734619140625" lon="1.77905517630279064178466796875">
        <ele>523.4000244140625</ele>
        <time>2018-06-21T07:42:38.000Z</time>
      </trkpt>
      <trkpt lat="41.74148275516927242279052734375" lon="1.77912239916622638702392578125">
        <ele>524.20001220703125</ele>
        <time>2018-06-21T07:42:44.000Z</time>
      </trkpt>
      <trkpt lat="41.741495244204998016357421875" lon="1.7791935615241527557373046875">
        <ele>525.79998779296875</ele>
        <time>2018-06-21T07:42:50.000Z</time>
      </trkpt>
      <trkpt lat="41.74151846207678318023681640625" lon="1.77923387847840785980224609375">
        <ele>527</ele>
        <time>2018-06-21T07:42:54.000Z</time>
      </trkpt>
      <trkpt lat="41.7415438592433929443359375" lon="1.7793038673698902130126953125">
        <ele>528.5999755859375</ele>
        <time>2018-06-21T07:43:01.000Z</time>
      </trkpt>
      <trkpt lat="41.74156255088746547698974609375" lon="1.77937318570911884307861328125">
        <ele>529.4000244140625</ele>
        <time>2018-06-21T07:43:06.000Z</time>
      </trkpt>
      <trkpt lat="41.74153958447277545928955078125" lon="1.77945918403565883636474609375">
        <ele>531.4000244140625</ele>
        <time>2018-06-21T07:43:11.000Z</time>
      </trkpt>
      <trkpt lat="41.74146465025842189788818359375" lon="1.77961458452045917510986328125">
        <ele>532.5999755859375</ele>
        <time>2018-06-21T07:43:20.000Z</time>
      </trkpt>
      <trkpt lat="41.74139373935759067535400390625" lon="1.7796763591468334197998046875">
        <ele>532.4000244140625</ele>
        <time>2018-06-21T07:43:27.000Z</time>
      </trkpt>
      <trkpt lat="41.74138267524540424346923828125" lon="1.7796793766319751739501953125">
        <ele>532.20001220703125</ele>
        <time>2018-06-21T07:43:28.000Z</time>
      </trkpt>
      <trkpt lat="41.7413361556828022003173828125" lon="1.779680885374546051025390625">
        <ele>531.20001220703125</ele>
        <time>2018-06-21T07:43:31.000Z</time>
      </trkpt>
      <trkpt lat="41.74128695391118526458740234375" lon="1.77965498529374599456787109375">
        <ele>529.79998779296875</ele>
        <time>2018-06-21T07:43:35.000Z</time>
      </trkpt>
      <trkpt lat="41.74119609408080577850341796875" lon="1.77963889203965663909912109375">
        <ele>527.5999755859375</ele>
        <time>2018-06-21T07:43:41.000Z</time>
      </trkpt>
      <trkpt lat="41.74116893671452999114990234375" lon="1.77962816320359706878662109375">
        <ele>526.79998779296875</ele>
        <time>2018-06-21T07:43:43.000Z</time>
      </trkpt>
      <trkpt lat="41.74112417735159397125244140625" lon="1.77962883375585079193115234375">
        <ele>525.79998779296875</ele>
        <time>2018-06-21T07:43:47.000Z</time>
      </trkpt>
      <trkpt lat="41.74106516875326633453369140625" lon="1.77969329059123992919921875">
        <ele>525.5999755859375</ele>
        <time>2018-06-21T07:43:54.000Z</time>
      </trkpt>
      <trkpt lat="41.7410427890717983245849609375" lon="1.7798213660717010498046875">
        <ele>527.20001220703125</ele>
        <time>2018-06-21T07:44:01.000Z</time>
      </trkpt>
      <trkpt lat="41.74100347794592380523681640625" lon="1.7799281515181064605712890625">
        <ele>527</ele>
        <time>2018-06-21T07:44:08.000Z</time>
      </trkpt>
      <trkpt lat="41.7409985326230525970458984375" lon="1.7799460887908935546875">
        <ele>526.5999755859375</ele>
        <time>2018-06-21T07:44:09.000Z</time>
      </trkpt>
      <trkpt lat="41.7409995384514331817626953125" lon="1.78008028306066989898681640625">
        <ele>525.4000244140625</ele>
        <time>2018-06-21T07:44:16.000Z</time>
      </trkpt>
      <trkpt lat="41.74098738469183444976806640625" lon="1.78013359196484088897705078125">
        <ele>524.5999755859375</ele>
        <time>2018-06-21T07:44:19.000Z</time>
      </trkpt>
      <trkpt lat="41.74093298614025115966796875" lon="1.780253536999225616455078125">
        <ele>523.5999755859375</ele>
        <time>2018-06-21T07:44:26.000Z</time>
      </trkpt>
      <trkpt lat="41.7409331537783145904541015625" lon="1.78035068325698375701904296875">
        <ele>523.4000244140625</ele>
        <time>2018-06-21T07:44:31.000Z</time>
      </trkpt>
      <trkpt lat="41.74092619679868221282958984375" lon="1.7804444767534732818603515625">
        <ele>523.20001220703125</ele>
        <time>2018-06-21T07:44:36.000Z</time>
      </trkpt>
      <trkpt lat="41.7409274540841579437255859375" lon="1.78053005598485469818115234375">
        <ele>523.20001220703125</ele>
        <time>2018-06-21T07:44:41.000Z</time>
      </trkpt>
      <trkpt lat="41.7409187369048595428466796875" lon="1.7806769907474517822265625">
        <ele>522.79998779296875</ele>
        <time>2018-06-21T07:44:48.000Z</time>
      </trkpt>
      <trkpt lat="41.740893758833408355712890625" lon="1.78082275204360485076904296875">
        <ele>518.5999755859375</ele>
        <time>2018-06-21T07:44:56.000Z</time>
      </trkpt>
      <trkpt lat="41.74087607301771640777587890625" lon="1.7808662541210651397705078125">
        <ele>516.79998779296875</ele>
        <time>2018-06-21T07:44:59.000Z</time>
      </trkpt>
      <trkpt lat="41.74088294617831707000732421875" lon="1.78091528825461864471435546875">
        <ele>515.4000244140625</ele>
        <time>2018-06-21T07:45:03.000Z</time>
      </trkpt>
      <trkpt lat="41.74086995422840118408203125" lon="1.7809470556676387786865234375">
        <ele>514.5999755859375</ele>
        <time>2018-06-21T07:45:06.000Z</time>
      </trkpt>
      <trkpt lat="41.7408640868961811065673828125" lon="1.78095585666596889495849609375">
        <ele>514.4000244140625</ele>
        <time>2018-06-21T07:45:07.000Z</time>
      </trkpt>
      <trkpt lat="41.7408640868961811065673828125" lon="1.78095585666596889495849609375">
        <ele>514.4000244140625</ele>
        <time>2018-06-21T07:45:07.000Z</time>
      </trkpt>
      <trkpt lat="41.74086266197264194488525390625" lon="1.780983768403530120849609375">
        <ele>513.79998779296875</ele>
        <time>2018-06-21T07:45:12.000Z</time>
      </trkpt>
      <trkpt lat="41.740879677236080169677734375" lon="1.780945546925067901611328125">
        <ele>514.79998779296875</ele>
        <time>2018-06-21T07:45:19.000Z</time>
      </trkpt>
      <trkpt lat="41.7409532703459262847900390625" lon="1.780873797833919525146484375">
        <ele>517.4000244140625</ele>
        <time>2018-06-21T07:45:25.000Z</time>
      </trkpt>
      <trkpt lat="41.7409502528607845306396484375" lon="1.78077933378517627716064453125">
        <ele>520.79998779296875</ele>
        <time>2018-06-21T07:45:30.000Z</time>
      </trkpt>
      <trkpt lat="41.7409284599125385284423828125" lon="1.7806771583855152130126953125">
        <ele>523</ele>
        <time>2018-06-21T07:45:36.000Z</time>
      </trkpt>
      <trkpt lat="41.7409398593008518218994140625" lon="1.78055335767567157745361328125">
        <ele>523.20001220703125</ele>
        <time>2018-06-21T07:45:43.000Z</time>
      </trkpt>
      <trkpt lat="41.74093726091086864471435546875" lon="1.78045637905597686767578125">
        <ele>523.4000244140625</ele>
        <time>2018-06-21T07:45:48.000Z</time>
      </trkpt>
      <trkpt lat="41.74093164503574371337890625" lon="1.7803953588008880615234375">
        <ele>523.4000244140625</ele>
        <time>2018-06-21T07:45:51.000Z</time>
      </trkpt>
      <trkpt lat="41.74091815017163753509521484375" lon="1.780300475656986236572265625">
        <ele>523.20001220703125</ele>
        <time>2018-06-21T07:45:56.000Z</time>
      </trkpt>
      <trkpt lat="41.74093927256762981414794921875" lon="1.7802342586219310760498046875">
        <ele>523.5999755859375</ele>
        <time>2018-06-21T07:46:00.000Z</time>
      </trkpt>
      <trkpt lat="41.74099476076662540435791015625" lon="1.7801673710346221923828125">
        <ele>524.4000244140625</ele>
        <time>2018-06-21T07:46:05.000Z</time>
      </trkpt>
      <trkpt lat="41.74099945463240146636962890625" lon="1.78015186451375484466552734375">
        <ele>524.79998779296875</ele>
        <time>2018-06-21T07:46:06.000Z</time>
      </trkpt>
      <trkpt lat="41.74100406467914581298828125" lon="1.7801021598279476165771484375">
        <ele>525.20001220703125</ele>
        <time>2018-06-21T07:46:09.000Z</time>
      </trkpt>
      <trkpt lat="41.740995347499847412109375" lon="1.78008229471743106842041015625">
        <ele>525.20001220703125</ele>
        <time>2018-06-21T07:46:11.000Z</time>
      </trkpt>
      <trkpt lat="41.741014458239078521728515625" lon="1.77998657338321208953857421875">
        <ele>526.5999755859375</ele>
        <time>2018-06-21T07:46:17.000Z</time>
      </trkpt>
      <trkpt lat="41.74104605801403522491455078125" lon="1.77990677766501903533935546875">
        <ele>528</ele>
        <time>2018-06-21T07:46:22.000Z</time>
      </trkpt>
      <trkpt lat="41.741068772971630096435546875" lon="1.77984475158154964447021484375">
        <ele>528.20001220703125</ele>
        <time>2018-06-21T07:46:25.000Z</time>
      </trkpt>
      <trkpt lat="41.7410823516547679901123046875" lon="1.77976227365434169769287109375">
        <ele>527.20001220703125</ele>
        <time>2018-06-21T07:46:29.000Z</time>
      </trkpt>
      <trkpt lat="41.7410880513489246368408203125" lon="1.77974316291511058807373046875">
        <ele>527</ele>
        <time>2018-06-21T07:46:30.000Z</time>
      </trkpt>
      <trkpt lat="41.74110087566077709197998046875" lon="1.7796979844570159912109375">
        <ele>526.4000244140625</ele>
        <time>2018-06-21T07:46:32.000Z</time>
      </trkpt>
      <trkpt lat="41.7411641590297222137451171875" lon="1.77964425645768642425537109375">
        <ele>527</ele>
        <time>2018-06-21T07:46:37.000Z</time>
      </trkpt>
      <trkpt lat="41.74124085344374179840087890625" lon="1.7796612717211246490478515625">
        <ele>528.79998779296875</ele>
        <time>2018-06-21T07:46:45.000Z</time>
      </trkpt>
      <trkpt lat="41.7412942461669445037841796875" lon="1.7796820588409900665283203125">
        <ele>530.4000244140625</ele>
        <time>2018-06-21T07:46:49.000Z</time>
      </trkpt>
      <trkpt lat="41.74133908934891223907470703125" lon="1.77968365140259265899658203125">
        <ele>531.4000244140625</ele>
        <time>2018-06-21T07:46:53.000Z</time>
      </trkpt>
      <trkpt lat="41.7414102517068386077880859375" lon="1.779647357761859893798828125">
        <ele>532.20001220703125</ele>
        <time>2018-06-21T07:46:58.000Z</time>
      </trkpt>
      <trkpt lat="41.74148107878863811492919921875" lon="1.779593043029308319091796875">
        <ele>532.5999755859375</ele>
        <time>2018-06-21T07:47:03.000Z</time>
      </trkpt>
      <trkpt lat="41.7415116727352142333984375" lon="1.77952925674617290496826171875">
        <ele>532</ele>
        <time>2018-06-21T07:47:07.000Z</time>
      </trkpt>
      <trkpt lat="41.74157227389514446258544921875" lon="1.77944895811378955841064453125">
        <ele>530.5999755859375</ele>
        <time>2018-06-21T07:47:13.000Z</time>
      </trkpt>
      <trkpt lat="41.741566993296146392822265625" lon="1.779363043606281280517578125">
        <ele>529.20001220703125</ele>
        <time>2018-06-21T07:47:19.000Z</time>
      </trkpt>
      <trkpt lat="41.741562299430370330810546875" lon="1.779353655874729156494140625">
        <ele>529.20001220703125</ele>
        <time>2018-06-21T07:47:20.000Z</time>
      </trkpt>
      <trkpt lat="41.7415547557175159454345703125" lon="1.77933446131646633148193359375">
        <ele>529</ele>
        <time>2018-06-21T07:47:22.000Z</time>
      </trkpt>
      <trkpt lat="41.741547882556915283203125" lon="1.7792820744216442108154296875">
        <ele>528</ele>
        <time>2018-06-21T07:47:27.000Z</time>
      </trkpt>
      <trkpt lat="41.7415376566350460052490234375" lon="1.77923924289643764495849609375">
        <ele>527.4000244140625</ele>
        <time>2018-06-21T07:47:31.000Z</time>
      </trkpt>
      <trkpt lat="41.74151594750583171844482421875" lon="1.77919347770512104034423828125">
        <ele>526.20001220703125</ele>
        <time>2018-06-21T07:47:36.000Z</time>
      </trkpt>
      <trkpt lat="41.7415329627692699432373046875" lon="1.7791405878961086273193359375">
        <ele>525.5999755859375</ele>
        <time>2018-06-21T07:47:40.000Z</time>
      </trkpt>
      <trkpt lat="41.74155584536492824554443359375" lon="1.7791120894253253936767578125">
        <ele>524.79998779296875</ele>
        <time>2018-06-21T07:47:44.000Z</time>
      </trkpt>
      <trkpt lat="41.74158099107444286346435546875" lon="1.77906137891113758087158203125">
        <ele>524</ele>
        <time>2018-06-21T07:47:49.000Z</time>
      </trkpt>
      <trkpt lat="41.74158476293087005615234375" lon="1.77899683825671672821044921875">
        <ele>522.79998779296875</ele>
        <time>2018-06-21T07:47:54.000Z</time>
      </trkpt>
      <trkpt lat="41.74158275127410888671875" lon="1.7789179645478725433349609375">
        <ele>520.79998779296875</ele>
        <time>2018-06-21T07:48:00.000Z</time>
      </trkpt>
      <trkpt lat="41.741566993296146392822265625" lon="1.77890748716890811920166015625">
        <ele>520.5999755859375</ele>
        <time>2018-06-21T07:48:05.000Z</time>
      </trkpt>
      <trkpt lat="41.741533465683460235595703125" lon="1.77889089100062847137451171875">
        <ele>520</ele>
        <time>2018-06-21T07:48:09.000Z</time>
      </trkpt>
      <trkpt lat="41.7414950765669345855712890625" lon="1.77888535894453525543212890625">
        <ele>519.20001220703125</ele>
        <time>2018-06-21T07:48:13.000Z</time>
      </trkpt>
      <trkpt lat="41.741416454315185546875" lon="1.77885686047375202178955078125">
        <ele>517.20001220703125</ele>
        <time>2018-06-21T07:48:19.000Z</time>
      </trkpt>
      <trkpt lat="41.74139558337628841400146484375" lon="1.7788502387702465057373046875">
        <ele>516.5999755859375</ele>
        <time>2018-06-21T07:48:21.000Z</time>
      </trkpt>
      <trkpt lat="41.74135736189782619476318359375" lon="1.77885065786540508270263671875">
        <ele>516</ele>
        <time>2018-06-21T07:48:24.000Z</time>
      </trkpt>
      <trkpt lat="41.74132995307445526123046875" lon="1.77883674390614032745361328125">
        <ele>515.20001220703125</ele>
        <time>2018-06-21T07:48:27.000Z</time>
      </trkpt>
      <trkpt lat="41.74126088619232177734375" lon="1.7788170464336872100830078125">
        <ele>513.4000244140625</ele>
        <time>2018-06-21T07:48:32.000Z</time>
      </trkpt>
      <trkpt lat="41.7411963455379009246826171875" lon="1.77880204282701015472412109375">
        <ele>511.79998779296875</ele>
        <time>2018-06-21T07:48:36.000Z</time>
      </trkpt>
      <trkpt lat="41.741146557033061981201171875" lon="1.7787479795515537261962890625">
        <ele>509.600006103515625</ele>
        <time>2018-06-21T07:48:41.000Z</time>
      </trkpt>
      <trkpt lat="41.74114479683339595794677734375" lon="1.77872844971716403961181640625">
        <ele>509</ele>
        <time>2018-06-21T07:48:42.000Z</time>
      </trkpt>
      <trkpt lat="41.74114085733890533447265625" lon="1.7786510847508907318115234375">
        <ele>507.399993896484375</ele>
        <time>2018-06-21T07:48:47.000Z</time>
      </trkpt>
      <trkpt lat="41.7411396838724613189697265625" lon="1.7785598896443843841552734375">
        <ele>505</ele>
        <time>2018-06-21T07:48:52.000Z</time>
      </trkpt>
      <trkpt lat="41.7411165498197078704833984375" lon="1.77841546945273876190185546875">
        <ele>501</ele>
        <time>2018-06-21T07:49:00.000Z</time>
      </trkpt>
      <trkpt lat="41.74111068248748779296875" lon="1.77839786745607852935791015625">
        <ele>500.399993896484375</ele>
        <time>2018-06-21T07:49:01.000Z</time>
      </trkpt>
      <trkpt lat="41.74110598862171173095703125" lon="1.77829946391284465789794921875">
        <ele>497.79998779296875</ele>
        <time>2018-06-21T07:49:06.000Z</time>
      </trkpt>
      <trkpt lat="41.7410890571773052215576171875" lon="1.77826057188212871551513671875">
        <ele>496.600006103515625</ele>
        <time>2018-06-21T07:49:09.000Z</time>
      </trkpt>
      <trkpt lat="41.7410932481288909912109375" lon="1.77817205898463726043701171875">
        <ele>494.79998779296875</ele>
        <time>2018-06-21T07:49:15.000Z</time>
      </trkpt>
      <trkpt lat="41.7411078326404094696044921875" lon="1.77808857522904872894287109375">
        <ele>493.399993896484375</ele>
        <time>2018-06-21T07:49:19.000Z</time>
      </trkpt>
      <trkpt lat="41.74110758118331432342529296875" lon="1.7780043371021747589111328125">
        <ele>491.79998779296875</ele>
        <time>2018-06-21T07:49:23.000Z</time>
      </trkpt>
      <trkpt lat="41.7411222495138645172119140625" lon="1.7779020778834819793701171875">
        <ele>490</ele>
        <time>2018-06-21T07:49:28.000Z</time>
      </trkpt>
      <trkpt lat="41.74116189591586589813232421875" lon="1.77780996076762676239013671875">
        <ele>489</ele>
        <time>2018-06-21T07:49:33.000Z</time>
      </trkpt>
      <trkpt lat="41.7411936633288860321044921875" lon="1.7777491919696331024169921875">
        <ele>488.600006103515625</ele>
        <time>2018-06-21T07:49:36.000Z</time>
      </trkpt>
      <trkpt lat="41.7412005364894866943359375" lon="1.7777089588344097137451171875">
        <ele>488</ele>
        <time>2018-06-21T07:49:38.000Z</time>
      </trkpt>
      <trkpt lat="41.74119458533823490142822265625" lon="1.77757375873625278472900390625">
        <ele>485.600006103515625</ele>
        <time>2018-06-21T07:49:45.000Z</time>
      </trkpt>
      <trkpt lat="41.74123263917863368988037109375" lon="1.77750687114894390106201171875">
        <ele>485.20001220703125</ele>
        <time>2018-06-21T07:49:50.000Z</time>
      </trkpt>
      <trkpt lat="41.74122777767479419708251953125" lon="1.7774209566414356231689453125">
        <ele>483.600006103515625</ele>
        <time>2018-06-21T07:49:55.000Z</time>
      </trkpt>
      <trkpt lat="41.741228364408016204833984375" lon="1.77738659083843231201171875">
        <ele>483.20001220703125</ele>
        <time>2018-06-21T07:49:58.000Z</time>
      </trkpt>
      <trkpt lat="41.74121989868581295013427734375" lon="1.777295060455799102783203125">
        <ele>481.600006103515625</ele>
        <time>2018-06-21T07:50:03.000Z</time>
      </trkpt>
      <trkpt lat="41.7412050627171993255615234375" lon="1.77722708322107791900634765625">
        <ele>480.20001220703125</ele>
        <time>2018-06-21T07:50:08.000Z</time>
      </trkpt>
      <trkpt lat="41.74121998250484466552734375" lon="1.77718274295330047607421875">
        <ele>479.79998779296875</ele>
        <time>2018-06-21T07:50:15.000Z</time>
      </trkpt>
      <trkpt lat="41.7412080802023410797119140625" lon="1.77711459808051586151123046875">
        <ele>478.399993896484375</ele>
        <time>2018-06-21T07:50:19.000Z</time>
      </trkpt>
      <trkpt lat="41.74120699055492877960205078125" lon="1.77710085175931453704833984375">
        <ele>478.20001220703125</ele>
        <time>2018-06-21T07:50:20.000Z</time>
      </trkpt>
      <trkpt lat="41.74117178656160831451416015625" lon="1.77702985703945159912109375">
        <ele>476.399993896484375</ele>
        <time>2018-06-21T07:50:25.000Z</time>
      </trkpt>
      <trkpt lat="41.74113356508314609527587890625" lon="1.77698266692459583282470703125">
        <ele>475</ele>
        <time>2018-06-21T07:50:29.000Z</time>
      </trkpt>
      <trkpt lat="41.741112358868122100830078125" lon="1.77691586315631866455078125">
        <ele>474</ele>
        <time>2018-06-21T07:50:34.000Z</time>
      </trkpt>
      <trkpt lat="41.7410575412213802337646484375" lon="1.77687856368720531463623046875">
        <ele>472.20001220703125</ele>
        <time>2018-06-21T07:50:40.000Z</time>
      </trkpt>
      <trkpt lat="41.74104966223239898681640625" lon="1.77681737579405307769775390625">
        <ele>471.79998779296875</ele>
        <time>2018-06-21T07:50:44.000Z</time>
      </trkpt>
      <trkpt lat="41.74102594144642353057861328125" lon="1.776710338890552520751953125">
        <ele>470.79998779296875</ele>
        <time>2018-06-21T07:50:52.000Z</time>
      </trkpt>
      <trkpt lat="41.74101688899099826812744140625" lon="1.77668896503746509552001953125">
        <ele>470.399993896484375</ele>
        <time>2018-06-21T07:50:53.000Z</time>
      </trkpt>
      <trkpt lat="41.74103784374892711639404296875" lon="1.7765673436224460601806640625">
        <ele>470.79998779296875</ele>
        <time>2018-06-21T07:50:58.000Z</time>
      </trkpt>
      <trkpt lat="41.74105477519333362579345703125" lon="1.77645586431026458740234375">
        <ele>470.20001220703125</ele>
        <time>2018-06-21T07:51:04.000Z</time>
      </trkpt>
      <trkpt lat="41.7410451360046863555908203125" lon="1.7764087580144405364990234375">
        <ele>469.399993896484375</ele>
        <time>2018-06-21T07:51:06.000Z</time>
      </trkpt>
      <trkpt lat="41.7410263605415821075439453125" lon="1.77624036557972431182861328125">
        <ele>466.600006103515625</ele>
        <time>2018-06-21T07:51:13.000Z</time>
      </trkpt>
      <trkpt lat="41.74103365279734134674072265625" lon="1.776104159653186798095703125">
        <ele>465.20001220703125</ele>
        <time>2018-06-21T07:51:19.000Z</time>
      </trkpt>
      <trkpt lat="41.74106248654425144195556640625" lon="1.77599745802581310272216796875">
        <ele>466.20001220703125</ele>
        <time>2018-06-21T07:51:24.000Z</time>
      </trkpt>
      <trkpt lat="41.74107053317129611968994140625" lon="1.77595688961446285247802734375">
        <ele>466.79998779296875</ele>
        <time>2018-06-21T07:51:26.000Z</time>
      </trkpt>
      <trkpt lat="41.74109257757663726806640625" lon="1.77586175501346588134765625">
        <ele>468.20001220703125</ele>
        <time>2018-06-21T07:51:31.000Z</time>
      </trkpt>
      <trkpt lat="41.7411014623939990997314453125" lon="1.77575647830963134765625">
        <ele>469.20001220703125</ele>
        <time>2018-06-21T07:51:36.000Z</time>
      </trkpt>
      <trkpt lat="41.74111403524875640869140625" lon="1.77565095014870166778564453125">
        <ele>469</ele>
        <time>2018-06-21T07:51:40.000Z</time>
      </trkpt>
      <trkpt lat="41.741125769913196563720703125" lon="1.7754813842475414276123046875">
        <ele>467</ele>
        <time>2018-06-21T07:51:48.000Z</time>
      </trkpt>
      <trkpt lat="41.7411522567272186279296875" lon="1.7754022590816020965576171875">
        <ele>467</ele>
        <time>2018-06-21T07:51:52.000Z</time>
      </trkpt>
      <trkpt lat="41.741164661943912506103515625" lon="1.77521827630698680877685546875">
        <ele>464.399993896484375</ele>
        <time>2018-06-21T07:52:01.000Z</time>
      </trkpt>
      <trkpt lat="41.74118385650217533111572265625" lon="1.775092296302318572998046875">
        <ele>462.79998779296875</ele>
        <time>2018-06-21T07:52:08.000Z</time>
      </trkpt>
      <trkpt lat="41.741237081587314605712890625" lon="1.7749459482729434967041015625">
        <ele>462.399993896484375</ele>
        <time>2018-06-21T07:52:16.000Z</time>
      </trkpt>
      <trkpt lat="41.7413056455552577972412109375" lon="1.774897836148738861083984375">
        <ele>464.600006103515625</ele>
        <time>2018-06-21T07:52:21.000Z</time>
      </trkpt>
      <trkpt lat="41.74138736911118030548095703125" lon="1.77481695078313350677490234375">
        <ele>466.20001220703125</ele>
        <time>2018-06-21T07:52:28.000Z</time>
      </trkpt>
      <trkpt lat="41.741481162607669830322265625" lon="1.77479884587228298187255859375">
        <ele>469.79998779296875</ele>
        <time>2018-06-21T07:52:34.000Z</time>
      </trkpt>
      <trkpt lat="41.7415527440607547760009765625" lon="1.7747427709400653839111328125">
        <ele>470.399993896484375</ele>
        <time>2018-06-21T07:52:40.000Z</time>
      </trkpt>
      <trkpt lat="41.74165508709847927093505859375" lon="1.7746431939303874969482421875">
        <ele>468.600006103515625</ele>
        <time>2018-06-21T07:52:48.000Z</time>
      </trkpt>
      <trkpt lat="41.74171627499163150787353515625" lon="1.774535737931728363037109375">
        <ele>465.79998779296875</ele>
        <time>2018-06-21T07:52:54.000Z</time>
      </trkpt>
      <trkpt lat="41.74176983535289764404296875" lon="1.7744775675237178802490234375">
        <ele>464.600006103515625</ele>
        <time>2018-06-21T07:52:59.000Z</time>
      </trkpt>
      <trkpt lat="41.74184627830982208251953125" lon="1.7744247615337371826171875">
        <ele>464.20001220703125</ele>
        <time>2018-06-21T07:53:06.000Z</time>
      </trkpt>
      <trkpt lat="41.7418467812240123748779296875" lon="1.77441277541220188140869140625">
        <ele>463.79998779296875</ele>
        <time>2018-06-21T07:53:07.000Z</time>
      </trkpt>
      <trkpt lat="41.74186346121132373809814453125" lon="1.7743662558495998382568359375">
        <ele>462.399993896484375</ele>
        <time>2018-06-21T07:53:10.000Z</time>
      </trkpt>
      <trkpt lat="41.7419037781655788421630859375" lon="1.7743201553821563720703125">
        <ele>464.600006103515625</ele>
        <time>2018-06-21T07:53:14.000Z</time>
      </trkpt>
      <trkpt lat="41.74189229495823383331298828125" lon="1.7742155492305755615234375">
        <ele>463.79998779296875</ele>
        <time>2018-06-21T07:53:20.000Z</time>
      </trkpt>
      <trkpt lat="41.7418702505528926849365234375" lon="1.774123348295688629150390625">
        <ele>462.600006103515625</ele>
        <time>2018-06-21T07:53:26.000Z</time>
      </trkpt>
      <trkpt lat="41.7418799735605716705322265625" lon="1.7740527726709842681884765625">
        <ele>463</ele>
        <time>2018-06-21T07:53:30.000Z</time>
      </trkpt>
      <trkpt lat="41.74190805293619632720947265625" lon="1.77396434359252452850341796875">
        <ele>462.399993896484375</ele>
        <time>2018-06-21T07:53:36.000Z</time>
      </trkpt>
      <trkpt lat="41.74190738238394260406494140625" lon="1.77386325784027576446533203125">
        <ele>459.79998779296875</ele>
        <time>2018-06-21T07:53:42.000Z</time>
      </trkpt>
      <trkpt lat="41.741907633841037750244140625" lon="1.7738445661962032318115234375">
        <ele>459.399993896484375</ele>
        <time>2018-06-21T07:53:43.000Z</time>
      </trkpt>
      <trkpt lat="41.74190805293619632720947265625" lon="1.7738123796880245208740234375">
        <ele>458.600006103515625</ele>
        <time>2018-06-21T07:53:45.000Z</time>
      </trkpt>
      <trkpt lat="41.741928756237030029296875" lon="1.77370115183293819427490234375">
        <ele>456.79998779296875</ele>
        <time>2018-06-21T07:53:54.000Z</time>
      </trkpt>
      <trkpt lat="41.7419359646737575531005859375" lon="1.77364566363394260406494140625">
        <ele>455.79998779296875</ele>
        <time>2018-06-21T07:53:59.000Z</time>
      </trkpt>
      <trkpt lat="41.741914339363574981689453125" lon="1.77357056178152561187744140625">
        <ele>453</ele>
        <time>2018-06-21T07:54:04.000Z</time>
      </trkpt>
      <trkpt lat="41.74188726581633090972900390625" lon="1.77349579520523548126220703125">
        <ele>450</ele>
        <time>2018-06-21T07:54:10.000Z</time>
      </trkpt>
      <trkpt lat="41.7418737709522247314453125" lon="1.77341264672577381134033203125">
        <ele>448</ele>
        <time>2018-06-21T07:54:15.000Z</time>
      </trkpt>
      <trkpt lat="41.7418551631271839141845703125" lon="1.77334106527268886566162109375">
        <ele>445.600006103515625</ele>
        <time>2018-06-21T07:54:19.000Z</time>
      </trkpt>
      <trkpt lat="41.741861365735530853271484375" lon="1.77327149547636508941650390625">
        <ele>445</ele>
        <time>2018-06-21T07:54:23.000Z</time>
      </trkpt>
      <trkpt lat="41.74184015952050685882568359375" lon="1.77314828149974346160888671875">
        <ele>441.600006103515625</ele>
        <time>2018-06-21T07:54:30.000Z</time>
      </trkpt>
      <trkpt lat="41.74183915369212627410888671875" lon="1.77309514023363590240478515625">
        <ele>440.600006103515625</ele>
        <time>2018-06-21T07:54:33.000Z</time>
      </trkpt>
      <trkpt lat="41.74184284172952175140380859375" lon="1.77298047579824924468994140625">
        <ele>439</ele>
        <time>2018-06-21T07:54:40.000Z</time>
      </trkpt>
      <trkpt lat="41.74181065522134304046630859375" lon="1.77294326014816761016845703125">
        <ele>436.399993896484375</ele>
        <time>2018-06-21T07:54:44.000Z</time>
      </trkpt>
      <trkpt lat="41.741764135658740997314453125" lon="1.77291828207671642303466796875">
        <ele>433</ele>
        <time>2018-06-21T07:54:50.000Z</time>
      </trkpt>
      <trkpt lat="41.74173119477927684783935546875" lon="1.7729121632874011993408203125">
        <ele>430.79998779296875</ele>
        <time>2018-06-21T07:54:54.000Z</time>
      </trkpt>
      <trkpt lat="41.74172197468578815460205078125" lon="1.7729510553181171417236328125">
        <ele>431</ele>
        <time>2018-06-21T07:54:57.000Z</time>
      </trkpt>
      <trkpt lat="41.741681657731533050537109375" lon="1.7729463614523410797119140625">
        <ele>428.399993896484375</ele>
        <time>2018-06-21T07:55:00.000Z</time>
      </trkpt>
      <trkpt lat="41.7416221462190151214599609375" lon="1.77290906198322772979736328125">
        <ele>424</ele>
        <time>2018-06-21T07:55:06.000Z</time>
      </trkpt>
      <trkpt lat="41.74159708432853221893310546875" lon="1.77289514802396297454833984375">
        <ele>422.20001220703125</ele>
        <time>2018-06-21T07:55:10.000Z</time>
      </trkpt>
      <trkpt lat="41.74157495610415935516357421875" lon="1.7728843353688716888427734375">
        <ele>420.600006103515625</ele>
        <time>2018-06-21T07:55:14.000Z</time>
      </trkpt>
      <trkpt lat="41.74154779873788356781005859375" lon="1.77287318743765354156494140625">
        <ele>418.79998779296875</ele>
        <time>2018-06-21T07:55:18.000Z</time>
      </trkpt>
      <trkpt lat="41.7415158636868000030517578125" lon="1.77283488214015960693359375">
        <ele>416.600006103515625</ele>
        <time>2018-06-21T07:55:23.000Z</time>
      </trkpt>
      <trkpt lat="41.741503290832042694091796875" lon="1.772813089191913604736328125">
        <ele>415.600006103515625</ele>
        <time>2018-06-21T07:55:28.000Z</time>
      </trkpt>
      <trkpt lat="41.7414719425141811370849609375" lon="1.77277964539825916290283203125">
        <ele>413.600006103515625</ele>
        <time>2018-06-21T07:55:33.000Z</time>
      </trkpt>
      <trkpt lat="41.7414568550884723663330078125" lon="1.77273136563599109649658203125">
        <ele>412</ele>
        <time>2018-06-21T07:55:38.000Z</time>
      </trkpt>
      <trkpt lat="41.741432882845401763916015625" lon="1.772692389786243438720703125">
        <ele>410.20001220703125</ele>
        <time>2018-06-21T07:55:41.000Z</time>
      </trkpt>
      <trkpt lat="41.741479150950908660888671875" lon="1.77263497374951839447021484375">
        <ele>411.399993896484375</ele>
        <time>2018-06-21T07:55:46.000Z</time>
      </trkpt>
      <trkpt lat="41.74152634106576442718505859375" lon="1.772594153881072998046875">
        <ele>413</ele>
        <time>2018-06-21T07:55:50.000Z</time>
      </trkpt>
      <trkpt lat="41.7416087351739406585693359375" lon="1.7725443653762340545654296875">
        <ele>417</ele>
        <time>2018-06-21T07:55:56.000Z</time>
      </trkpt>
      <trkpt lat="41.7417101562023162841796875" lon="1.7724739573895931243896484375">
        <ele>421</ele>
        <time>2018-06-21T07:56:03.000Z</time>
      </trkpt>
      <trkpt lat="41.7417267523705959320068359375" lon="1.7724452912807464599609375">
        <ele>420.79998779296875</ele>
        <time>2018-06-21T07:56:05.000Z</time>
      </trkpt>
      <trkpt lat="41.7417904548346996307373046875" lon="1.7723594605922698974609375">
        <ele>421.20001220703125</ele>
        <time>2018-06-21T07:56:10.000Z</time>
      </trkpt>
      <trkpt lat="41.7418199591338634490966796875" lon="1.7723123542964458465576171875">
        <ele>421</ele>
        <time>2018-06-21T07:56:14.000Z</time>
      </trkpt>
      <trkpt lat="41.7418504692614078521728515625" lon="1.77228695712983608245849609375">
        <ele>421.79998779296875</ele>
        <time>2018-06-21T07:56:17.000Z</time>
      </trkpt>
      <trkpt lat="41.7418360523879528045654296875" lon="1.7722452990710735321044921875">
        <ele>419.79998779296875</ele>
        <time>2018-06-21T07:56:21.000Z</time>
      </trkpt>
      <trkpt lat="41.74178056418895721435546875" lon="1.77226893603801727294921875">
        <ele>418</ele>
        <time>2018-06-21T07:56:26.000Z</time>
      </trkpt>
      <trkpt lat="41.7417049594223499298095703125" lon="1.77232366986572742462158203125">
        <ele>416</ele>
        <time>2018-06-21T07:56:32.000Z</time>
      </trkpt>
      <trkpt lat="41.741687692701816558837890625" lon="1.7723304592072963714599609375">
        <ele>415.399993896484375</ele>
        <time>2018-06-21T07:56:33.000Z</time>
      </trkpt>
      <trkpt lat="41.74162357114255428314208984375" lon="1.77238158881664276123046875">
        <ele>414</ele>
        <time>2018-06-21T07:56:39.000Z</time>
      </trkpt>
      <trkpt lat="41.741531454026699066162109375" lon="1.77239843644201755523681640625">
        <ele>410</ele>
        <time>2018-06-21T07:56:46.000Z</time>
      </trkpt>
      <trkpt lat="41.7414806596934795379638671875" lon="1.77241436205804347991943359375">
        <ele>407.79998779296875</ele>
        <time>2018-06-21T07:56:50.000Z</time>
      </trkpt>
      <trkpt lat="41.74141469411551952362060546875" lon="1.77243263460695743560791015625">
        <ele>405</ele>
        <time>2018-06-21T07:56:55.000Z</time>
      </trkpt>
      <trkpt lat="41.741399355232715606689453125" lon="1.77243649028241634368896484375">
        <ele>404.399993896484375</ele>
        <time>2018-06-21T07:56:57.000Z</time>
      </trkpt>
      <trkpt lat="41.74130757339298725128173828125" lon="1.772419475018978118896484375">
        <ele>399.79998779296875</ele>
        <time>2018-06-21T07:57:02.000Z</time>
      </trkpt>
      <trkpt lat="41.7412808351218700408935546875" lon="1.7724152840673923492431640625">
        <ele>398.399993896484375</ele>
        <time>2018-06-21T07:57:04.000Z</time>
      </trkpt>
      <trkpt lat="41.74128125421702861785888671875" lon="1.772320568561553955078125">
        <ele>397</ele>
        <time>2018-06-21T07:57:10.000Z</time>
      </trkpt>
      <trkpt lat="41.74127706326544284820556640625" lon="1.77231193520128726959228515625">
        <ele>396.79998779296875</ele>
        <time>2018-06-21T07:57:11.000Z</time>
      </trkpt>
      <trkpt lat="41.741262562572956085205078125" lon="1.7723019607365131378173828125">
        <ele>395.79998779296875</ele>
        <time>2018-06-21T07:57:14.000Z</time>
      </trkpt>
      <trkpt lat="41.74123096279799938201904296875" lon="1.77229735068976879119873046875">
        <ele>394.399993896484375</ele>
        <time>2018-06-21T07:57:17.000Z</time>
      </trkpt>
      <trkpt lat="41.74115334637463092803955078125" lon="1.77232014946639537811279296875">
        <ele>391</ele>
        <time>2018-06-21T07:57:23.000Z</time>
      </trkpt>
      <trkpt lat="41.74108855426311492919921875" lon="1.77234395407140254974365234375">
        <ele>388.399993896484375</ele>
        <time>2018-06-21T07:57:26.000Z</time>
      </trkpt>
      <trkpt lat="41.74106667749583721160888671875" lon="1.7723817564547061920166015625">
        <ele>387.79998779296875</ele>
        <time>2018-06-21T07:57:30.000Z</time>
      </trkpt>
      <trkpt lat="41.74105008132755756378173828125" lon="1.772513352334499359130859375">
        <ele>389.399993896484375</ele>
        <time>2018-06-21T07:57:38.000Z</time>
      </trkpt>
      <trkpt lat="41.74106047488749027252197265625" lon="1.772645451128482818603515625">
        <ele>392</ele>
        <time>2018-06-21T07:57:45.000Z</time>
      </trkpt>
      <trkpt lat="41.74106684513390064239501953125" lon="1.77269834093749523162841796875">
        <ele>393.20001220703125</ele>
        <time>2018-06-21T07:57:48.000Z</time>
      </trkpt>
      <trkpt lat="41.7410538531839847564697265625" lon="1.77279657684266567230224609375">
        <ele>394.399993896484375</ele>
        <time>2018-06-21T07:57:54.000Z</time>
      </trkpt>
      <trkpt lat="41.741036586463451385498046875" lon="1.77293546497821807861328125">
        <ele>396.399993896484375</ele>
        <time>2018-06-21T07:58:02.000Z</time>
      </trkpt>
      <trkpt lat="41.7410082556307315826416015625" lon="1.7730331979691982269287109375">
        <ele>397</ele>
        <time>2018-06-21T07:58:07.000Z</time>
      </trkpt>
      <trkpt lat="41.7409834451973438262939453125" lon="1.77314559929072856903076171875">
        <ele>398</ele>
        <time>2018-06-21T07:58:14.000Z</time>
      </trkpt>
      <trkpt lat="41.740932650864124298095703125" lon="1.77321634255349636077880859375">
        <ele>397.20001220703125</ele>
        <time>2018-06-21T07:58:20.000Z</time>
      </trkpt>
      <trkpt lat="41.74089116044342517852783203125" lon="1.77328926511108875274658203125">
        <ele>397.20001220703125</ele>
        <time>2018-06-21T07:58:25.000Z</time>
      </trkpt>
      <trkpt lat="41.74080985598266124725341796875" lon="1.77335145883262157440185546875">
        <ele>395.20001220703125</ele>
        <time>2018-06-21T07:58:31.000Z</time>
      </trkpt>
      <trkpt lat="41.74074397422373294830322265625" lon="1.77340158261358737945556640625">
        <ele>394.399993896484375</ele>
        <time>2018-06-21T07:58:36.000Z</time>
      </trkpt>
      <trkpt lat="41.74067683517932891845703125" lon="1.77343544550240039825439453125">
        <ele>393.20001220703125</ele>
        <time>2018-06-21T07:58:42.000Z</time>
      </trkpt>
      <trkpt lat="41.74064925871789455413818359375" lon="1.77344265393912792205810546875">
        <ele>392.79998779296875</ele>
        <time>2018-06-21T07:58:45.000Z</time>
      </trkpt>
      <trkpt lat="41.7405713908374309539794921875" lon="1.7734566517174243927001953125">
        <ele>391.20001220703125</ele>
        <time>2018-06-21T07:58:49.000Z</time>
      </trkpt>
      <trkpt lat="41.74050173722207546234130859375" lon="1.77345447242259979248046875">
        <ele>389.399993896484375</ele>
        <time>2018-06-21T07:58:56.000Z</time>
      </trkpt>
      <trkpt lat="41.7404426448047161102294921875" lon="1.77344349212944507598876953125">
        <ele>387.600006103515625</ele>
        <time>2018-06-21T07:59:00.000Z</time>
      </trkpt>
      <trkpt lat="41.740383468568325042724609375" lon="1.77346075884997844696044921875">
        <ele>386.600006103515625</ele>
        <time>2018-06-21T07:59:06.000Z</time>
      </trkpt>
      <trkpt lat="41.7403400503098964691162109375" lon="1.773488335311412811279296875">
        <ele>386.399993896484375</ele>
        <time>2018-06-21T07:59:10.000Z</time>
      </trkpt>
      <trkpt lat="41.74028523266315460205078125" lon="1.77350945770740509033203125">
        <ele>385.600006103515625</ele>
        <time>2018-06-21T07:59:15.000Z</time>
      </trkpt>
      <trkpt lat="41.74021993763744831085205078125" lon="1.7734938673675060272216796875">
        <ele>383.600006103515625</ele>
        <time>2018-06-21T07:59:20.000Z</time>
      </trkpt>
      <trkpt lat="41.74021147191524505615234375" lon="1.77349193952977657318115234375">
        <ele>383.20001220703125</ele>
        <time>2018-06-21T07:59:21.000Z</time>
      </trkpt>
      <trkpt lat="41.7401921935379505157470703125" lon="1.7734794504940509796142578125">
        <ele>382.399993896484375</ele>
        <time>2018-06-21T07:59:23.000Z</time>
      </trkpt>
      <trkpt lat="41.74012639559805393218994140625" lon="1.7734650336205959320068359375">
        <ele>380.20001220703125</ele>
        <time>2018-06-21T07:59:28.000Z</time>
      </trkpt>
      <trkpt lat="41.74006386660039424896240234375" lon="1.77345455624163150787353515625">
        <ele>377.79998779296875</ele>
        <time>2018-06-21T07:59:34.000Z</time>
      </trkpt>
      <trkpt lat="41.74002229236066341400146484375" lon="1.77347936667501926422119140625">
        <ele>376.600006103515625</ele>
        <time>2018-06-21T07:59:39.000Z</time>
      </trkpt>
      <trkpt lat="41.7399816401302814483642578125" lon="1.7734940350055694580078125">
        <ele>375.399993896484375</ele>
        <time>2018-06-21T07:59:43.000Z</time>
      </trkpt>
      <trkpt lat="41.73992908559739589691162109375" lon="1.7734851501882076263427734375">
        <ele>373.399993896484375</ele>
        <time>2018-06-21T07:59:46.000Z</time>
      </trkpt>
      <trkpt lat="41.73984124325215816497802734375" lon="1.77348858676850795745849609375">
        <ele>370.399993896484375</ele>
        <time>2018-06-21T07:59:52.000Z</time>
      </trkpt>
      <trkpt lat="41.739794053137302398681640625" lon="1.773469559848308563232421875">
        <ele>368.600006103515625</ele>
        <time>2018-06-21T07:59:57.000Z</time>
      </trkpt>
      <trkpt lat="41.739727668464183807373046875" lon="1.77345715463161468505859375">
        <ele>366.399993896484375</ele>
        <time>2018-06-21T08:00:02.000Z</time>
      </trkpt>
      <trkpt lat="41.7396728508174419403076171875" lon="1.7734405584633350372314453125">
        <ele>364.399993896484375</ele>
        <time>2018-06-21T08:00:07.000Z</time>
      </trkpt>
      <trkpt lat="41.739600263535976409912109375" lon="1.77344248630106449127197265625">
        <ele>362.20001220703125</ele>
        <time>2018-06-21T08:00:13.000Z</time>
      </trkpt>
      <trkpt lat="41.73952507786452770233154296875" lon="1.7734187655150890350341796875">
        <ele>359.600006103515625</ele>
        <time>2018-06-21T08:00:18.000Z</time>
      </trkpt>
      <trkpt lat="41.7394007742404937744140625" lon="1.77344315685331821441650390625">
        <ele>356.20001220703125</ele>
        <time>2018-06-21T08:00:26.000Z</time>
      </trkpt>
      <trkpt lat="41.73938744701445102691650390625" lon="1.7734499461948871612548828125">
        <ele>356</ele>
        <time>2018-06-21T08:00:27.000Z</time>
      </trkpt>
      <trkpt lat="41.73931586556136608123779296875" lon="1.77357676438987255096435546875">
        <ele>355.600006103515625</ele>
        <time>2018-06-21T08:00:35.000Z</time>
      </trkpt>
      <trkpt lat="41.73928267322480678558349609375" lon="1.77362135611474514007568359375">
        <ele>354.79998779296875</ele>
        <time>2018-06-21T08:00:39.000Z</time>
      </trkpt>
      <trkpt lat="41.73923254944384098052978515625" lon="1.7737201787531375885009765625">
        <ele>353.79998779296875</ele>
        <time>2018-06-21T08:00:46.000Z</time>
      </trkpt>
      <trkpt lat="41.739194579422473907470703125" lon="1.77379167638719081878662109375">
        <ele>353.20001220703125</ele>
        <time>2018-06-21T08:00:51.000Z</time>
      </trkpt>
      <trkpt lat="41.7391799949109554290771484375" lon="1.773801483213901519775390625">
        <ele>352.79998779296875</ele>
        <time>2018-06-21T08:00:52.000Z</time>
      </trkpt>
      <trkpt lat="41.739174462854862213134765625" lon="1.773893348872661590576171875">
        <ele>353.600006103515625</ele>
        <time>2018-06-21T08:00:57.000Z</time>
      </trkpt>
      <trkpt lat="41.73916465602815151214599609375" lon="1.77393265999853610992431640625">
        <ele>353.600006103515625</ele>
        <time>2018-06-21T08:01:00.000Z</time>
      </trkpt>
      <trkpt lat="41.73915845341980457305908203125" lon="1.77403776906430721282958984375">
        <ele>354.399993896484375</ele>
        <time>2018-06-21T08:01:06.000Z</time>
      </trkpt>
      <trkpt lat="41.73912576399743556976318359375" lon="1.77416886202991008758544921875">
        <ele>353.399993896484375</ele>
        <time>2018-06-21T08:01:12.000Z</time>
      </trkpt>
      <trkpt lat="41.73908066935837268829345703125" lon="1.77421194501221179962158203125">
        <ele>351.20001220703125</ele>
        <time>2018-06-21T08:01:16.000Z</time>
      </trkpt>
      <trkpt lat="41.73898645676672458648681640625" lon="1.774199791252613067626953125">
        <ele>347.79998779296875</ele>
        <time>2018-06-21T08:01:23.000Z</time>
      </trkpt>
      <trkpt lat="41.73894815146923065185546875" lon="1.77420289255678653717041015625">
        <ele>346.399993896484375</ele>
        <time>2018-06-21T08:01:26.000Z</time>
      </trkpt>
      <trkpt lat="41.738910935819149017333984375" lon="1.77428117953240871429443359375">
        <ele>345</ele>
        <time>2018-06-21T08:01:32.000Z</time>
      </trkpt>
      <trkpt lat="41.73891856335103511810302734375" lon="1.77429358474910259246826171875">
        <ele>345.20001220703125</ele>
        <time>2018-06-21T08:01:33.000Z</time>
      </trkpt>
      <trkpt lat="41.73895209096372127532958984375" lon="1.7743253521621227264404296875">
        <ele>346.20001220703125</ele>
        <time>2018-06-21T08:01:37.000Z</time>
      </trkpt>
      <trkpt lat="41.73899517394602298736572265625" lon="1.77436097525060176849365234375">
        <ele>347.399993896484375</ele>
        <time>2018-06-21T08:01:42.000Z</time>
      </trkpt>
      <trkpt lat="41.73900305293500423431396484375" lon="1.77437245845794677734375">
        <ele>347.600006103515625</ele>
        <time>2018-06-21T08:01:43.000Z</time>
      </trkpt>
      <trkpt lat="41.73903926275670528411865234375" lon="1.77440305240452289581298828125">
        <ele>348.600006103515625</ele>
        <time>2018-06-21T08:01:49.000Z</time>
      </trkpt>
      <trkpt lat="41.73907966352999210357666015625" lon="1.77444546483457088470458984375">
        <ele>350.399993896484375</ele>
        <time>2018-06-21T08:01:53.000Z</time>
      </trkpt>
      <trkpt lat="41.73909835517406463623046875" lon="1.77450816147029399871826171875">
        <ele>351</ele>
        <time>2018-06-21T08:01:58.000Z</time>
      </trkpt>
      <trkpt lat="41.73909424804151058197021484375" lon="1.7745667509734630584716796875">
        <ele>350.600006103515625</ele>
        <time>2018-06-21T08:02:02.000Z</time>
      </trkpt>
      <trkpt lat="41.7391263507306575775146484375" lon="1.77464344538748264312744140625">
        <ele>351.79998779296875</ele>
        <time>2018-06-21T08:02:07.000Z</time>
      </trkpt>
      <trkpt lat="41.7391172982752323150634765625" lon="1.7746800743043422698974609375">
        <ele>351.20001220703125</ele>
        <time>2018-06-21T08:02:09.000Z</time>
      </trkpt>
      <trkpt lat="41.73910816200077533721923828125" lon="1.77479146979749202728271484375">
        <ele>350.399993896484375</ele>
        <time>2018-06-21T08:02:15.000Z</time>
      </trkpt>
      <trkpt lat="41.73907295800745487213134765625" lon="1.77489406429231166839599609375">
        <ele>348.600006103515625</ele>
        <time>2018-06-21T08:02:20.000Z</time>
      </trkpt>
      <trkpt lat="41.73903389833867549896240234375" lon="1.77500168792903423309326171875">
        <ele>347.600006103515625</ele>
        <time>2018-06-21T08:02:27.000Z</time>
      </trkpt>
      <trkpt lat="41.7390207387506961822509765625" lon="1.77510126493871212005615234375">
        <ele>347.79998779296875</ele>
        <time>2018-06-21T08:02:33.000Z</time>
      </trkpt>
      <trkpt lat="41.7390197329223155975341796875" lon="1.7751152627170085906982421875">
        <ele>347.79998779296875</ele>
        <time>2018-06-21T08:02:34.000Z</time>
      </trkpt>
      <trkpt lat="41.73901445232331752777099609375" lon="1.775206960737705230712890625">
        <ele>348.20001220703125</ele>
        <time>2018-06-21T08:02:39.000Z</time>
      </trkpt>
      <trkpt lat="41.73901897855103015899658203125" lon="1.77534836344420909881591796875">
        <ele>349.20001220703125</ele>
        <time>2018-06-21T08:02:47.000Z</time>
      </trkpt>
      <trkpt lat="41.73901386559009552001953125" lon="1.77543788217008113861083984375">
        <ele>349.600006103515625</ele>
        <time>2018-06-21T08:02:53.000Z</time>
      </trkpt>
      <trkpt lat="41.73901696689426898956298828125" lon="1.7755048535764217376708984375">
        <ele>350</ele>
        <time>2018-06-21T08:02:56.000Z</time>
      </trkpt>
      <trkpt lat="41.73901696689426898956298828125" lon="1.7755048535764217376708984375">
        <ele>350</ele>
        <time>2018-06-21T08:02:56.000Z</time>
      </trkpt>
      <trkpt lat="41.73896365799009799957275390625" lon="1.7755963839590549468994140625">
        <ele>349.20001220703125</ele>
        <time>2018-06-21T08:03:03.000Z</time>
      </trkpt>
      <trkpt lat="41.73892476595938205718994140625" lon="1.77566285245120525360107421875">
        <ele>348.20001220703125</ele>
        <time>2018-06-21T08:03:07.000Z</time>
      </trkpt>
      <trkpt lat="41.7388681881129741668701171875" lon="1.77581238560378551483154296875">
        <ele>347.79998779296875</ele>
        <time>2018-06-21T08:03:14.000Z</time>
      </trkpt>
      <trkpt lat="41.7388616502285003662109375" lon="1.77586049772799015045166015625">
        <ele>348.399993896484375</ele>
        <time>2018-06-21T08:03:17.000Z</time>
      </trkpt>
      <trkpt lat="41.7388993687927722930908203125" lon="1.77594398148357868194580078125">
        <ele>350.79998779296875</ele>
        <time>2018-06-21T08:03:22.000Z</time>
      </trkpt>
      <trkpt lat="41.7389047332108020782470703125" lon="1.77596175111830234527587890625">
        <ele>351.20001220703125</ele>
        <time>2018-06-21T08:03:23.000Z</time>
      </trkpt>
      <trkpt lat="41.7389422841370105743408203125" lon="1.7760369367897510528564453125">
        <ele>353.600006103515625</ele>
        <time>2018-06-21T08:03:29.000Z</time>
      </trkpt>
      <trkpt lat="41.739037334918975830078125" lon="1.77615554071962833404541015625">
        <ele>358.20001220703125</ele>
        <time>2018-06-21T08:03:37.000Z</time>
      </trkpt>
      <trkpt lat="41.7390569485723972320556640625" lon="1.7762293852865695953369140625">
        <ele>360.20001220703125</ele>
        <time>2018-06-21T08:03:41.000Z</time>
      </trkpt>
      <trkpt lat="41.73899198882281780242919921875" lon="1.77633977495133876800537109375">
        <ele>359.399993896484375</ele>
        <time>2018-06-21T08:03:47.000Z</time>
      </trkpt>
      <trkpt lat="41.7389741353690624237060546875" lon="1.776356957852840423583984375">
        <ele>359.20001220703125</ele>
        <time>2018-06-21T08:03:49.000Z</time>
      </trkpt>
      <trkpt lat="41.73888335935771465301513671875" lon="1.77641118876636028289794921875">
        <ele>357</ele>
        <time>2018-06-21T08:03:56.000Z</time>
      </trkpt>
      <trkpt lat="41.7388678528368473052978515625" lon="1.7764171399176120758056640625">
        <ele>356.399993896484375</ele>
        <time>2018-06-21T08:03:57.000Z</time>
      </trkpt>
      <trkpt lat="41.73882183618843555450439453125" lon="1.7765019647777080535888671875">
        <ele>355.79998779296875</ele>
        <time>2018-06-21T08:04:03.000Z</time>
      </trkpt>
      <trkpt lat="41.7388024739921092987060546875" lon="1.776506491005420684814453125">
        <ele>355.20001220703125</ele>
        <time>2018-06-21T08:04:04.000Z</time>
      </trkpt>
      <trkpt lat="41.73871287144720554351806640625" lon="1.77656583487987518310546875">
        <ele>353</ele>
        <time>2018-06-21T08:04:11.000Z</time>
      </trkpt>
      <trkpt lat="41.738661490380764007568359375" lon="1.77658033557236194610595703125">
        <ele>351.600006103515625</ele>
        <time>2018-06-21T08:04:14.000Z</time>
      </trkpt>
      <trkpt lat="41.73856149427592754364013671875" lon="1.7766129411756992340087890625">
        <ele>348.79998779296875</ele>
        <time>2018-06-21T08:04:20.000Z</time>
      </trkpt>
      <trkpt lat="41.7384983785450458526611328125" lon="1.77667086012661457061767578125">
        <ele>348</ele>
        <time>2018-06-21T08:04:25.000Z</time>
      </trkpt>
      <trkpt lat="41.73849326558411121368408203125" lon="1.776689551770687103271484375">
        <ele>348.20001220703125</ele>
        <time>2018-06-21T08:04:26.000Z</time>
      </trkpt>
      <trkpt lat="41.73845135606825351715087890625" lon="1.77673908881843090057373046875">
        <ele>348</ele>
        <time>2018-06-21T08:04:29.000Z</time>
      </trkpt>
      <trkpt lat="41.73843274824321269989013671875" lon="1.77680178545415401458740234375">
        <ele>348.399993896484375</ele>
        <time>2018-06-21T08:04:33.000Z</time>
      </trkpt>
      <trkpt lat="41.73841548152267932891845703125" lon="1.77694796584546566009521484375">
        <ele>349.79998779296875</ele>
        <time>2018-06-21T08:04:40.000Z</time>
      </trkpt>
      <trkpt lat="41.738414056599140167236328125" lon="1.77705558948218822479248046875">
        <ele>351.20001220703125</ele>
        <time>2018-06-21T08:04:46.000Z</time>
      </trkpt>
      <trkpt lat="41.7384098656475543975830078125" lon="1.77707285620272159576416015625">
        <ele>351.399993896484375</ele>
        <time>2018-06-21T08:04:47.000Z</time>
      </trkpt>
      <trkpt lat="41.73841095529496669769287109375" lon="1.77716354839503765106201171875">
        <ele>352.79998779296875</ele>
        <time>2018-06-21T08:04:52.000Z</time>
      </trkpt>
      <trkpt lat="41.73838815651834011077880859375" lon="1.77727955393493175506591796875">
        <ele>353.399993896484375</ele>
        <time>2018-06-21T08:04:58.000Z</time>
      </trkpt>
      <trkpt lat="41.73834457062184810638427734375" lon="1.77740746177732944488525390625">
        <ele>353.399993896484375</ele>
        <time>2018-06-21T08:05:05.000Z</time>
      </trkpt>
      <trkpt lat="41.73834909684956073760986328125" lon="1.77751156501471996307373046875">
        <ele>355.399993896484375</ele>
        <time>2018-06-21T08:05:11.000Z</time>
      </trkpt>
      <trkpt lat="41.7383850552141666412353515625" lon="1.7775778658688068389892578125">
        <ele>358</ele>
        <time>2018-06-21T08:05:16.000Z</time>
      </trkpt>
      <trkpt lat="41.73840978182852268218994140625" lon="1.77768305875360965728759765625">
        <ele>360.79998779296875</ele>
        <time>2018-06-21T08:05:22.000Z</time>
      </trkpt>
      <trkpt lat="41.7384316585958003997802734375" lon="1.7777528800070285797119140625">
        <ele>362.79998779296875</ele>
        <time>2018-06-21T08:05:26.000Z</time>
      </trkpt>
      <trkpt lat="41.73839955590665340423583984375" lon="1.7778472602367401123046875">
        <ele>362.79998779296875</ele>
        <time>2018-06-21T08:05:31.000Z</time>
      </trkpt>
      <trkpt lat="41.738392598927021026611328125" lon="1.777881793677806854248046875">
        <ele>363</ele>
        <time>2018-06-21T08:05:33.000Z</time>
      </trkpt>
      <trkpt lat="41.73835345543920993804931640625" lon="1.77796837873756885528564453125">
        <ele>362.79998779296875</ele>
        <time>2018-06-21T08:05:38.000Z</time>
      </trkpt>
      <trkpt lat="41.7383169941604137420654296875" lon="1.7780569754540920257568359375">
        <ele>362.399993896484375</ele>
        <time>2018-06-21T08:05:42.000Z</time>
      </trkpt>
      <trkpt lat="41.7383109591901302337646484375" lon="1.77810399793088436126708984375">
        <ele>363</ele>
        <time>2018-06-21T08:05:45.000Z</time>
      </trkpt>
      <trkpt lat="41.73827986232936382293701171875" lon="1.77815328352153301239013671875">
        <ele>362.399993896484375</ele>
        <time>2018-06-21T08:05:49.000Z</time>
      </trkpt>
      <trkpt lat="41.7382214404642581939697265625" lon="1.77820726297795772552490234375">
        <ele>360.600006103515625</ele>
        <time>2018-06-21T08:05:53.000Z</time>
      </trkpt>
      <trkpt lat="41.7381372861564159393310546875" lon="1.7782410420477390289306640625">
        <ele>358.600006103515625</ele>
        <time>2018-06-21T08:05:59.000Z</time>
      </trkpt>
      <trkpt lat="41.738061346113681793212890625" lon="1.77828135900199413299560546875">
        <ele>357</ele>
        <time>2018-06-21T08:06:05.000Z</time>
      </trkpt>
      <trkpt lat="41.7380182631313800811767578125" lon="1.77829544059932231903076171875">
        <ele>356</ele>
        <time>2018-06-21T08:06:09.000Z</time>
      </trkpt>
      <trkpt lat="41.737967468798160552978515625" lon="1.7782638408243656158447265625">
        <ele>354</ele>
        <time>2018-06-21T08:06:14.000Z</time>
      </trkpt>
      <trkpt lat="41.73787795007228851318359375" lon="1.77828756161034107208251953125">
        <ele>351.79998779296875</ele>
        <time>2018-06-21T08:06:21.000Z</time>
      </trkpt>
      <trkpt lat="41.737871579825878143310546875" lon="1.7782956920564174652099609375">
        <ele>351.79998779296875</ele>
        <time>2018-06-21T08:06:22.000Z</time>
      </trkpt>
      <trkpt lat="41.73788599669933319091796875" lon="1.77835755050182342529296875">
        <ele>353.399993896484375</ele>
        <time>2018-06-21T08:06:27.000Z</time>
      </trkpt>
      <trkpt lat="41.73791206441819667816162109375" lon="1.7784274555742740631103515625">
        <ele>355.399993896484375</ele>
        <time>2018-06-21T08:06:31.000Z</time>
      </trkpt>
      <trkpt lat="41.73791206441819667816162109375" lon="1.778444387018680572509765625">
        <ele>355.600006103515625</ele>
        <time>2018-06-21T08:06:32.000Z</time>
      </trkpt>
      <trkpt lat="41.73793653957545757293701171875" lon="1.77858444862067699432373046875">
        <ele>359</ele>
        <time>2018-06-21T08:06:40.000Z</time>
      </trkpt>
      <trkpt lat="41.73793519847095012664794921875" lon="1.77860389463603496551513671875">
        <ele>359.20001220703125</ele>
        <time>2018-06-21T08:06:41.000Z</time>
      </trkpt>
      <trkpt lat="41.737933270633220672607421875" lon="1.77867296151816844940185546875">
        <ele>360.399993896484375</ele>
        <time>2018-06-21T08:06:45.000Z</time>
      </trkpt>
      <trkpt lat="41.73785389401018619537353515625" lon="1.7788302898406982421875">
        <ele>359.20001220703125</ele>
        <time>2018-06-21T08:06:54.000Z</time>
      </trkpt>
      <trkpt lat="41.737776696681976318359375" lon="1.77893933840095996856689453125">
        <ele>356.399993896484375</ele>
        <time>2018-06-21T08:07:01.000Z</time>
      </trkpt>
      <trkpt lat="41.73773445188999176025390625" lon="1.7790691740810871124267578125">
        <ele>355</ele>
        <time>2018-06-21T08:07:07.000Z</time>
      </trkpt>
      <trkpt lat="41.73772229813039302825927734375" lon="1.7791881971061229705810546875">
        <ele>353.600006103515625</ele>
        <time>2018-06-21T08:07:14.000Z</time>
      </trkpt>
      <trkpt lat="41.73772246576845645904541015625" lon="1.779325492680072784423828125">
        <ele>352.600006103515625</ele>
        <time>2018-06-21T08:07:22.000Z</time>
      </trkpt>
      <trkpt lat="41.73773336224257946014404296875" lon="1.7794131673872470855712890625">
        <ele>352.600006103515625</ele>
        <time>2018-06-21T08:07:27.000Z</time>
      </trkpt>
      <trkpt lat="41.7377463541924953460693359375" lon="1.7795184440910816192626953125">
        <ele>353.20001220703125</ele>
        <time>2018-06-21T08:07:33.000Z</time>
      </trkpt>
      <trkpt lat="41.737737469375133514404296875" lon="1.77965096198022365570068359375">
        <ele>353.20001220703125</ele>
        <time>2018-06-21T08:07:40.000Z</time>
      </trkpt>
      <trkpt lat="41.73773889429867267608642578125" lon="1.77970678545534610748291015625">
        <ele>353.399993896484375</ele>
        <time>2018-06-21T08:07:42.000Z</time>
      </trkpt>
      <trkpt lat="41.737723052501678466796875" lon="1.77979144267737865447998046875">
        <ele>353.20001220703125</ele>
        <time>2018-06-21T08:07:46.000Z</time>
      </trkpt>
      <trkpt lat="41.73770218156278133392333984375" lon="1.77989889867603778839111328125">
        <ele>352.600006103515625</ele>
        <time>2018-06-21T08:07:51.000Z</time>
      </trkpt>
      <trkpt lat="41.7377077974379062652587890625" lon="1.78003535605967044830322265625">
        <ele>352.600006103515625</ele>
        <time>2018-06-21T08:07:58.000Z</time>
      </trkpt>
      <trkpt lat="41.737760938704013824462890625" lon="1.78012537769973278045654296875">
        <ele>354.20001220703125</ele>
        <time>2018-06-21T08:08:04.000Z</time>
      </trkpt>
      <trkpt lat="41.7378100566565990447998046875" lon="1.780159659683704376220703125">
        <ele>355.79998779296875</ele>
        <time>2018-06-21T08:08:08.000Z</time>
      </trkpt>
      <trkpt lat="41.7378090508282184600830078125" lon="1.780242137610912322998046875">
        <ele>355.600006103515625</ele>
        <time>2018-06-21T08:08:12.000Z</time>
      </trkpt>
      <trkpt lat="41.7378100566565990447998046875" lon="1.7803710512816905975341796875">
        <ele>355.600006103515625</ele>
        <time>2018-06-21T08:08:19.000Z</time>
      </trkpt>
      <trkpt lat="41.73781198449432849884033203125" lon="1.78040935657918453216552734375">
        <ele>355.600006103515625</ele>
        <time>2018-06-21T08:08:21.000Z</time>
      </trkpt>
      <trkpt lat="41.7377946339547634124755859375" lon="1.78049066103994846343994140625">
        <ele>355</ele>
        <time>2018-06-21T08:08:26.000Z</time>
      </trkpt>
      <trkpt lat="41.737799160182476043701171875" lon="1.780534498393535614013671875">
        <ele>355</ele>
        <time>2018-06-21T08:08:28.000Z</time>
      </trkpt>
      <trkpt lat="41.73784048296511173248291015625" lon="1.7806362546980381011962890625">
        <ele>356.20001220703125</ele>
        <time>2018-06-21T08:08:34.000Z</time>
      </trkpt>
      <trkpt lat="41.7378425784409046173095703125" lon="1.78077765740454196929931640625">
        <ele>356.20001220703125</ele>
        <time>2018-06-21T08:08:40.000Z</time>
      </trkpt>
      <trkpt lat="41.73780444078147411346435546875" lon="1.78085929714143276214599609375">
        <ele>355.20001220703125</ele>
        <time>2018-06-21T08:08:45.000Z</time>
      </trkpt>
      <trkpt lat="41.73779287375509738922119140625" lon="1.78089567460119724273681640625">
        <ele>354.79998779296875</ele>
        <time>2018-06-21T08:08:47.000Z</time>
      </trkpt>
      <trkpt lat="41.73771793954074382781982421875" lon="1.78097345866262912750244140625">
        <ele>352.399993896484375</ele>
        <time>2018-06-21T08:08:53.000Z</time>
      </trkpt>
      <trkpt lat="41.73766848631203174591064453125" lon="1.7810365743935108184814453125">
        <ele>351</ele>
        <time>2018-06-21T08:08:58.000Z</time>
      </trkpt>
      <trkpt lat="41.73762607388198375701904296875" lon="1.78110086359083652496337890625">
        <ele>349.399993896484375</ele>
        <time>2018-06-21T08:09:02.000Z</time>
      </trkpt>
      <trkpt lat="41.73761299811303615570068359375" lon="1.78113925270736217498779296875">
        <ele>349</ele>
        <time>2018-06-21T08:09:04.000Z</time>
      </trkpt>
      <trkpt lat="41.7376276664435863494873046875" lon="1.78121636621654033660888671875">
        <ele>349.600006103515625</ele>
        <time>2018-06-21T08:09:09.000Z</time>
      </trkpt>
      <trkpt lat="41.73768206499516963958740234375" lon="1.78127403371036052703857421875">
        <ele>351.399993896484375</ele>
        <time>2018-06-21T08:09:14.000Z</time>
      </trkpt>
      <trkpt lat="41.73772816546261310577392578125" lon="1.781341172754764556884765625">
        <ele>353</ele>
        <time>2018-06-21T08:09:20.000Z</time>
      </trkpt>
      <trkpt lat="41.737769655883312225341796875" lon="1.7814157716929912567138671875">
        <ele>354.399993896484375</ele>
        <time>2018-06-21T08:09:25.000Z</time>
      </trkpt>
      <trkpt lat="41.73777024261653423309326171875" lon="1.781452484428882598876953125">
        <ele>354.399993896484375</ele>
        <time>2018-06-21T08:09:27.000Z</time>
      </trkpt>
      <trkpt lat="41.73779555596411228179931640625" lon="1.78151174448430538177490234375">
        <ele>355.20001220703125</ele>
        <time>2018-06-21T08:09:31.000Z</time>
      </trkpt>
      <trkpt lat="41.73780846409499645233154296875" lon="1.78159556351602077484130859375">
        <ele>354.79998779296875</ele>
        <time>2018-06-21T08:09:35.000Z</time>
      </trkpt>
      <trkpt lat="41.737833358347415924072265625" lon="1.78167938254773616790771484375">
        <ele>354.399993896484375</ele>
        <time>2018-06-21T08:09:39.000Z</time>
      </trkpt>
      <trkpt lat="41.7378680594265460968017578125" lon="1.78181315772235393524169921875">
        <ele>353.399993896484375</ele>
        <time>2018-06-21T08:09:46.000Z</time>
      </trkpt>
      <trkpt lat="41.73790217377245426177978515625" lon="1.7819206975400447845458984375">
        <ele>353</ele>
        <time>2018-06-21T08:09:52.000Z</time>
      </trkpt>
      <trkpt lat="41.73795363865792751312255859375" lon="1.78203695453703403472900390625">
        <ele>352.79998779296875</ele>
        <time>2018-06-21T08:09:59.000Z</time>
      </trkpt>
      <trkpt lat="41.73801817931234836578369140625" lon="1.78211088292300701141357421875">
        <ele>353.79998779296875</ele>
        <time>2018-06-21T08:10:05.000Z</time>
      </trkpt>
      <trkpt lat="41.73810635693371295928955078125" lon="1.78214608691632747650146484375">
        <ele>356.20001220703125</ele>
        <time>2018-06-21T08:10:11.000Z</time>
      </trkpt>
      <trkpt lat="41.73819369636476039886474609375" lon="1.78217005915939807891845703125">
        <ele>358.79998779296875</ele>
        <time>2018-06-21T08:10:17.000Z</time>
      </trkpt>
      <trkpt lat="41.73820509575307369232177734375" lon="1.78217525593936443328857421875">
        <ele>359.20001220703125</ele>
        <time>2018-06-21T08:10:18.000Z</time>
      </trkpt>
      <trkpt lat="41.73827399499714374542236328125" lon="1.782227642834186553955078125">
        <ele>361.20001220703125</ele>
        <time>2018-06-21T08:10:24.000Z</time>
      </trkpt>
      <trkpt lat="41.73832185566425323486328125" lon="1.7823146469891071319580078125">
        <ele>362</ele>
        <time>2018-06-21T08:10:30.000Z</time>
      </trkpt>
      <trkpt lat="41.73836636357009410858154296875" lon="1.78234658204019069671630859375">
        <ele>363.399993896484375</ele>
        <time>2018-06-21T08:10:33.000Z</time>
      </trkpt>
      <trkpt lat="41.73848069272935390472412109375" lon="1.782392598688602447509765625">
        <ele>367.600006103515625</ele>
        <time>2018-06-21T08:10:41.000Z</time>
      </trkpt>
      <trkpt lat="41.73853576183319091796875" lon="1.782411038875579833984375">
        <ele>369.600006103515625</ele>
        <time>2018-06-21T08:10:47.000Z</time>
      </trkpt>
      <trkpt lat="41.73857876099646091461181640625" lon="1.78248144686222076416015625">
        <ele>370.20001220703125</ele>
        <time>2018-06-21T08:10:51.000Z</time>
      </trkpt>
      <trkpt lat="41.7386160604655742645263671875" lon="1.7825399525463581085205078125">
        <ele>370.600006103515625</ele>
        <time>2018-06-21T08:10:54.000Z</time>
      </trkpt>
      <trkpt lat="41.73869744874536991119384765625" lon="1.7826153896749019622802734375">
        <ele>372.600006103515625</ele>
        <time>2018-06-21T08:10:59.000Z</time>
      </trkpt>
      <trkpt lat="41.7387327365577220916748046875" lon="1.78264816291630268096923828125">
        <ele>373.600006103515625</ele>
        <time>2018-06-21T08:11:02.000Z</time>
      </trkpt>
      <trkpt lat="41.7387516796588897705078125" lon="1.78276299498975276947021484375">
        <ele>372.20001220703125</ele>
        <time>2018-06-21T08:11:08.000Z</time>
      </trkpt>
      <trkpt lat="41.73874589614570140838623046875" lon="1.78283826448023319244384765625">
        <ele>370.600006103515625</ele>
        <time>2018-06-21T08:11:12.000Z</time>
      </trkpt>
      <trkpt lat="41.73871236853301525115966796875" lon="1.7829771526157855987548828125">
        <ele>367.20001220703125</ele>
        <time>2018-06-21T08:11:19.000Z</time>
      </trkpt>
      <trkpt lat="41.73871614038944244384765625" lon="1.78308737464249134063720703125">
        <ele>366</ele>
        <time>2018-06-21T08:11:24.000Z</time>
      </trkpt>
      <trkpt lat="41.73869795165956020355224609375" lon="1.783179156482219696044921875">
        <ele>364.399993896484375</ele>
        <time>2018-06-21T08:11:29.000Z</time>
      </trkpt>
      <trkpt lat="41.7386857978999614715576171875" lon="1.78327529691159725189208984375">
        <ele>362.399993896484375</ele>
        <time>2018-06-21T08:11:33.000Z</time>
      </trkpt>
      <trkpt lat="41.7386978678405284881591796875" lon="1.78334805183112621307373046875">
        <ele>361.399993896484375</ele>
        <time>2018-06-21T08:11:37.000Z</time>
      </trkpt>
      <trkpt lat="41.73870943486690521240234375" lon="1.783475540578365325927734375">
        <ele>359.20001220703125</ele>
        <time>2018-06-21T08:11:44.000Z</time>
      </trkpt>
      <trkpt lat="41.738715469837188720703125" lon="1.78351049311459064483642578125">
        <ele>358.600006103515625</ele>
        <time>2018-06-21T08:11:46.000Z</time>
      </trkpt>
      <trkpt lat="41.7387256957590579986572265625" lon="1.783547960221767425537109375">
        <ele>358.20001220703125</ele>
        <time>2018-06-21T08:11:49.000Z</time>
      </trkpt>
      <trkpt lat="41.73877556808292865753173828125" lon="1.78354628384113311767578125">
        <ele>360</ele>
        <time>2018-06-21T08:11:53.000Z</time>
      </trkpt>
      <trkpt lat="41.73884765245020389556884765625" lon="1.7835702560842037200927734375">
        <ele>362</ele>
        <time>2018-06-21T08:11:59.000Z</time>
      </trkpt>
      <trkpt lat="41.73891236074268817901611328125" lon="1.78359129466116428375244140625">
        <ele>363.79998779296875</ele>
        <time>2018-06-21T08:12:05.000Z</time>
      </trkpt>
      <trkpt lat="41.73897103406488895416259765625" lon="1.78370813839137554168701171875">
        <ele>363.600006103515625</ele>
        <time>2018-06-21T08:12:13.000Z</time>
      </trkpt>
      <trkpt lat="41.7390145361423492431640625" lon="1.78377318195998668670654296875">
        <ele>363.79998779296875</ele>
        <time>2018-06-21T08:12:19.000Z</time>
      </trkpt>
      <trkpt lat="41.73908133991062641143798828125" lon="1.7837749421596527099609375">
        <ele>365.399993896484375</ele>
        <time>2018-06-21T08:12:24.000Z</time>
      </trkpt>
      <trkpt lat="41.73911805264651775360107421875" lon="1.78377703763544559478759765625">
        <ele>366</ele>
        <time>2018-06-21T08:12:28.000Z</time>
      </trkpt>
      <trkpt lat="41.73914286307990550994873046875" lon="1.783802099525928497314453125">
        <ele>366</ele>
        <time>2018-06-21T08:12:30.000Z</time>
      </trkpt>
      <trkpt lat="41.73918955028057098388671875" lon="1.78382297046482563018798828125">
        <ele>366.399993896484375</ele>
        <time>2018-06-21T08:12:36.000Z</time>
      </trkpt>
      <trkpt lat="41.73925258219242095947265625" lon="1.783853061497211456298828125">
        <ele>367</ele>
        <time>2018-06-21T08:12:44.000Z</time>
      </trkpt>
      <trkpt lat="41.73925937153398990631103515625" lon="1.78389907814562320709228515625">
        <ele>366.20001220703125</ele>
        <time>2018-06-21T08:12:47.000Z</time>
      </trkpt>
      <trkpt lat="41.73927227966487407684326171875" lon="1.78398616611957550048828125">
        <ele>364.79998779296875</ele>
        <time>2018-06-21T08:12:53.000Z</time>
      </trkpt>
      <trkpt lat="41.73933564685285091400146484375" lon="1.78400368429720401763916015625">
        <ele>365.600006103515625</ele>
        <time>2018-06-21T08:12:59.000Z</time>
      </trkpt>
      <trkpt lat="41.7393982596695423126220703125" lon="1.78398004733026027679443359375">
        <ele>367.20001220703125</ele>
        <time>2018-06-21T08:13:03.000Z</time>
      </trkpt>
      <trkpt lat="41.73942558467388153076171875" lon="1.78387929685413837432861328125">
        <ele>369.79998779296875</ele>
        <time>2018-06-21T08:13:10.000Z</time>
      </trkpt>
      <trkpt lat="41.7394270934164524078369140625" lon="1.78384996019303798675537109375">
        <ele>370.399993896484375</ele>
        <time>2018-06-21T08:13:12.000Z</time>
      </trkpt>
      <trkpt lat="41.7394597828388214111328125" lon="1.78373445756733417510986328125">
        <ele>373.399993896484375</ele>
        <time>2018-06-21T08:13:20.000Z</time>
      </trkpt>
      <trkpt lat="41.73950579948723316192626953125" lon="1.783659271895885467529296875">
        <ele>376.20001220703125</ele>
        <time>2018-06-21T08:13:26.000Z</time>
      </trkpt>
      <trkpt lat="41.73951686359941959381103515625" lon="1.78362297825515270233154296875">
        <ele>378</ele>
        <time>2018-06-21T08:13:29.000Z</time>
      </trkpt>
      <trkpt lat="41.73954469151794910430908203125" lon="1.7835273407399654388427734375">
        <ele>382.600006103515625</ele>
        <time>2018-06-21T08:13:37.000Z</time>
      </trkpt>
      <trkpt lat="41.73958475701510906219482421875" lon="1.78349205292761325836181640625">
        <ele>385.20001220703125</ele>
        <time>2018-06-21T08:13:43.000Z</time>
      </trkpt>
      <trkpt lat="41.739570088684558868408203125" lon="1.78351568989455699920654296875">
        <ele>383.79998779296875</ele>
        <time>2018-06-21T08:13:49.000Z</time>
      </trkpt>
      <trkpt lat="41.73960906453430652618408203125" lon="1.78352507762610912322998046875">
        <ele>385</ele>
        <time>2018-06-21T08:13:53.000Z</time>
      </trkpt>
      <trkpt lat="41.739641167223453521728515625" lon="1.7835125885903835296630859375">
        <ele>386.600006103515625</ele>
        <time>2018-06-21T08:13:57.000Z</time>
      </trkpt>
      <trkpt lat="41.73968198709189891815185546875" lon="1.78345316089689731597900390625">
        <ele>390.20001220703125</ele>
        <time>2018-06-21T08:14:04.000Z</time>
      </trkpt>
      <trkpt lat="41.7396929673850536346435546875" lon="1.7834113352000713348388671875">
        <ele>392.20001220703125</ele>
        <time>2018-06-21T08:14:09.000Z</time>
      </trkpt>
      <trkpt lat="41.73971987329423427581787109375" lon="1.78336095996201038360595703125">
        <ele>395</ele>
        <time>2018-06-21T08:14:14.000Z</time>
      </trkpt>
      <trkpt lat="41.7397502996027469635009765625" lon="1.78337906487286090850830078125">
        <ele>395.399993896484375</ele>
        <time>2018-06-21T08:14:18.000Z</time>
      </trkpt>
      <trkpt lat="41.73978759907186031341552734375" lon="1.78335609845817089080810546875">
        <ele>397.600006103515625</ele>
        <time>2018-06-21T08:14:24.000Z</time>
      </trkpt>
      <trkpt lat="41.73984275199472904205322265625" lon="1.7833476327359676361083984375">
        <ele>400</ele>
        <time>2018-06-21T08:14:32.000Z</time>
      </trkpt>
      <trkpt lat="41.73990393988788127899169921875" lon="1.7833231575787067413330078125">
        <ele>402.399993896484375</ele>
        <time>2018-06-21T08:14:39.000Z</time>
      </trkpt>
      <trkpt lat="41.73991969786584377288818359375" lon="1.783321984112262725830078125">
        <ele>402.79998779296875</ele>
        <time>2018-06-21T08:14:42.000Z</time>
      </trkpt>
      <trkpt lat="41.73998356796801090240478515625" lon="1.78328208625316619873046875">
        <ele>405.399993896484375</ele>
        <time>2018-06-21T08:14:51.000Z</time>
      </trkpt>
      <trkpt lat="41.74002799205482006072998046875" lon="1.7832483910024166107177734375">
        <ele>407.399993896484375</ele>
        <time>2018-06-21T08:14:58.000Z</time>
      </trkpt>
      <trkpt lat="41.74009588547050952911376953125" lon="1.78323246538639068603515625">
        <ele>409.20001220703125</ele>
        <time>2018-06-21T08:15:06.000Z</time>
      </trkpt>
      <trkpt lat="41.740134693682193756103515625" lon="1.783206649124622344970703125">
        <ele>411</ele>
        <time>2018-06-21T08:15:12.000Z</time>
      </trkpt>
      <trkpt lat="41.74016847275197505950927734375" lon="1.783183850347995758056640625">
        <ele>412.399993896484375</ele>
        <time>2018-06-21T08:15:18.000Z</time>
      </trkpt>
      <trkpt lat="41.7402220331132411956787109375" lon="1.78317706100642681121826171875">
        <ele>413.79998779296875</ele>
        <time>2018-06-21T08:15:24.000Z</time>
      </trkpt>
      <trkpt lat="41.74027509056031703948974609375" lon="1.7832017876207828521728515625">
        <ele>413.79998779296875</ele>
        <time>2018-06-21T08:15:29.000Z</time>
      </trkpt>
      <trkpt lat="41.7403081990778446197509765625" lon="1.7832094989717006683349609375">
        <ele>414</ele>
        <time>2018-06-21T08:15:32.000Z</time>
      </trkpt>
      <trkpt lat="41.7403457500040531158447265625" lon="1.783224754035472869873046875">
        <ele>414</ele>
        <time>2018-06-21T08:15:36.000Z</time>
      </trkpt>
      <trkpt lat="41.7403936944901943206787109375" lon="1.78324445150792598724365234375">
        <ele>414.20001220703125</ele>
        <time>2018-06-21T08:15:41.000Z</time>
      </trkpt>
      <trkpt lat="41.74047575332224369049072265625" lon="1.78324596025049686431884765625">
        <ele>415.600006103515625</ele>
        <time>2018-06-21T08:15:49.000Z</time>
      </trkpt>
      <trkpt lat="41.74055705778300762176513671875" lon="1.78322886116802692413330078125">
        <ele>417.79998779296875</ele>
        <time>2018-06-21T08:15:58.000Z</time>
      </trkpt>
      <trkpt lat="41.7406166531145572662353515625" lon="1.7832413502037525177001953125">
        <ele>418.399993896484375</ele>
        <time>2018-06-21T08:16:03.000Z</time>
      </trkpt>
      <trkpt lat="41.740670464932918548583984375" lon="1.783220060169696807861328125">
        <ele>420.20001220703125</ele>
        <time>2018-06-21T08:16:11.000Z</time>
      </trkpt>
      <trkpt lat="41.74068295396864414215087890625" lon="1.78321913816034793853759765625">
        <ele>420.399993896484375</ele>
        <time>2018-06-21T08:16:15.000Z</time>
      </trkpt>
      <trkpt lat="41.74073106609284877777099609375" lon="1.78322567604482173919677734375">
        <ele>420.399993896484375</ele>
        <time>2018-06-21T08:16:19.000Z</time>
      </trkpt>
      <trkpt lat="41.74081924371421337127685546875" lon="1.783253252506256103515625">
        <ele>419.20001220703125</ele>
        <time>2018-06-21T08:16:25.000Z</time>
      </trkpt>
      <trkpt lat="41.74085545353591442108154296875" lon="1.78321997635066509246826171875">
        <ele>420.399993896484375</ele>
        <time>2018-06-21T08:16:29.000Z</time>
      </trkpt>
      <trkpt lat="41.74089166335761547088623046875" lon="1.783133558928966522216796875">
        <ele>424.79998779296875</ele>
        <time>2018-06-21T08:16:37.000Z</time>
      </trkpt>
      <trkpt lat="41.74089803360402584075927734375" lon="1.78309408016502857208251953125">
        <ele>427</ele>
        <time>2018-06-21T08:16:43.000Z</time>
      </trkpt>
      <trkpt lat="41.74092116765677928924560546875" lon="1.783063150942325592041015625">
        <ele>428.600006103515625</ele>
        <time>2018-06-21T08:16:49.000Z</time>
      </trkpt>
      <trkpt lat="41.74095838330686092376708984375" lon="1.7830475606024265289306640625">
        <ele>429.399993896484375</ele>
        <time>2018-06-21T08:16:54.000Z</time>
      </trkpt>
      <trkpt lat="41.7409928329288959503173828125" lon="1.7829999513924121856689453125">
        <ele>431.79998779296875</ele>
        <time>2018-06-21T08:16:59.000Z</time>
      </trkpt>
      <trkpt lat="41.74100465141236782073974609375" lon="1.78292225115001201629638671875">
        <ele>436</ele>
        <time>2018-06-21T08:17:07.000Z</time>
      </trkpt>
      <trkpt lat="41.74102175049483776092529296875" lon="1.78285687230527400970458984375">
        <ele>439.600006103515625</ele>
        <time>2018-06-21T08:17:13.000Z</time>
      </trkpt>
      <trkpt lat="41.74104505218565464019775390625" lon="1.7827900685369968414306640625">
        <ele>443</ele>
        <time>2018-06-21T08:17:19.000Z</time>
      </trkpt>
      <trkpt lat="41.7410387657582759857177734375" lon="1.782743297517299652099609375">
        <ele>445.600006103515625</ele>
        <time>2018-06-21T08:17:24.000Z</time>
      </trkpt>
      <trkpt lat="41.74103197641670703887939453125" lon="1.78269627504050731658935546875">
        <ele>448</ele>
        <time>2018-06-21T08:17:29.000Z</time>
      </trkpt>
      <trkpt lat="41.74103633500635623931884765625" lon="1.7826519347727298736572265625">
        <ele>450</ele>
        <time>2018-06-21T08:17:34.000Z</time>
      </trkpt>
      <trkpt lat="41.74105946905910968780517578125" lon="1.78260088898241519927978515625">
        <ele>452.20001220703125</ele>
        <time>2018-06-21T08:17:38.000Z</time>
      </trkpt>
      <trkpt lat="41.741077490150928497314453125" lon="1.7825798504054546356201171875">
        <ele>453</ele>
        <time>2018-06-21T08:17:40.000Z</time>
      </trkpt>
      <trkpt lat="41.74113574437797069549560546875" lon="1.78250986151397228240966796875">
        <ele>455.399993896484375</ele>
        <time>2018-06-21T08:17:48.000Z</time>
      </trkpt>
      <trkpt lat="41.74116675741970539093017578125" lon="1.78248655982315540313720703125">
        <ele>456.20001220703125</ele>
        <time>2018-06-21T08:17:54.000Z</time>
      </trkpt>
      <trkpt lat="41.7412171326577663421630859375" lon="1.78245755843818187713623046875">
        <ele>457</ele>
        <time>2018-06-21T08:18:01.000Z</time>
      </trkpt>
      <trkpt lat="41.74125619232654571533203125" lon="1.78239955566823482513427734375">
        <ele>459.20001220703125</ele>
        <time>2018-06-21T08:18:07.000Z</time>
      </trkpt>
      <trkpt lat="41.74126558005809783935546875" lon="1.78235764615237712860107421875">
        <ele>461</ele>
        <time>2018-06-21T08:18:13.000Z</time>
      </trkpt>
      <trkpt lat="41.74129449762403964996337890625" lon="1.78230936639010906219482421875">
        <ele>462.600006103515625</ele>
        <time>2018-06-21T08:18:21.000Z</time>
      </trkpt>
      <trkpt lat="41.74130715429782867431640625" lon="1.7822804488241672515869140625">
        <ele>463.79998779296875</ele>
        <time>2018-06-21T08:18:25.000Z</time>
      </trkpt>
      <trkpt lat="41.741330958902835845947265625" lon="1.78223996423184871673583984375">
        <ele>465.20001220703125</ele>
        <time>2018-06-21T08:18:33.000Z</time>
      </trkpt>
      <trkpt lat="41.74131075851619243621826171875" lon="1.78221917711198329925537109375">
        <ele>466.20001220703125</ele>
        <time>2018-06-21T08:18:43.000Z</time>
      </trkpt>
      <trkpt lat="41.74129776656627655029296875" lon="1.78217575885355472564697265625">
        <ele>468.20001220703125</ele>
        <time>2018-06-21T08:18:50.000Z</time>
      </trkpt>
      <trkpt lat="41.74126264639198780059814453125" lon="1.78217559121549129486083984375">
        <ele>468.600006103515625</ele>
        <time>2018-06-21T08:18:56.000Z</time>
      </trkpt>
      <trkpt lat="41.74120967276394367218017578125" lon="1.78217575885355472564697265625">
        <ele>469.20001220703125</ele>
        <time>2018-06-21T08:19:01.000Z</time>
      </trkpt>
      <trkpt lat="41.74118737690150737762451171875" lon="1.7821736633777618408203125">
        <ele>469.399993896484375</ele>
        <time>2018-06-21T08:19:03.000Z</time>
      </trkpt>
      <trkpt lat="41.7411108501255512237548828125" lon="1.7821714840829372406005859375">
        <ele>470.399993896484375</ele>
        <time>2018-06-21T08:19:09.000Z</time>
      </trkpt>
      <trkpt lat="41.74104706384241580963134765625" lon="1.78212664090096950531005859375">
        <ele>473</ele>
        <time>2018-06-21T08:19:16.000Z</time>
      </trkpt>
      <trkpt lat="41.7410404421389102935791015625" lon="1.7821171693503856658935546875">
        <ele>473.399993896484375</ele>
        <time>2018-06-21T08:19:17.000Z</time>
      </trkpt>
      <trkpt lat="41.74102409742772579193115234375" lon="1.78205288015305995941162109375">
        <ele>476.399993896484375</ele>
        <time>2018-06-21T08:19:24.000Z</time>
      </trkpt>
      <trkpt lat="41.74101068638265132904052734375" lon="1.7820088751614093780517578125">
        <ele>478.399993896484375</ele>
        <time>2018-06-21T08:19:30.000Z</time>
      </trkpt>
      <trkpt lat="41.74097045324742794036865234375" lon="1.78199085406959056854248046875">
        <ele>479.600006103515625</ele>
        <time>2018-06-21T08:19:35.000Z</time>
      </trkpt>
      <trkpt lat="41.7409331537783145904541015625" lon="1.78198314271867275238037109375">
        <ele>480.20001220703125</ele>
        <time>2018-06-21T08:19:39.000Z</time>
      </trkpt>
      <trkpt lat="41.740889064967632293701171875" lon="1.781971156597137451171875">
        <ele>481.20001220703125</ele>
        <time>2018-06-21T08:19:45.000Z</time>
      </trkpt>
      <trkpt lat="41.74087774939835071563720703125" lon="1.78191776387393474578857421875">
        <ele>483.600006103515625</ele>
        <time>2018-06-21T08:19:51.000Z</time>
      </trkpt>
      <trkpt lat="41.74083097837865352630615234375" lon="1.7819069512188434600830078125">
        <ele>484.600006103515625</ele>
        <time>2018-06-21T08:19:55.000Z</time>
      </trkpt>
      <trkpt lat="41.74081924371421337127685546875" lon="1.781882978975772857666015625">
        <ele>485.600006103515625</ele>
        <time>2018-06-21T08:20:00.000Z</time>
      </trkpt>
      <trkpt lat="41.74084656871855258941650390625" lon="1.78180309943854808807373046875">
        <ele>488.79998779296875</ele>
        <time>2018-06-21T08:20:09.000Z</time>
      </trkpt>
      <trkpt lat="41.74087976105511188507080078125" lon="1.781737469136714935302734375">
        <ele>491.20001220703125</ele>
        <time>2018-06-21T08:20:17.000Z</time>
      </trkpt>
      <trkpt lat="41.7409103550016880035400390625" lon="1.7816846631467342376708984375">
        <ele>493.79998779296875</ele>
        <time>2018-06-21T08:20:26.000Z</time>
      </trkpt>
      <trkpt lat="41.74093575216829776763916015625" lon="1.78163386881351470947265625">
        <ele>496.399993896484375</ele>
        <time>2018-06-21T08:20:33.000Z</time>
      </trkpt>
      <trkpt lat="41.7409599758684635162353515625" lon="1.78161165677011013031005859375">
        <ele>497.600006103515625</ele>
        <time>2018-06-21T08:20:39.000Z</time>
      </trkpt>
      <trkpt lat="41.7409961856901645660400390625" lon="1.781552396714687347412109375">
        <ele>500.79998779296875</ele>
        <time>2018-06-21T08:20:47.000Z</time>
      </trkpt>
      <trkpt lat="41.74103465862572193145751953125" lon="1.7815111577510833740234375">
        <ele>501.79998779296875</ele>
        <time>2018-06-21T08:20:54.000Z</time>
      </trkpt>
      <trkpt lat="41.74101856537163257598876953125" lon="1.7815230600535869598388671875">
        <ele>501.600006103515625</ele>
        <time>2018-06-21T08:21:00.000Z</time>
      </trkpt>
      <trkpt lat="41.74101387150585651397705078125" lon="1.7815245687961578369140625">
        <ele>501.600006103515625</ele>
        <time>2018-06-21T08:21:05.000Z</time>
      </trkpt>
      <trkpt lat="41.7410236783325672149658203125" lon="1.78151526488363742828369140625">
        <ele>501.79998779296875</ele>
        <time>2018-06-21T08:21:06.000Z</time>
      </trkpt>
      <trkpt lat="41.74108444713056087493896484375" lon="1.78145416080951690673828125">
        <ele>503.20001220703125</ele>
        <time>2018-06-21T08:21:13.000Z</time>
      </trkpt>
      <trkpt lat="41.74112744629383087158203125" lon="1.78141736425459384918212890625">
        <ele>504</ele>
        <time>2018-06-21T08:21:20.000Z</time>
      </trkpt>
      <trkpt lat="41.74115016125142574310302734375" lon="1.78138769231736660003662109375">
        <ele>504.600006103515625</ele>
        <time>2018-06-21T08:21:25.000Z</time>
      </trkpt>
      <trkpt lat="41.7411735467612743377685546875" lon="1.7813448607921600341796875">
        <ele>505.600006103515625</ele>
        <time>2018-06-21T08:21:31.000Z</time>
      </trkpt>
      <trkpt lat="41.74121654592454433441162109375" lon="1.7813101597130298614501953125">
        <ele>506.399993896484375</ele>
        <time>2018-06-21T08:21:36.000Z</time>
      </trkpt>
      <trkpt lat="41.7412479780614376068115234375" lon="1.7812732793390750885009765625">
        <ele>507.20001220703125</ele>
        <time>2018-06-21T08:21:41.000Z</time>
      </trkpt>
      <trkpt lat="41.741247139871120452880859375" lon="1.781230866909027099609375">
        <ele>508.600006103515625</ele>
        <time>2018-06-21T08:21:48.000Z</time>
      </trkpt>
      <trkpt lat="41.7412407696247100830078125" lon="1.78121284581720829010009765625">
        <ele>509</ele>
        <time>2018-06-21T08:21:53.000Z</time>
      </trkpt>
      <trkpt lat="41.7412246763706207275390625" lon="1.78117898292839527130126953125">
        <ele>510</ele>
        <time>2018-06-21T08:21:59.000Z</time>
      </trkpt>
      <trkpt lat="41.741210259497165679931640625" lon="1.78113858215510845184326171875">
        <ele>511.399993896484375</ele>
        <time>2018-06-21T08:22:06.000Z</time>
      </trkpt>
      <trkpt lat="41.741214282810688018798828125" lon="1.78110119886696338653564453125">
        <ele>512.79998779296875</ele>
        <time>2018-06-21T08:22:13.000Z</time>
      </trkpt>
      <trkpt lat="41.7412030510604381561279296875" lon="1.781079657375812530517578125">
        <ele>513.4000244140625</ele>
        <time>2018-06-21T08:22:19.000Z</time>
      </trkpt>
      <trkpt lat="41.74118637107312679290771484375" lon="1.7810444533824920654296875">
        <ele>514.4000244140625</ele>
        <time>2018-06-21T08:22:24.000Z</time>
      </trkpt>
      <trkpt lat="41.74114085733890533447265625" lon="1.78104646503925323486328125">
        <ele>513.79998779296875</ele>
        <time>2018-06-21T08:22:29.000Z</time>
      </trkpt>
      <trkpt lat="41.741105653345584869384765625" lon="1.78105576895177364349365234375">
        <ele>513</ele>
        <time>2018-06-21T08:22:34.000Z</time>
      </trkpt>
      <trkpt lat="41.741060055792331695556640625" lon="1.78107186220586299896240234375">
        <ele>511.79998779296875</ele>
        <time>2018-06-21T08:22:40.000Z</time>
      </trkpt>
      <trkpt lat="41.74106986261904239654541015625" lon="1.78102475591003894805908203125">
        <ele>513.5999755859375</ele>
        <time>2018-06-21T08:22:46.000Z</time>
      </trkpt>
      <trkpt lat="41.7410880513489246368408203125" lon="1.78098469041287899017333984375">
        <ele>515.20001220703125</ele>
        <time>2018-06-21T08:22:51.000Z</time>
      </trkpt>
      <trkpt lat="41.74110137857496738433837890625" lon="1.78092434071004390716552734375">
        <ele>517.5999755859375</ele>
        <time>2018-06-21T08:22:56.000Z</time>
      </trkpt>
      <trkpt lat="41.74111965112388134002685546875" lon="1.78087756969034671783447265625">
        <ele>519.5999755859375</ele>
        <time>2018-06-21T08:23:03.000Z</time>
      </trkpt>
      <trkpt lat="41.74115016125142574310302734375" lon="1.78087958134710788726806640625">
        <ele>519.79998779296875</ele>
        <time>2018-06-21T08:23:07.000Z</time>
      </trkpt>
      <trkpt lat="41.74121327698230743408203125" lon="1.780876480042934417724609375">
        <ele>520.79998779296875</ele>
        <time>2018-06-21T08:23:13.000Z</time>
      </trkpt>
      <trkpt lat="41.74125895835459232330322265625" lon="1.78088276647031307220458984375">
        <ele>521.20001220703125</ele>
        <time>2018-06-21T08:23:17.000Z</time>
      </trkpt>
      <trkpt lat="41.74125074408948421478271484375" lon="1.78089198656380176544189453125">
        <ele>520.79998779296875</ele>
        <time>2018-06-21T08:23:23.000Z</time>
      </trkpt>
      <trkpt lat="41.74118687398731708526611328125" lon="1.7808880470693111419677734375">
        <ele>520</ele>
        <time>2018-06-21T08:23:30.000Z</time>
      </trkpt>
      <trkpt lat="41.7411584593355655670166015625" lon="1.780858375132083892822265625">
        <ele>520.79998779296875</ele>
        <time>2018-06-21T08:23:35.000Z</time>
      </trkpt>
      <trkpt lat="41.74113356508314609527587890625" lon="1.78085175342857837677001953125">
        <ele>520.5999755859375</ele>
        <time>2018-06-21T08:23:42.000Z</time>
      </trkpt>
      <trkpt lat="41.74111805856227874755859375" lon="1.78085527382791042327880859375">
        <ele>520.4000244140625</ele>
        <time>2018-06-21T08:23:47.000Z</time>
      </trkpt>
      <trkpt lat="41.74105779267847537994384765625" lon="1.780872456729412078857421875">
        <ele>519</ele>
        <time>2018-06-21T08:23:52.000Z</time>
      </trkpt>
      <trkpt lat="41.74099006690084934234619140625" lon="1.78089316003024578094482421875">
        <ele>517.20001220703125</ele>
        <time>2018-06-21T08:23:57.000Z</time>
      </trkpt>
      <trkpt lat="41.74089853651821613311767578125" lon="1.78093674592673778533935546875">
        <ele>515</ele>
        <time>2018-06-21T08:24:05.000Z</time>
      </trkpt>
      <trkpt lat="41.740881688892841339111328125" lon="1.78096423856914043426513671875">
        <ele>514.20001220703125</ele>
        <time>2018-06-21T08:24:07.000Z</time>
      </trkpt>
      <trkpt lat="41.74086199142038822174072265625" lon="1.7809926532208919525146484375">
        <ele>513.5999755859375</ele>
        <time>2018-06-21T08:24:12.000Z</time>
      </trkpt>
      <trkpt lat="41.7408593930304050445556640625" lon="1.78099156357347965240478515625">
        <ele>513.5999755859375</ele>
        <time>2018-06-21T08:24:19.000Z</time>
      </trkpt>
      <trkpt lat="41.74087397754192352294921875" lon="1.78100078366696834564208984375">
        <ele>513.4000244140625</ele>
        <time>2018-06-21T08:24:24.000Z</time>
      </trkpt>
      <trkpt lat="41.74087003804743289947509765625" lon="1.78101084195077419281005859375">
        <ele>513.20001220703125</ele>
        <time>2018-06-21T08:24:30.000Z</time>
      </trkpt>
      <trkpt lat="41.7408751510083675384521484375" lon="1.7810214869678020477294921875">
        <ele>513</ele>
        <time>2018-06-21T08:24:37.000Z</time>
      </trkpt>
      <trkpt lat="41.74086995422840118408203125" lon="1.781001873314380645751953125">
        <ele>513.4000244140625</ele>
        <time>2018-06-21T08:24:43.000Z</time>
      </trkpt>
      <trkpt lat="41.74086467362940311431884765625" lon="1.7809973470866680145263671875">
        <ele>513.5999755859375</ele>
        <time>2018-06-21T08:24:51.000Z</time>
      </trkpt>
      <trkpt lat="41.74086324870586395263671875" lon="1.781001873314380645751953125">
        <ele>513.4000244140625</ele>
        <time>2018-06-21T08:24:59.000Z</time>
      </trkpt>
      <trkpt lat="41.74086316488683223724365234375" lon="1.78099407814443111419677734375">
        <ele>513.5999755859375</ele>
        <time>2018-06-21T08:25:07.000Z</time>
      </trkpt>
      <trkpt lat="41.7408865503966808319091796875" lon="1.7809490673243999481201171875">
        <ele>514.5999755859375</ele>
        <time>2018-06-21T08:25:13.000Z</time>
      </trkpt>
      <trkpt lat="41.74089535139501094818115234375" lon="1.7809371650218963623046875">
        <ele>515</ele>
        <time>2018-06-21T08:25:14.000Z</time>
      </trkpt>
      <trkpt lat="41.74099266529083251953125" lon="1.780903637409210205078125">
        <ele>517</ele>
        <time>2018-06-21T08:25:23.000Z</time>
      </trkpt>
      <trkpt lat="41.74105796031653881072998046875" lon="1.78090506233274936676025390625">
        <ele>517.79998779296875</ele>
        <time>2018-06-21T08:25:29.000Z</time>
      </trkpt>
      <trkpt lat="41.74104454927146434783935546875" lon="1.7809121869504451751708984375">
        <ele>517.4000244140625</ele>
        <time>2018-06-21T08:25:34.000Z</time>
      </trkpt>
      <trkpt lat="41.74104035831987857818603515625" lon="1.78088746033608913421630859375">
        <ele>518.20001220703125</ele>
        <time>2018-06-21T08:25:38.000Z</time>
      </trkpt>
      <trkpt lat="41.74105896614491939544677734375" lon="1.78090254776179790496826171875">
        <ele>517.79998779296875</ele>
        <time>2018-06-21T08:25:43.000Z</time>
      </trkpt>
      <trkpt lat="41.74106298945844173431396484375" lon="1.7809004522860050201416015625">
        <ele>518</ele>
        <time>2018-06-21T08:25:53.000Z</time>
      </trkpt>
      <trkpt lat="41.74105745740234851837158203125" lon="1.78091763518750667572021484375">
        <ele>517.20001220703125</ele>
        <time>2018-06-21T08:26:12.000Z</time>
      </trkpt>
      <trkpt lat="41.74108059145510196685791015625" lon="1.78091545589268207550048828125">
        <ele>517.5999755859375</ele>
        <time>2018-06-21T08:26:17.000Z</time>
      </trkpt>
      <trkpt lat="41.7410578764975070953369140625" lon="1.78093515336513519287109375">
        <ele>516.5999755859375</ele>
        <time>2018-06-21T08:26:21.000Z</time>
      </trkpt>
      <trkpt lat="41.7410595528781414031982421875" lon="1.7809264361858367919921875">
        <ele>517</ele>
        <time>2018-06-21T08:26:28.000Z</time>
      </trkpt>
      <trkpt lat="41.74106215126812458038330078125" lon="1.7809279449284076690673828125">
        <ele>517</ele>
        <time>2018-06-21T08:26:35.000Z</time>
      </trkpt>
      <trkpt lat="41.74106215126812458038330078125" lon="1.7809205688536167144775390625">
        <ele>517.20001220703125</ele>
        <time>2018-06-21T08:26:50.000Z</time>
      </trkpt>
      <trkpt lat="41.74103734083473682403564453125" lon="1.78092165850102901458740234375">
        <ele>516.79998779296875</ele>
        <time>2018-06-21T08:27:17.000Z</time>
      </trkpt>
      <trkpt lat="41.74088898114860057830810546875" lon="1.780932135879993438720703125">
        <ele>515</ele>
        <time>2018-06-21T08:27:23.000Z</time>
      </trkpt>
      <trkpt lat="41.74085997976362705230712890625" lon="1.78098267875611782073974609375">
        <ele>513.79998779296875</ele>
        <time>2018-06-21T08:27:26.000Z</time>
      </trkpt>
      <trkpt lat="41.7409103550016880035400390625" lon="1.780938841402530670166015625">
        <ele>514.79998779296875</ele>
        <time>2018-06-21T08:27:30.000Z</time>
      </trkpt>
      <trkpt lat="41.74101747572422027587890625" lon="1.78093783557415008544921875">
        <ele>516</ele>
        <time>2018-06-21T08:27:34.000Z</time>
      </trkpt>
      <trkpt lat="41.74105259589850902557373046875" lon="1.780928783118724822998046875">
        <ele>516.79998779296875</ele>
        <time>2018-06-21T08:27:39.000Z</time>
      </trkpt>
      <trkpt lat="41.74106064252555370330810546875" lon="1.78093356080353260040283203125">
        <ele>516.79998779296875</ele>
        <time>2018-06-21T08:28:00.000Z</time>
      </trkpt>
      <trkpt lat="41.7410578764975070953369140625" lon="1.7809245921671390533447265625">
        <ele>517</ele>
        <time>2018-06-21T08:28:09.000Z</time>
      </trkpt>
      <trkpt lat="41.7410464771091938018798828125" lon="1.7809175513684749603271484375">
        <ele>517.20001220703125</ele>
        <time>2018-06-21T08:28:25.000Z</time>
      </trkpt>
      <trkpt lat="41.74090708605945110321044921875" lon="1.780907995998859405517578125">
        <ele>515.5999755859375</ele>
        <time>2018-06-21T08:28:30.000Z</time>
      </trkpt>
      <trkpt lat="41.7408791743218898773193359375" lon="1.7809252627193927764892578125">
        <ele>515.20001220703125</ele>
        <time>2018-06-21T08:28:32.000Z</time>
      </trkpt>
      <trkpt lat="41.74086618237197399139404296875" lon="1.78095317445695400238037109375">
        <ele>514.5999755859375</ele>
        <time>2018-06-21T08:28:35.000Z</time>
      </trkpt>
      <trkpt lat="41.740922592580318450927734375" lon="1.7808853648602962493896484375">
        <ele>516.5999755859375</ele>
        <time>2018-06-21T08:28:39.000Z</time>
      </trkpt>
      <trkpt lat="41.74104304052889347076416015625" lon="1.78088427521288394927978515625">
        <ele>518.20001220703125</ele>
        <time>2018-06-21T08:28:45.000Z</time>
      </trkpt>
      <trkpt lat="41.74104086123406887054443359375" lon="1.78090003319084644317626953125">
        <ele>517.5999755859375</ele>
        <time>2018-06-21T08:29:05.000Z</time>
      </trkpt>
      <trkpt lat="41.7410476505756378173828125" lon="1.78089248947799205780029296875">
        <ele>518</ele>
        <time>2018-06-21T08:29:09.000Z</time>
      </trkpt>
      <trkpt lat="41.74103063531219959259033203125" lon="1.7808967642486095428466796875">
        <ele>517.5999755859375</ele>
        <time>2018-06-21T08:29:13.000Z</time>
      </trkpt>
      <trkpt lat="41.74097766168415546417236328125" lon="1.7808947525918483734130859375">
        <ele>517</ele>
        <time>2018-06-21T08:29:17.000Z</time>
      </trkpt>
      <trkpt lat="41.740897782146930694580078125" lon="1.78092886693775653839111328125">
        <ele>515</ele>
        <time>2018-06-21T08:29:24.000Z</time>
      </trkpt>
      <trkpt lat="41.7408813536167144775390625" lon="1.78095065988600254058837890625">
        <ele>514.5999755859375</ele>
        <time>2018-06-21T08:29:26.000Z</time>
      </trkpt>
      <trkpt lat="41.74088336527347564697265625" lon="1.78094445727765560150146484375">
        <ele>514.79998779296875</ele>
        <time>2018-06-21T08:29:30.000Z</time>
      </trkpt>
      <trkpt lat="41.740935333073139190673828125" lon="1.78089559078216552734375">
        <ele>516.4000244140625</ele>
        <time>2018-06-21T08:29:35.000Z</time>
      </trkpt>
      <trkpt lat="41.74094765447080135345458984375" lon="1.78087078034877777099609375">
        <ele>517.5999755859375</ele>
        <time>2018-06-21T08:29:37.000Z</time>
      </trkpt>
      <trkpt lat="41.7409398593008518218994140625" lon="1.7807180620729923248291015625">
        <ele>523</ele>
        <time>2018-06-21T08:29:46.000Z</time>
      </trkpt>
      <trkpt lat="41.74094698391854763031005859375" lon="1.78054179064929485321044921875">
        <ele>523.4000244140625</ele>
        <time>2018-06-21T08:29:56.000Z</time>
      </trkpt>
      <trkpt lat="41.7409532703459262847900390625" lon="1.78040675818920135498046875">
        <ele>523.5999755859375</ele>
        <time>2018-06-21T08:30:04.000Z</time>
      </trkpt>
      <trkpt lat="41.74094866029918193817138671875" lon="1.7803730629384517669677734375">
        <ele>523.5999755859375</ele>
        <time>2018-06-21T08:30:06.000Z</time>
      </trkpt>
      <trkpt lat="41.740952767431735992431640625" lon="1.78028605878353118896484375">
        <ele>523.79998779296875</ele>
        <time>2018-06-21T08:30:12.000Z</time>
      </trkpt>
      <trkpt lat="41.74099945463240146636962890625" lon="1.78019595332443714141845703125">
        <ele>524.4000244140625</ele>
        <time>2018-06-21T08:30:19.000Z</time>
      </trkpt>
      <trkpt lat="41.74099945463240146636962890625" lon="1.7800922691822052001953125">
        <ele>525.20001220703125</ele>
        <time>2018-06-21T08:30:25.000Z</time>
      </trkpt>
      <trkpt lat="41.74101286567747592926025390625" lon="1.77997886203229427337646484375">
        <ele>526.5999755859375</ele>
        <time>2018-06-21T08:30:31.000Z</time>
      </trkpt>
      <trkpt lat="41.741031892597675323486328125" lon="1.779862940311431884765625">
        <ele>527.79998779296875</ele>
        <time>2018-06-21T08:30:37.000Z</time>
      </trkpt>
      <trkpt lat="41.741041950881481170654296875" lon="1.7797631956636905670166015625">
        <ele>526.20001220703125</ele>
        <time>2018-06-21T08:30:42.000Z</time>
      </trkpt>
      <trkpt lat="41.741100959479808807373046875" lon="1.77964727394282817840576171875">
        <ele>525.5999755859375</ele>
        <time>2018-06-21T08:30:49.000Z</time>
      </trkpt>
      <trkpt lat="41.74111135303974151611328125" lon="1.7796367965638637542724609375">
        <ele>525.5999755859375</ele>
        <time>2018-06-21T08:30:50.000Z</time>
      </trkpt>
      <trkpt lat="41.7411574535071849822998046875" lon="1.77963268943130970001220703125">
        <ele>526.5999755859375</ele>
        <time>2018-06-21T08:30:54.000Z</time>
      </trkpt>
      <trkpt lat="41.741255186498165130615234375" lon="1.77966118790209293365478515625">
        <ele>529.20001220703125</ele>
        <time>2018-06-21T08:31:03.000Z</time>
      </trkpt>
      <trkpt lat="41.74129508435726165771484375" lon="1.77967828698456287384033203125">
        <ele>530.4000244140625</ele>
        <time>2018-06-21T08:31:06.000Z</time>
      </trkpt>
      <trkpt lat="41.741415448486804962158203125" lon="1.77966387011110782623291015625">
        <ele>532.5999755859375</ele>
        <time>2018-06-21T08:31:14.000Z</time>
      </trkpt>
      <trkpt lat="41.74147806130349636077880859375" lon="1.7796052806079387664794921875">
        <ele>532.79998779296875</ele>
        <time>2018-06-21T08:31:20.000Z</time>
      </trkpt>
      <trkpt lat="41.74149163998663425445556640625" lon="1.7795767821371555328369140625">
        <ele>532.5999755859375</ele>
        <time>2018-06-21T08:31:22.000Z</time>
      </trkpt>
      <trkpt lat="41.7415121756494045257568359375" lon="1.77951157093048095703125">
        <ele>531.79998779296875</ele>
        <time>2018-06-21T08:31:26.000Z</time>
      </trkpt>
      <trkpt lat="41.741578392684459686279296875" lon="1.77941006608307361602783203125">
        <ele>529.79998779296875</ele>
        <time>2018-06-21T08:31:33.000Z</time>
      </trkpt>
      <trkpt lat="41.7415738664567470550537109375" lon="1.77938139997422695159912109375">
        <ele>529.4000244140625</ele>
        <time>2018-06-21T08:31:35.000Z</time>
      </trkpt>
      <trkpt lat="41.74154595471918582916259765625" lon="1.77932423539459705352783203125">
        <ele>528.79998779296875</ele>
        <time>2018-06-21T08:31:42.000Z</time>
      </trkpt>
      <trkpt lat="41.741531789302825927734375" lon="1.7793095670640468597412109375">
        <ele>528.5999755859375</ele>
        <time>2018-06-21T08:31:45.000Z</time>
      </trkpt>
      <trkpt lat="41.7415319569408893585205078125" lon="1.77925449796020984649658203125">
        <ele>527.5999755859375</ele>
        <time>2018-06-21T08:31:51.000Z</time>
      </trkpt>
      <trkpt lat="41.74151745624840259552001953125" lon="1.77921795286238193511962890625">
        <ele>526.5999755859375</ele>
        <time>2018-06-21T08:31:55.000Z</time>
      </trkpt>
      <trkpt lat="41.7415178753435611724853515625" lon="1.7791754566133022308349609375">
        <ele>525.79998779296875</ele>
        <time>2018-06-21T08:32:00.000Z</time>
      </trkpt>
      <trkpt lat="41.7415344715118408203125" lon="1.779130361974239349365234375">
        <ele>525.4000244140625</ele>
        <time>2018-06-21T08:32:05.000Z</time>
      </trkpt>
      <trkpt lat="41.741560958325862884521484375" lon="1.77905014716088771820068359375">
        <ele>524</ele>
        <time>2018-06-21T08:32:12.000Z</time>
      </trkpt>
      <trkpt lat="41.74156774766743183135986328125" lon="1.7789910547435283660888671875">
        <ele>522.5999755859375</ele>
        <time>2018-06-21T08:32:17.000Z</time>
      </trkpt>
      <trkpt lat="41.74155936576426029205322265625" lon="1.7789350636303424835205078125">
        <ele>521.20001220703125</ele>
        <time>2018-06-21T08:32:21.000Z</time>
      </trkpt>
      <trkpt lat="41.74155115149915218353271484375" lon="1.7789216525852680206298828125">
        <ele>520.79998779296875</ele>
        <time>2018-06-21T08:32:22.000Z</time>
      </trkpt>
      <trkpt lat="41.74154318869113922119140625" lon="1.77889726124703884124755859375">
        <ele>520.20001220703125</ele>
        <time>2018-06-21T08:32:24.000Z</time>
      </trkpt>
      <trkpt lat="41.7415034584701061248779296875" lon="1.77884663455188274383544921875">
        <ele>518.4000244140625</ele>
        <time>2018-06-21T08:32:31.000Z</time>
      </trkpt>
      <trkpt lat="41.7414588667452335357666015625" lon="1.77883707918226718902587890625">
        <ele>517.4000244140625</ele>
        <time>2018-06-21T08:32:36.000Z</time>
      </trkpt>
      <trkpt lat="41.74141285009682178497314453125" lon="1.778811849653720855712890625">
        <ele>516</ele>
        <time>2018-06-21T08:32:40.000Z</time>
      </trkpt>
      <trkpt lat="41.7413455434143543243408203125" lon="1.77879475057125091552734375">
        <ele>514.4000244140625</ele>
        <time>2018-06-21T08:32:46.000Z</time>
      </trkpt>
      <trkpt lat="41.7412744648754596710205078125" lon="1.7787650786340236663818359375">
        <ele>512.4000244140625</ele>
        <time>2018-06-21T08:32:54.000Z</time>
      </trkpt>
      <trkpt lat="41.741263568401336669921875" lon="1.7787563614547252655029296875">
        <ele>512</ele>
        <time>2018-06-21T08:32:55.000Z</time>
      </trkpt>
      <trkpt lat="41.74120179377496242523193359375" lon="1.77873666398227214813232421875">
        <ele>510.399993896484375</ele>
        <time>2018-06-21T08:33:00.000Z</time>
      </trkpt>
      <trkpt lat="41.741178743541240692138671875" lon="1.77872258238494396209716796875">
        <ele>509.600006103515625</ele>
        <time>2018-06-21T08:33:02.000Z</time>
      </trkpt>
      <trkpt lat="41.74115334637463092803955078125" lon="1.7787164635956287384033203125">
        <ele>509</ele>
        <time>2018-06-21T08:33:04.000Z</time>
      </trkpt>
      <trkpt lat="41.74113607965409755706787109375" lon="1.7786309681832790374755859375">
        <ele>506.79998779296875</ele>
        <time>2018-06-21T08:33:10.000Z</time>
      </trkpt>
      <trkpt lat="41.74113255925476551055908203125" lon="1.77854639478027820587158203125">
        <ele>504.600006103515625</ele>
        <time>2018-06-21T08:33:15.000Z</time>
      </trkpt>
      <trkpt lat="41.74112954176962375640869140625" lon="1.77853583358228206634521484375">
        <ele>504.20001220703125</ele>
        <time>2018-06-21T08:33:16.000Z</time>
      </trkpt>
      <trkpt lat="41.741107665002346038818359375" lon="1.77843424491584300994873046875">
        <ele>501.399993896484375</ele>
        <time>2018-06-21T08:33:22.000Z</time>
      </trkpt>
      <trkpt lat="41.74108855426311492919921875" lon="1.77837406285107135772705078125">
        <ele>499.399993896484375</ele>
        <time>2018-06-21T08:33:26.000Z</time>
      </trkpt>
      <trkpt lat="41.7410652525722980499267578125" lon="1.77824565209448337554931640625">
        <ele>495.79998779296875</ele>
        <time>2018-06-21T08:33:33.000Z</time>
      </trkpt>
      <trkpt lat="41.74104857258498668670654296875" lon="1.778184883296489715576171875">
        <ele>494.20001220703125</ele>
        <time>2018-06-21T08:33:38.000Z</time>
      </trkpt>
      <trkpt lat="41.74105209298431873321533203125" lon="1.77816845476627349853515625">
        <ele>494</ele>
        <time>2018-06-21T08:33:39.000Z</time>
      </trkpt>
      <trkpt lat="41.741066761314868927001953125" lon="1.77805035375058650970458984375">
        <ele>492</ele>
        <time>2018-06-21T08:33:46.000Z</time>
      </trkpt>
      <trkpt lat="41.7410833574831485748291015625" lon="1.77793619222939014434814453125">
        <ele>490</ele>
        <time>2018-06-21T08:33:52.000Z</time>
      </trkpt>
      <trkpt lat="41.74111663363873958587646484375" lon="1.7778004892170429229736328125">
        <ele>488</ele>
        <time>2018-06-21T08:33:59.000Z</time>
      </trkpt>
      <trkpt lat="41.74114965833723545074462890625" lon="1.77770719863474369049072265625">
        <ele>487</ele>
        <time>2018-06-21T08:34:05.000Z</time>
      </trkpt>
      <trkpt lat="41.74114395864307880401611328125" lon="1.77761214785277843475341796875">
        <ele>485.20001220703125</ele>
        <time>2018-06-21T08:34:11.000Z</time>
      </trkpt>
      <trkpt lat="41.74117815680801868438720703125" lon="1.77751525305211544036865234375">
        <ele>484.399993896484375</ele>
        <time>2018-06-21T08:34:18.000Z</time>
      </trkpt>
      <trkpt lat="41.74117765389382839202880859375" lon="1.77745054475963115692138671875">
        <ele>483.20001220703125</ele>
        <time>2018-06-21T08:34:23.000Z</time>
      </trkpt>
      <trkpt lat="41.74118787981569766998291015625" lon="1.7773629538714885711669921875">
        <ele>482</ele>
        <time>2018-06-21T08:34:30.000Z</time>
      </trkpt>
      <trkpt lat="41.7411899752914905548095703125" lon="1.7772920429706573486328125">
        <ele>481</ele>
        <time>2018-06-21T08:34:35.000Z</time>
      </trkpt>
      <trkpt lat="41.741194836795330047607421875" lon="1.7772598564624786376953125">
        <ele>480.399993896484375</ele>
        <time>2018-06-21T08:34:37.000Z</time>
      </trkpt>
      <trkpt lat="41.7411936633288860321044921875" lon="1.777167655527591705322265625">
        <ele>479</ele>
        <time>2018-06-21T08:34:44.000Z</time>
      </trkpt>
      <trkpt lat="41.74117597751319408416748046875" lon="1.77711174823343753814697265625">
        <ele>477.79998779296875</ele>
        <time>2018-06-21T08:34:49.000Z</time>
      </trkpt>
      <trkpt lat="41.7411790788173675537109375" lon="1.777096576988697052001953125">
        <ele>477.600006103515625</ele>
        <time>2018-06-21T08:34:50.000Z</time>
      </trkpt>
      <trkpt lat="41.74115703441202640533447265625" lon="1.77703446708619594573974609375">
        <ele>476.20001220703125</ele>
        <time>2018-06-21T08:34:54.000Z</time>
      </trkpt>
      <trkpt lat="41.7410994507372379302978515625" lon="1.77695115096867084503173828125">
        <ele>473.79998779296875</ele>
        <time>2018-06-21T08:35:02.000Z</time>
      </trkpt>
      <trkpt lat="41.741066090762615203857421875" lon="1.77688409574329853057861328125">
        <ele>472.399993896484375</ele>
        <time>2018-06-21T08:35:09.000Z</time>
      </trkpt>
      <trkpt lat="41.7410342395305633544921875" lon="1.77686565555632114410400390625">
        <ele>471.399993896484375</ele>
        <time>2018-06-21T08:35:12.000Z</time>
      </trkpt>
      <trkpt lat="41.7410310544073581695556640625" lon="1.7768090777099132537841796875">
        <ele>471.20001220703125</ele>
        <time>2018-06-21T08:35:16.000Z</time>
      </trkpt>
      <trkpt lat="41.74103717319667339324951171875" lon="1.776792146265506744384765625">
        <ele>471.20001220703125</ele>
        <time>2018-06-21T08:35:18.000Z</time>
      </trkpt>
      <trkpt lat="41.74100465141236782073974609375" lon="1.7766831815242767333984375">
        <ele>470</ele>
        <time>2018-06-21T08:35:26.000Z</time>
      </trkpt>
      <trkpt lat="41.74099333584308624267578125" lon="1.776660047471523284912109375">
        <ele>469.600006103515625</ele>
        <time>2018-06-21T08:35:27.000Z</time>
      </trkpt>
      <trkpt lat="41.7409884743392467498779296875" lon="1.77660766057670116424560546875">
        <ele>469.20001220703125</ele>
        <time>2018-06-21T08:35:29.000Z</time>
      </trkpt>
      <trkpt lat="41.74100565724074840545654296875" lon="1.7765378393232822418212890625">
        <ele>469.600006103515625</ele>
        <time>2018-06-21T08:35:33.000Z</time>
      </trkpt>
      <trkpt lat="41.74102979712188243865966796875" lon="1.77647036500275135040283203125">
        <ele>469.600006103515625</ele>
        <time>2018-06-21T08:35:37.000Z</time>
      </trkpt>
      <trkpt lat="41.74100666306912899017333984375" lon="1.77637003362178802490234375">
        <ele>467.600006103515625</ele>
        <time>2018-06-21T08:35:43.000Z</time>
      </trkpt>
      <trkpt lat="41.7410072498023509979248046875" lon="1.77621706388890743255615234375">
        <ele>465.79998779296875</ele>
        <time>2018-06-21T08:35:51.000Z</time>
      </trkpt>
      <trkpt lat="41.7410196550190448760986328125" lon="1.77612368948757648468017578125">
        <ele>465</ele>
        <time>2018-06-21T08:35:58.000Z</time>
      </trkpt>
      <trkpt lat="41.741021834313869476318359375" lon="1.77610206417739391326904296875">
        <ele>464.79998779296875</ele>
        <time>2018-06-21T08:35:59.000Z</time>
      </trkpt>
      <trkpt lat="41.74103314988315105438232421875" lon="1.7760037444531917572021484375">
        <ele>464.600006103515625</ele>
        <time>2018-06-21T08:36:03.000Z</time>
      </trkpt>
      <trkpt lat="41.74105728976428508758544921875" lon="1.77590668201446533203125">
        <ele>466.20001220703125</ele>
        <time>2018-06-21T08:36:08.000Z</time>
      </trkpt>
      <trkpt lat="41.74108176492154598236083984375" lon="1.77581079304218292236328125">
        <ele>468</ele>
        <time>2018-06-21T08:36:14.000Z</time>
      </trkpt>
      <trkpt lat="41.7410932481288909912109375" lon="1.77573326043784618377685546875">
        <ele>469</ele>
        <time>2018-06-21T08:36:19.000Z</time>
      </trkpt>
      <trkpt lat="41.74110959284007549285888671875" lon="1.7756392993032932281494140625">
        <ele>468.600006103515625</ele>
        <time>2018-06-21T08:36:24.000Z</time>
      </trkpt>
      <trkpt lat="41.74112518317997455596923828125" lon="1.77544006146490573883056640625">
        <ele>466.399993896484375</ele>
        <time>2018-06-21T08:36:34.000Z</time>
      </trkpt>
      <trkpt lat="41.74115133471786975860595703125" lon="1.7753100581467151641845703125">
        <ele>465.600006103515625</ele>
        <time>2018-06-21T08:36:41.000Z</time>
      </trkpt>
      <trkpt lat="41.74115435220301151275634765625" lon="1.7752919532358646392822265625">
        <ele>465.399993896484375</ele>
        <time>2018-06-21T08:36:42.000Z</time>
      </trkpt>
      <trkpt lat="41.7411443777382373809814453125" lon="1.77516035735607147216796875">
        <ele>462.399993896484375</ele>
        <time>2018-06-21T08:36:49.000Z</time>
      </trkpt>
      <trkpt lat="41.74115049652755260467529296875" lon="1.77508517168462276458740234375">
        <ele>461.20001220703125</ele>
        <time>2018-06-21T08:36:53.000Z</time>
      </trkpt>
      <trkpt lat="41.74120045267045497894287109375" lon="1.77495206706225872039794921875">
        <ele>460.79998779296875</ele>
        <time>2018-06-21T08:37:01.000Z</time>
      </trkpt>
      <trkpt lat="41.74127924256026744842529296875" lon="1.7748708464205265045166015625">
        <ele>462.79998779296875</ele>
        <time>2018-06-21T08:37:09.000Z</time>
      </trkpt>
      <trkpt lat="41.74131696112453937530517578125" lon="1.77482717670500278472900390625">
        <ele>463.399993896484375</ele>
        <time>2018-06-21T08:37:13.000Z</time>
      </trkpt>
      <trkpt lat="41.74143254756927490234375" lon="1.77478208206593990325927734375">
        <ele>467.20001220703125</ele>
        <time>2018-06-21T08:37:21.000Z</time>
      </trkpt>
      <trkpt lat="41.74146138131618499755859375" lon="1.774777472019195556640625">
        <ele>468.399993896484375</ele>
        <time>2018-06-21T08:37:23.000Z</time>
      </trkpt>
      <trkpt lat="41.74152365885674953460693359375" lon="1.77469608373939990997314453125">
        <ele>467.79998779296875</ele>
        <time>2018-06-21T08:37:29.000Z</time>
      </trkpt>
      <trkpt lat="41.74155014567077159881591796875" lon="1.77466808818280696868896484375">
        <ele>467.600006103515625</ele>
        <time>2018-06-21T08:37:31.000Z</time>
      </trkpt>
      <trkpt lat="41.74164645373821258544921875" lon="1.77456784062087535858154296875">
        <ele>465.79998779296875</ele>
        <time>2018-06-21T08:37:39.000Z</time>
      </trkpt>
      <trkpt lat="41.74172515980899333953857421875" lon="1.7744517512619495391845703125">
        <ele>463</ele>
        <time>2018-06-21T08:37:47.000Z</time>
      </trkpt>
      <trkpt lat="41.7418055422604084014892578125" lon="1.77440129220485687255859375">
        <ele>462.600006103515625</ele>
        <time>2018-06-21T08:37:54.000Z</time>
      </trkpt>
      <trkpt lat="41.741839237511157989501953125" lon="1.77431839518249034881591796875">
        <ele>461.20001220703125</ele>
        <time>2018-06-21T08:38:01.000Z</time>
      </trkpt>
      <trkpt lat="41.74185977317392826080322265625" lon="1.7742240987718105316162109375">
        <ele>462</ele>
        <time>2018-06-21T08:38:08.000Z</time>
      </trkpt>
      <trkpt lat="41.74184116534888744354248046875" lon="1.7741399444639682769775390625">
        <ele>461</ele>
        <time>2018-06-21T08:38:14.000Z</time>
      </trkpt>
      <trkpt lat="41.7418360523879528045654296875" lon="1.77412359975278377532958984375">
        <ele>460.600006103515625</ele>
        <time>2018-06-21T08:38:15.000Z</time>
      </trkpt>
      <trkpt lat="41.74183077178895473480224609375" lon="1.7740953527390956878662109375">
        <ele>460.399993896484375</ele>
        <time>2018-06-21T08:38:17.000Z</time>
      </trkpt>
      <trkpt lat="41.74186446703970432281494140625" lon="1.77400206215679645538330078125">
        <ele>461</ele>
        <time>2018-06-21T08:38:24.000Z</time>
      </trkpt>
      <trkpt lat="41.7418712563812732696533203125" lon="1.77398814819753170013427734375">
        <ele>461</ele>
        <time>2018-06-21T08:38:25.000Z</time>
      </trkpt>
      <trkpt lat="41.74187846481800079345703125" lon="1.7739553749561309814453125">
        <ele>460.600006103515625</ele>
        <time>2018-06-21T08:38:27.000Z</time>
      </trkpt>
      <trkpt lat="41.74187335185706615447998046875" lon="1.77389024756848812103271484375">
        <ele>458.600006103515625</ele>
        <time>2018-06-21T08:38:32.000Z</time>
      </trkpt>
      <trkpt lat="41.74188273958861827850341796875" lon="1.773865185678005218505859375">
        <ele>458.600006103515625</ele>
        <time>2018-06-21T08:38:34.000Z</time>
      </trkpt>
      <trkpt lat="41.74187988974153995513916015625" lon="1.77379938773810863494873046875">
        <ele>456.79998779296875</ele>
        <time>2018-06-21T08:38:38.000Z</time>
      </trkpt>
      <trkpt lat="41.74191073514521121978759765625" lon="1.77370199002325534820556640625">
        <ele>455.79998779296875</ele>
        <time>2018-06-21T08:38:46.000Z</time>
      </trkpt>
      <trkpt lat="41.741917692124843597412109375" lon="1.77362906746566295623779296875">
        <ele>454.399993896484375</ele>
        <time>2018-06-21T08:38:52.000Z</time>
      </trkpt>
      <trkpt lat="41.741899587213993072509765625" lon="1.773578859865665435791015625">
        <ele>452.20001220703125</ele>
        <time>2018-06-21T08:38:58.000Z</time>
      </trkpt>
      <trkpt lat="41.74188743345439434051513671875" lon="1.7734948731958866119384765625">
        <ele>450</ele>
        <time>2018-06-21T08:39:05.000Z</time>
      </trkpt>
      <trkpt lat="41.74185834825038909912109375" lon="1.77345187403261661529541015625">
        <ele>447.600006103515625</ele>
        <time>2018-06-21T08:39:10.000Z</time>
      </trkpt>
      <trkpt lat="41.74185189418494701385498046875" lon="1.77339303307235240936279296875">
        <ele>446.20001220703125</ele>
        <time>2018-06-21T08:39:17.000Z</time>
      </trkpt>
      <trkpt lat="41.741842590272426605224609375" lon="1.7733349464833736419677734375">
        <ele>444.79998779296875</ele>
        <time>2018-06-21T08:39:22.000Z</time>
      </trkpt>
      <trkpt lat="41.74185105599462985992431640625" lon="1.77327266894280910491943359375">
        <ele>444.399993896484375</ele>
        <time>2018-06-21T08:39:28.000Z</time>
      </trkpt>
      <trkpt lat="41.741839237511157989501953125" lon="1.7731887660920619964599609375">
        <ele>442.20001220703125</ele>
        <time>2018-06-21T08:39:35.000Z</time>
      </trkpt>
      <trkpt lat="41.74184015952050685882568359375" lon="1.77311508916318416595458984375">
        <ele>441</ele>
        <time>2018-06-21T08:39:42.000Z</time>
      </trkpt>
      <trkpt lat="41.74182356335222721099853515625" lon="1.7730224691331386566162109375">
        <ele>438.399993896484375</ele>
        <time>2018-06-21T08:39:48.000Z</time>
      </trkpt>
      <trkpt lat="41.741833873093128204345703125" lon="1.77297477610409259796142578125">
        <ele>438.399993896484375</ele>
        <time>2018-06-21T08:39:51.000Z</time>
      </trkpt>
      <trkpt lat="41.7417944781482219696044921875" lon="1.7729282565414905548095703125">
        <ele>435</ele>
        <time>2018-06-21T08:39:57.000Z</time>
      </trkpt>
      <trkpt lat="41.74178383313119411468505859375" lon="1.77293169312179088592529296875">
        <ele>434.399993896484375</ele>
        <time>2018-06-21T08:39:58.000Z</time>
      </trkpt>
      <trkpt lat="41.7417337931692600250244140625" lon="1.7729198746383190155029296875">
        <ele>431.20001220703125</ele>
        <time>2018-06-21T08:40:05.000Z</time>
      </trkpt>
      <trkpt lat="41.74169096164405345916748046875" lon="1.772941164672374725341796875">
        <ele>428.79998779296875</ele>
        <time>2018-06-21T08:40:09.000Z</time>
      </trkpt>
      <trkpt lat="41.74162474460899829864501953125" lon="1.77292817272245883941650390625">
        <ele>424.399993896484375</ele>
        <time>2018-06-21T08:40:14.000Z</time>
      </trkpt>
      <trkpt lat="41.74159909598529338836669921875" lon="1.77288324572145938873291015625">
        <ele>422.20001220703125</ele>
        <time>2018-06-21T08:40:18.000Z</time>
      </trkpt>
      <trkpt lat="41.74157193861901760101318359375" lon="1.77288106642663478851318359375">
        <ele>420.399993896484375</ele>
        <time>2018-06-21T08:40:23.000Z</time>
      </trkpt>
      <trkpt lat="41.74155366607010364532470703125" lon="1.7728658951818943023681640625">
        <ele>419</ele>
        <time>2018-06-21T08:40:26.000Z</time>
      </trkpt>
      <trkpt lat="41.74152215011417865753173828125" lon="1.7728246562182903289794921875">
        <ele>416.600006103515625</ele>
        <time>2018-06-21T08:40:30.000Z</time>
      </trkpt>
      <trkpt lat="41.741495244204998016357421875" lon="1.77278886549174785614013671875">
        <ele>414.79998779296875</ele>
        <time>2018-06-21T08:40:35.000Z</time>
      </trkpt>
      <trkpt lat="41.7414687573909759521484375" lon="1.772776879370212554931640625">
        <ele>413.399993896484375</ele>
        <time>2018-06-21T08:40:38.000Z</time>
      </trkpt>
      <trkpt lat="41.74142919480800628662109375" lon="1.77270454354584217071533203125">
        <ele>410.20001220703125</ele>
        <time>2018-06-21T08:40:44.000Z</time>
      </trkpt>
      <trkpt lat="41.741422154009342193603515625" lon="1.77268736064434051513671875">
        <ele>409.600006103515625</ele>
        <time>2018-06-21T08:40:45.000Z</time>
      </trkpt>
      <trkpt lat="41.74145844765007495880126953125" lon="1.77263547666370868682861328125">
        <ele>410.399993896484375</ele>
        <time>2018-06-21T08:40:49.000Z</time>
      </trkpt>
      <trkpt lat="41.74155064858496189117431640625" lon="1.77252785302698612213134765625">
        <ele>413.20001220703125</ele>
        <time>2018-06-21T08:40:57.000Z</time>
      </trkpt>
      <trkpt lat="41.74162038601934909820556640625" lon="1.77245107479393482208251953125">
        <ele>416</ele>
        <time>2018-06-21T08:41:04.000Z</time>
      </trkpt>
      <trkpt lat="41.741680987179279327392578125" lon="1.77238955162465572357177734375">
        <ele>417</ele>
        <time>2018-06-21T08:41:10.000Z</time>
      </trkpt>
      <trkpt lat="41.741722561419010162353515625" lon="1.77230187691748142242431640625">
        <ele>416.20001220703125</ele>
        <time>2018-06-21T08:41:16.000Z</time>
      </trkpt>
      <trkpt lat="41.74179053865373134613037109375" lon="1.772233061492443084716796875">
        <ele>417.399993896484375</ele>
        <time>2018-06-21T08:41:22.000Z</time>
      </trkpt>
      <trkpt lat="41.74183244816958904266357421875" lon="1.772208251059055328369140625">
        <ele>418.600006103515625</ele>
        <time>2018-06-21T08:41:26.000Z</time>
      </trkpt>
      <trkpt lat="41.7419220507144927978515625" lon="1.77213625051081180572509765625">
        <ele>420.600006103515625</ele>
        <time>2018-06-21T08:41:35.000Z</time>
      </trkpt>
      <trkpt lat="41.74192783422768115997314453125" lon="1.7721292935311794281005859375">
        <ele>420.600006103515625</ele>
        <time>2018-06-21T08:41:36.000Z</time>
      </trkpt>
      <trkpt lat="41.7419389821588993072509765625" lon="1.7721024714410305023193359375">
        <ele>420.399993896484375</ele>
        <time>2018-06-21T08:41:38.000Z</time>
      </trkpt>
      <trkpt lat="41.742020957171916961669921875" lon="1.7719559557735919952392578125">
        <ele>420</ele>
        <time>2018-06-21T08:41:46.000Z</time>
      </trkpt>
      <trkpt lat="41.742036044597625732421875" lon="1.771945059299468994140625">
        <ele>420.600006103515625</ele>
        <time>2018-06-21T08:41:47.000Z</time>
      </trkpt>
      <trkpt lat="41.74208826385438442230224609375" lon="1.7718372680246829986572265625">
        <ele>420.399993896484375</ele>
        <time>2018-06-21T08:41:54.000Z</time>
      </trkpt>
      <trkpt lat="41.74211894161999225616455078125" lon="1.77178823389112949371337890625">
        <ele>420.600006103515625</ele>
        <time>2018-06-21T08:41:57.000Z</time>
      </trkpt>
      <trkpt lat="41.74217216670513153076171875" lon="1.77167306654155254364013671875">
        <ele>420.20001220703125</ele>
        <time>2018-06-21T08:42:04.000Z</time>
      </trkpt>
      <trkpt lat="41.742191277444362640380859375" lon="1.771542392671108245849609375">
        <ele>417.79998779296875</ele>
        <time>2018-06-21T08:42:11.000Z</time>
      </trkpt>
      <trkpt lat="41.742232851684093475341796875" lon="1.77146083675324916839599609375">
        <ele>418</ele>
        <time>2018-06-21T08:42:16.000Z</time>
      </trkpt>
      <trkpt lat="41.74224148504436016082763671875" lon="1.77144373767077922821044921875">
        <ele>418</ele>
        <time>2018-06-21T08:42:17.000Z</time>
      </trkpt>
      <trkpt lat="41.74226579256355762481689453125" lon="1.7714020796120166778564453125">
        <ele>418.20001220703125</ele>
        <time>2018-06-21T08:42:20.000Z</time>
      </trkpt>
      <trkpt lat="41.74229747615754604339599609375" lon="1.77137634716928005218505859375">
        <ele>419</ele>
        <time>2018-06-21T08:42:23.000Z</time>
      </trkpt>
      <trkpt lat="41.7423486895859241485595703125" lon="1.7713175900280475616455078125">
        <ele>419.79998779296875</ele>
        <time>2018-06-21T08:42:28.000Z</time>
      </trkpt>
      <trkpt lat="41.74243929795920848846435546875" lon="1.771201752126216888427734375">
        <ele>421.399993896484375</ele>
        <time>2018-06-21T08:42:36.000Z</time>
      </trkpt>
      <trkpt lat="41.742486990988254547119140625" lon="1.77109186537563800811767578125">
        <ele>421.20001220703125</ele>
        <time>2018-06-21T08:42:42.000Z</time>
      </trkpt>
      <trkpt lat="41.742501743137836456298828125" lon="1.77096898667514324188232421875">
        <ele>418.600006103515625</ele>
        <time>2018-06-21T08:42:48.000Z</time>
      </trkpt>
      <trkpt lat="41.74253233708441257476806640625" lon="1.77080738358199596405029296875">
        <ele>416.20001220703125</ele>
        <time>2018-06-21T08:42:57.000Z</time>
      </trkpt>
      <trkpt lat="41.7425900883972644805908203125" lon="1.77071585319936275482177734375">
        <ele>417.20001220703125</ele>
        <time>2018-06-21T08:43:04.000Z</time>
      </trkpt>
      <trkpt lat="41.74260006286203861236572265625" lon="1.77070646546781063079833984375">
        <ele>417.600006103515625</ele>
        <time>2018-06-21T08:43:05.000Z</time>
      </trkpt>
      <trkpt lat="41.74265705980360507965087890625" lon="1.77064544521272182464599609375">
        <ele>419.79998779296875</ele>
        <time>2018-06-21T08:43:12.000Z</time>
      </trkpt>
      <trkpt lat="41.74267834983766078948974609375" lon="1.77062415517866611480712890625">
        <ele>420.600006103515625</ele>
        <time>2018-06-21T08:43:15.000Z</time>
      </trkpt>
      <trkpt lat="41.7427347600460052490234375" lon="1.77052675746381282806396484375">
        <ele>422.20001220703125</ele>
        <time>2018-06-21T08:43:22.000Z</time>
      </trkpt>
      <trkpt lat="41.7428053356707096099853515625" lon="1.77039675414562225341796875">
        <ele>424</ele>
        <time>2018-06-21T08:43:31.000Z</time>
      </trkpt>
      <trkpt lat="41.74281363375484943389892578125" lon="1.77038778550922870635986328125">
        <ele>424.399993896484375</ele>
        <time>2018-06-21T08:43:32.000Z</time>
      </trkpt>
      <trkpt lat="41.7428448982536792755126953125" lon="1.77033045329153537750244140625">
        <ele>425</ele>
        <time>2018-06-21T08:43:36.000Z</time>
      </trkpt>
      <trkpt lat="41.7428861372172832489013671875" lon="1.77028435282409191131591796875">
        <ele>426.399993896484375</ele>
        <time>2018-06-21T08:43:40.000Z</time>
      </trkpt>
      <trkpt lat="41.742977164685726165771484375" lon="1.77025325596332550048828125">
        <ele>430.399993896484375</ele>
        <time>2018-06-21T08:43:48.000Z</time>
      </trkpt>
      <trkpt lat="41.74300373531877994537353515625" lon="1.77022936753928661346435546875">
        <ele>431.399993896484375</ele>
        <time>2018-06-21T08:43:51.000Z</time>
      </trkpt>
      <trkpt lat="41.743020750582218170166015625" lon="1.7702128551900386810302734375">
        <ele>432</ele>
        <time>2018-06-21T08:43:53.000Z</time>
      </trkpt>
      <trkpt lat="41.74309543333947658538818359375" lon="1.77012895233929157257080078125">
        <ele>434.20001220703125</ele>
        <time>2018-06-21T08:44:00.000Z</time>
      </trkpt>
      <trkpt lat="41.743106581270694732666015625" lon="1.77009366452693939208984375">
        <ele>434</ele>
        <time>2018-06-21T08:44:02.000Z</time>
      </trkpt>
      <trkpt lat="41.74313348717987537384033203125" lon="1.7700294591486454010009765625">
        <ele>434.20001220703125</ele>
        <time>2018-06-21T08:44:06.000Z</time>
      </trkpt>
      <trkpt lat="41.74316198565065860748291015625" lon="1.76987397484481334686279296875">
        <ele>432.600006103515625</ele>
        <time>2018-06-21T08:44:15.000Z</time>
      </trkpt>
      <trkpt lat="41.7431878857314586639404296875" lon="1.7697454802691936492919921875">
        <ele>434.20001220703125</ele>
        <time>2018-06-21T08:44:22.000Z</time>
      </trkpt>
      <trkpt lat="41.7432143725454807281494140625" lon="1.76963995210826396942138671875">
        <ele>435.20001220703125</ele>
        <time>2018-06-21T08:44:28.000Z</time>
      </trkpt>
      <trkpt lat="41.74325318075716495513916015625" lon="1.76949997432529926300048828125">
        <ele>435.20001220703125</ele>
        <time>2018-06-21T08:44:36.000Z</time>
      </trkpt>
      <trkpt lat="41.74328737892210483551025390625" lon="1.76936167292296886444091796875">
        <ele>435.399993896484375</ele>
        <time>2018-06-21T08:44:44.000Z</time>
      </trkpt>
      <trkpt lat="41.74329064786434173583984375" lon="1.769330240786075592041015625">
        <ele>435.399993896484375</ele>
        <time>2018-06-21T08:44:46.000Z</time>
      </trkpt>
      <trkpt lat="41.743242032825946807861328125" lon="1.76919755525887012481689453125">
        <ele>435.600006103515625</ele>
        <time>2018-06-21T08:44:53.000Z</time>
      </trkpt>
      <trkpt lat="41.7431875504553318023681640625" lon="1.76910636015236377716064453125">
        <ele>435</ele>
        <time>2018-06-21T08:45:00.000Z</time>
      </trkpt>
      <trkpt lat="41.74316517077386379241943359375" lon="1.769060678780078887939453125">
        <ele>433.79998779296875</ele>
        <time>2018-06-21T08:45:03.000Z</time>
      </trkpt>
      <trkpt lat="41.7431788332760334014892578125" lon="1.76902555860579013824462890625">
        <ele>434.79998779296875</ele>
        <time>2018-06-21T08:45:07.000Z</time>
      </trkpt>
      <trkpt lat="41.7432569526135921478271484375" lon="1.76907685585319995880126953125">
        <ele>435.600006103515625</ele>
        <time>2018-06-21T08:45:13.000Z</time>
      </trkpt>
      <trkpt lat="41.74332124181091785430908203125" lon="1.76915648393332958221435546875">
        <ele>435.399993896484375</ele>
        <time>2018-06-21T08:45:20.000Z</time>
      </trkpt>
      <trkpt lat="41.74336885102093219757080078125" lon="1.76921364851295948028564453125">
        <ele>435.20001220703125</ele>
        <time>2018-06-21T08:45:25.000Z</time>
      </trkpt>
      <trkpt lat="41.74340304918587207794189453125" lon="1.76925555802881717681884765625">
        <ele>435</ele>
        <time>2018-06-21T08:45:30.000Z</time>
      </trkpt>
      <trkpt lat="41.74346826039254665374755859375" lon="1.7692975513637065887451171875">
        <ele>434.600006103515625</ele>
        <time>2018-06-21T08:45:37.000Z</time>
      </trkpt>
      <trkpt lat="41.74353196285665035247802734375" lon="1.76931875757873058319091796875">
        <ele>433.79998779296875</ele>
        <time>2018-06-21T08:45:43.000Z</time>
      </trkpt>
      <trkpt lat="41.74356465227901935577392578125" lon="1.76937089301645755767822265625">
        <ele>434</ele>
        <time>2018-06-21T08:45:51.000Z</time>
      </trkpt>
      <trkpt lat="41.74356498755514621734619140625" lon="1.76945219747722148895263671875">
        <ele>434.20001220703125</ele>
        <time>2018-06-21T08:45:58.000Z</time>
      </trkpt>
      <trkpt lat="41.7435878701508045196533203125" lon="1.76949955523014068603515625">
        <ele>434</ele>
        <time>2018-06-21T08:46:04.000Z</time>
      </trkpt>
      <trkpt lat="41.7435975931584835052490234375" lon="1.7695580609142780303955078125">
        <ele>434</ele>
        <time>2018-06-21T08:46:12.000Z</time>
      </trkpt>
      <trkpt lat="41.74361729063093662261962890625" lon="1.76960474811494350433349609375">
        <ele>433.79998779296875</ele>
        <time>2018-06-21T08:46:17.000Z</time>
      </trkpt>
      <trkpt lat="41.74361653625965118408203125" lon="1.76964045502245426177978515625">
        <ele>433.79998779296875</ele>
        <time>2018-06-21T08:46:22.000Z</time>
      </trkpt>
      <trkpt lat="41.74360438250005245208740234375" lon="1.76969409920275211334228515625">
        <ele>433.79998779296875</ele>
        <time>2018-06-21T08:46:27.000Z</time>
      </trkpt>
      <trkpt lat="41.7436317913234233856201171875" lon="1.76974656991660594940185546875">
        <ele>433.600006103515625</ele>
        <time>2018-06-21T08:46:32.000Z</time>
      </trkpt>
      <trkpt lat="41.74362885765731334686279296875" lon="1.769815385341644287109375">
        <ele>433.600006103515625</ele>
        <time>2018-06-21T08:46:39.000Z</time>
      </trkpt>
      <trkpt lat="41.74363254569470882415771484375" lon="1.7698574624955654144287109375">
        <ele>433.399993896484375</ele>
        <time>2018-06-21T08:46:44.000Z</time>
      </trkpt>
      <trkpt lat="41.7436173744499683380126953125" lon="1.76991529762744903564453125">
        <ele>434.79998779296875</ele>
        <time>2018-06-21T08:46:49.000Z</time>
      </trkpt>
      <trkpt lat="41.74361745826900005340576171875" lon="1.76998595707118511199951171875">
        <ele>437.20001220703125</ele>
        <time>2018-06-21T08:46:53.000Z</time>
      </trkpt>
      <trkpt lat="41.743614859879016876220703125" lon="1.7701595462858676910400390625">
        <ele>443</ele>
        <time>2018-06-21T08:47:04.000Z</time>
      </trkpt>
      <trkpt lat="41.7436118423938751220703125" lon="1.77017119713127613067626953125">
        <ele>443.399993896484375</ele>
        <time>2018-06-21T08:47:05.000Z</time>
      </trkpt>
      <trkpt lat="41.74362466670572757720947265625" lon="1.7702356539666652679443359375">
        <ele>445.600006103515625</ele>
        <time>2018-06-21T08:47:10.000Z</time>
      </trkpt>
      <trkpt lat="41.743635646998882293701171875" lon="1.77031234838068485260009765625">
        <ele>448</ele>
        <time>2018-06-21T08:47:15.000Z</time>
      </trkpt>
      <trkpt lat="41.74363195896148681640625" lon="1.77040488459169864654541015625">
        <ele>449.79998779296875</ele>
        <time>2018-06-21T08:47:23.000Z</time>
      </trkpt>
      <trkpt lat="41.743620894849300384521484375" lon="1.77044075913727283477783203125">
        <ele>450.399993896484375</ele>
        <time>2018-06-21T08:47:27.000Z</time>
      </trkpt>
      <trkpt lat="41.7435928992927074432373046875" lon="1.77047747187316417694091796875">
        <ele>451</ele>
        <time>2018-06-21T08:47:32.000Z</time>
      </trkpt>
      <trkpt lat="41.743586696684360504150390625" lon="1.77054134197533130645751953125">
        <ele>452.20001220703125</ele>
        <time>2018-06-21T08:47:38.000Z</time>
      </trkpt>
      <trkpt lat="41.74360957928001880645751953125" lon="1.77060018293559551239013671875">
        <ele>453.600006103515625</ele>
        <time>2018-06-21T08:47:44.000Z</time>
      </trkpt>
      <trkpt lat="41.74364813603460788726806640625" lon="1.77066338248550891876220703125">
        <ele>455.20001220703125</ele>
        <time>2018-06-21T08:47:52.000Z</time>
      </trkpt>
      <trkpt lat="41.74366607330739498138427734375" lon="1.77072356455028057098388671875">
        <ele>456.79998779296875</ele>
        <time>2018-06-21T08:47:58.000Z</time>
      </trkpt>
      <trkpt lat="41.74363673664629459381103515625" lon="1.7707742750644683837890625">
        <ele>458.20001220703125</ele>
        <time>2018-06-21T08:48:05.000Z</time>
      </trkpt>
      <trkpt lat="41.74358946271240711212158203125" lon="1.7708471976220607757568359375">
        <ele>460.399993896484375</ele>
        <time>2018-06-21T08:48:12.000Z</time>
      </trkpt>
      <trkpt lat="41.7435868643224239349365234375" lon="1.77091215737164020538330078125">
        <ele>462.600006103515625</ele>
        <time>2018-06-21T08:48:18.000Z</time>
      </trkpt>
      <trkpt lat="41.7436091601848602294921875" lon="1.77094534970819950103759765625">
        <ele>464</ele>
        <time>2018-06-21T08:48:24.000Z</time>
      </trkpt>
      <trkpt lat="41.7436133511364459991455078125" lon="1.77098507992923259735107421875">
        <ele>465.399993896484375</ele>
        <time>2018-06-21T08:48:28.000Z</time>
      </trkpt>
      <trkpt lat="41.74361645244061946868896484375" lon="1.77103377878665924072265625">
        <ele>467.20001220703125</ele>
        <time>2018-06-21T08:48:32.000Z</time>
      </trkpt>
      <trkpt lat="41.74362416379153728485107421875" lon="1.77109488286077976226806640625">
        <ele>469.399993896484375</ele>
        <time>2018-06-21T08:48:37.000Z</time>
      </trkpt>
      <trkpt lat="41.74362198449671268463134765625" lon="1.77116445265710353851318359375">
        <ele>471.399993896484375</ele>
        <time>2018-06-21T08:48:42.000Z</time>
      </trkpt>
      <trkpt lat="41.7436049692332744598388671875" lon="1.77123226225376129150390625">
        <ele>472.600006103515625</ele>
        <time>2018-06-21T08:48:49.000Z</time>
      </trkpt>
      <trkpt lat="41.74361075274646282196044921875" lon="1.771300993859767913818359375">
        <ele>474.399993896484375</ele>
        <time>2018-06-21T08:48:54.000Z</time>
      </trkpt>
      <trkpt lat="41.74363506026566028594970703125" lon="1.7713457532227039337158203125">
        <ele>476</ele>
        <time>2018-06-21T08:48:58.000Z</time>
      </trkpt>
      <trkpt lat="41.743706054985523223876953125" lon="1.77137819118797779083251953125">
        <ele>478.20001220703125</ele>
        <time>2018-06-21T08:49:04.000Z</time>
      </trkpt>
      <trkpt lat="41.74372977577149868011474609375" lon="1.7714084498584270477294921875">
        <ele>479.399993896484375</ele>
        <time>2018-06-21T08:49:08.000Z</time>
      </trkpt>
      <trkpt lat="41.74378224648535251617431640625" lon="1.77143166773021221160888671875">
        <ele>481</ele>
        <time>2018-06-21T08:49:13.000Z</time>
      </trkpt>
      <trkpt lat="41.74385265447199344635009765625" lon="1.77149738185107707977294921875">
        <ele>484</ele>
        <time>2018-06-21T08:49:21.000Z</time>
      </trkpt>
      <trkpt lat="41.74390026368200778961181640625" lon="1.7715405486524105072021484375">
        <ele>486</ele>
        <time>2018-06-21T08:49:28.000Z</time>
      </trkpt>
      <trkpt lat="41.7439083941280841827392578125" lon="1.7715797759592533111572265625">
        <ele>486.20001220703125</ele>
        <time>2018-06-21T08:49:33.000Z</time>
      </trkpt>
      <trkpt lat="41.74388417042791843414306640625" lon="1.7716513574123382568359375">
        <ele>485.79998779296875</ele>
        <time>2018-06-21T08:49:39.000Z</time>
      </trkpt>
      <trkpt lat="41.743876039981842041015625" lon="1.77166719920933246612548828125">
        <ele>485.600006103515625</ele>
        <time>2018-06-21T08:49:40.000Z</time>
      </trkpt>
      <trkpt lat="41.7438242398202419281005859375" lon="1.7717329971492290496826171875">
        <ele>484.600006103515625</ele>
        <time>2018-06-21T08:49:46.000Z</time>
      </trkpt>
      <trkpt lat="41.7438074760138988494873046875" lon="1.77174883894622325897216796875">
        <ele>484.20001220703125</ele>
        <time>2018-06-21T08:49:48.000Z</time>
      </trkpt>
      <trkpt lat="41.7437581904232501983642578125" lon="1.77178974263370037078857421875">
        <ele>483.20001220703125</ele>
        <time>2018-06-21T08:49:53.000Z</time>
      </trkpt>
      <trkpt lat="41.743706054985523223876953125" lon="1.77186258137226104736328125">
        <ele>482.20001220703125</ele>
        <time>2018-06-21T08:50:00.000Z</time>
      </trkpt>
      <trkpt lat="41.7437008582055568695068359375" lon="1.77187255583703517913818359375">
        <ele>482</ele>
        <time>2018-06-21T08:50:01.000Z</time>
      </trkpt>
      <trkpt lat="41.74366506747901439666748046875" lon="1.771986298263072967529296875">
        <ele>481.399993896484375</ele>
        <time>2018-06-21T08:50:09.000Z</time>
      </trkpt>
      <trkpt lat="41.74362617544829845428466796875" lon="1.772091574966907501220703125">
        <ele>483.600006103515625</ele>
        <time>2018-06-21T08:50:16.000Z</time>
      </trkpt>
      <trkpt lat="41.74361024983227252960205078125" lon="1.7721359990537166595458984375">
        <ele>484.79998779296875</ele>
        <time>2018-06-21T08:50:19.000Z</time>
      </trkpt>
      <trkpt lat="41.74360538832843303680419921875" lon="1.77219785749912261962890625">
        <ele>486.20001220703125</ele>
        <time>2018-06-21T08:50:23.000Z</time>
      </trkpt>
      <trkpt lat="41.7435657419264316558837890625" lon="1.77232568152248859405517578125">
        <ele>489.399993896484375</ele>
        <time>2018-06-21T08:50:31.000Z</time>
      </trkpt>
      <trkpt lat="41.7435796558856964111328125" lon="1.77240916527807712554931640625">
        <ele>490</ele>
        <time>2018-06-21T08:50:36.000Z</time>
      </trkpt>
      <trkpt lat="41.74356314353644847869873046875" lon="1.7724984325468540191650390625">
        <ele>488.20001220703125</ele>
        <time>2018-06-21T08:50:41.000Z</time>
      </trkpt>
      <trkpt lat="41.74353263340890407562255859375" lon="1.77261049859225749969482421875">
        <ele>485.79998779296875</ele>
        <time>2018-06-21T08:50:48.000Z</time>
      </trkpt>
      <trkpt lat="41.74352475441992282867431640625" lon="1.7726422660052776336669921875">
        <ele>485.20001220703125</ele>
        <time>2018-06-21T08:50:50.000Z</time>
      </trkpt>
      <trkpt lat="41.74346365034580230712890625" lon="1.7727698385715484619140625">
        <ele>486.20001220703125</ele>
        <time>2018-06-21T08:50:58.000Z</time>
      </trkpt>
      <trkpt lat="41.74339885823428630828857421875" lon="1.77286296151578426361083984375">
        <ele>488.600006103515625</ele>
        <time>2018-06-21T08:51:05.000Z</time>
      </trkpt>
      <trkpt lat="41.74332543276250362396240234375" lon="1.77297309972345829010009765625">
        <ele>491.399993896484375</ele>
        <time>2018-06-21T08:51:13.000Z</time>
      </trkpt>
      <trkpt lat="41.7432780750095844268798828125" lon="1.7730796337127685546875">
        <ele>493.20001220703125</ele>
        <time>2018-06-21T08:51:20.000Z</time>
      </trkpt>
      <trkpt lat="41.74322937615215778350830078125" lon="1.7732165940105915069580078125">
        <ele>495.20001220703125</ele>
        <time>2018-06-21T08:51:28.000Z</time>
      </trkpt>
      <trkpt lat="41.7431982792913913726806640625" lon="1.7733292467892169952392578125">
        <ele>494</ele>
        <time>2018-06-21T08:51:34.000Z</time>
      </trkpt>
      <trkpt lat="41.74319065175950527191162109375" lon="1.77336989901959896087646484375">
        <ele>493.20001220703125</ele>
        <time>2018-06-21T08:51:36.000Z</time>
      </trkpt>
      <trkpt lat="41.74313114024698734283447265625" lon="1.77347324788570404052734375">
        <ele>490</ele>
        <time>2018-06-21T08:51:42.000Z</time>
      </trkpt>
      <trkpt lat="41.743100546300411224365234375" lon="1.7735260538756847381591796875">
        <ele>488.600006103515625</ele>
        <time>2018-06-21T08:51:45.000Z</time>
      </trkpt>
      <trkpt lat="41.743018738925457000732421875" lon="1.7736524529755115509033203125">
        <ele>484.600006103515625</ele>
        <time>2018-06-21T08:51:53.000Z</time>
      </trkpt>
      <trkpt lat="41.7429746501147747039794921875" lon="1.7737461626529693603515625">
        <ele>482</ele>
        <time>2018-06-21T08:51:59.000Z</time>
      </trkpt>
      <trkpt lat="41.7429119534790515899658203125" lon="1.77385336719453334808349609375">
        <ele>482.20001220703125</ele>
        <time>2018-06-21T08:52:06.000Z</time>
      </trkpt>
      <trkpt lat="41.74289778806269168853759765625" lon="1.7738626711070537567138671875">
        <ele>482.399993896484375</ele>
        <time>2018-06-21T08:52:07.000Z</time>
      </trkpt>
      <trkpt lat="41.7428056709468364715576171875" lon="1.7739585600793361663818359375">
        <ele>484.600006103515625</ele>
        <time>2018-06-21T08:52:15.000Z</time>
      </trkpt>
      <trkpt lat="41.74273735843598842620849609375" lon="1.77406107075512409210205078125">
        <ele>486</ele>
        <time>2018-06-21T08:52:22.000Z</time>
      </trkpt>
      <trkpt lat="41.74270483665168285369873046875" lon="1.7741362564265727996826171875">
        <ele>484</ele>
        <time>2018-06-21T08:52:27.000Z</time>
      </trkpt>
      <trkpt lat="41.74267969094216823577880859375" lon="1.774236671626567840576171875">
        <ele>481.399993896484375</ele>
        <time>2018-06-21T08:52:33.000Z</time>
      </trkpt>
      <trkpt lat="41.74267834983766078948974609375" lon="1.77425519563257694244384765625">
        <ele>480.79998779296875</ele>
        <time>2018-06-21T08:52:34.000Z</time>
      </trkpt>
      <trkpt lat="41.7426544614136219024658203125" lon="1.774325855076313018798828125">
        <ele>479</ele>
        <time>2018-06-21T08:52:38.000Z</time>
      </trkpt>
      <trkpt lat="41.7426383681595325469970703125" lon="1.77440154366195201873779296875">
        <ele>479.600006103515625</ele>
        <time>2018-06-21T08:52:42.000Z</time>
      </trkpt>
      <trkpt lat="41.74256636761128902435302734375" lon="1.77453766576945781707763671875">
        <ele>482.399993896484375</ele>
        <time>2018-06-21T08:52:50.000Z</time>
      </trkpt>
      <trkpt lat="41.742526553571224212646484375" lon="1.77463925443589687347412109375">
        <ele>484</ele>
        <time>2018-06-21T08:52:56.000Z</time>
      </trkpt>
      <trkpt lat="41.7424945347011089324951171875" lon="1.77473229356110095977783203125">
        <ele>485.399993896484375</ele>
        <time>2018-06-21T08:53:01.000Z</time>
      </trkpt>
      <trkpt lat="41.74242588691413402557373046875" lon="1.7748319543898105621337890625">
        <ele>488</ele>
        <time>2018-06-21T08:53:08.000Z</time>
      </trkpt>
      <trkpt lat="41.742366962134838104248046875" lon="1.7749489657580852508544921875">
        <ele>489</ele>
        <time>2018-06-21T08:53:15.000Z</time>
      </trkpt>
      <trkpt lat="41.7422960512340068817138671875" lon="1.7750723473727703094482421875">
        <ele>486.20001220703125</ele>
        <time>2018-06-21T08:53:23.000Z</time>
      </trkpt>
      <trkpt lat="41.74223427660763263702392578125" lon="1.77515826188027858734130859375">
        <ele>484.20001220703125</ele>
        <time>2018-06-21T08:53:29.000Z</time>
      </trkpt>
      <trkpt lat="41.7421669699251651763916015625" lon="1.77523906342685222625732421875">
        <ele>482</ele>
        <time>2018-06-21T08:53:35.000Z</time>
      </trkpt>
      <trkpt lat="41.7421059496700763702392578125" lon="1.77533495239913463592529296875">
        <ele>479.79998779296875</ele>
        <time>2018-06-21T08:53:42.000Z</time>
      </trkpt>
      <trkpt lat="41.7420157603919506072998046875" lon="1.77540888078510761260986328125">
        <ele>478.79998779296875</ele>
        <time>2018-06-21T08:53:50.000Z</time>
      </trkpt>
      <trkpt lat="41.74193856306374073028564453125" lon="1.77548825740814208984375">
        <ele>481.399993896484375</ele>
        <time>2018-06-21T08:53:58.000Z</time>
      </trkpt>
      <trkpt lat="41.7418742738664150238037109375" lon="1.77555195987224578857421875">
        <ele>483.600006103515625</ele>
        <time>2018-06-21T08:54:04.000Z</time>
      </trkpt>
      <trkpt lat="41.74182557500898838043212890625" lon="1.77558875642716884613037109375">
        <ele>484.79998779296875</ele>
        <time>2018-06-21T08:54:08.000Z</time>
      </trkpt>
      <trkpt lat="41.741802357137203216552734375" lon="1.77568883635103702545166015625">
        <ele>487</ele>
        <time>2018-06-21T08:54:14.000Z</time>
      </trkpt>
      <trkpt lat="41.74179355613887310028076171875" lon="1.77572873421013355255126953125">
        <ele>487.600006103515625</ele>
        <time>2018-06-21T08:54:16.000Z</time>
      </trkpt>
      <trkpt lat="41.74174427054822444915771484375" lon="1.7758025787770748138427734375">
        <ele>487.600006103515625</ele>
        <time>2018-06-21T08:54:21.000Z</time>
      </trkpt>
      <trkpt lat="41.7417096532881259918212890625" lon="1.77584775723516941070556640625">
        <ele>487.600006103515625</ele>
        <time>2018-06-21T08:54:24.000Z</time>
      </trkpt>
      <trkpt lat="41.741671599447727203369140625" lon="1.77595856599509716033935546875">
        <ele>487.600006103515625</ele>
        <time>2018-06-21T08:54:32.000Z</time>
      </trkpt>
      <trkpt lat="41.74166296608746051788330078125" lon="1.7759792692959308624267578125">
        <ele>487.600006103515625</ele>
        <time>2018-06-21T08:54:34.000Z</time>
      </trkpt>
      <trkpt lat="41.74160487949848175048828125" lon="1.77607473917305469512939453125">
        <ele>488.20001220703125</ele>
        <time>2018-06-21T08:54:41.000Z</time>
      </trkpt>
      <trkpt lat="41.74154947511851787567138671875" lon="1.77619175054132938385009765625">
        <ele>488.600006103515625</ele>
        <time>2018-06-21T08:54:47.000Z</time>
      </trkpt>
      <trkpt lat="41.74151678569614887237548828125" lon="1.7762823589146137237548828125">
        <ele>487</ele>
        <time>2018-06-21T08:54:52.000Z</time>
      </trkpt>
      <trkpt lat="41.741485185921192169189453125" lon="1.77638855762779712677001953125">
        <ele>485</ele>
        <time>2018-06-21T08:54:58.000Z</time>
      </trkpt>
      <trkpt lat="41.74144553951919078826904296875" lon="1.77651395089924335479736328125">
        <ele>483.600006103515625</ele>
        <time>2018-06-21T08:55:05.000Z</time>
      </trkpt>
      <trkpt lat="41.74143858253955841064453125" lon="1.77653364837169647216796875">
        <ele>483.600006103515625</ele>
        <time>2018-06-21T08:55:06.000Z</time>
      </trkpt>
      <trkpt lat="41.74144218675792217254638671875" lon="1.77660615183413028717041015625">
        <ele>484</ele>
        <time>2018-06-21T08:55:10.000Z</time>
      </trkpt>
      <trkpt lat="41.74143045209348201751708984375" lon="1.77665879018604755401611328125">
        <ele>483.79998779296875</ele>
        <time>2018-06-21T08:55:13.000Z</time>
      </trkpt>
      <trkpt lat="41.7413760535418987274169921875" lon="1.77674286067485809326171875">
        <ele>482.20001220703125</ele>
        <time>2018-06-21T08:55:19.000Z</time>
      </trkpt>
      <trkpt lat="41.7413163743913173675537109375" lon="1.77684755064547061920166015625">
        <ele>480.399993896484375</ele>
        <time>2018-06-21T08:55:25.000Z</time>
      </trkpt>
      <trkpt lat="41.74129667691886425018310546875" lon="1.7769790627062320709228515625">
        <ele>480.20001220703125</ele>
        <time>2018-06-21T08:55:31.000Z</time>
      </trkpt>
      <trkpt lat="41.74128779210150241851806640625" lon="1.7770581878721714019775390625">
        <ele>480</ele>
        <time>2018-06-21T08:55:35.000Z</time>
      </trkpt>
      <trkpt lat="41.74126155674457550048828125" lon="1.7772169411182403564453125">
        <ele>481.20001220703125</ele>
        <time>2018-06-21T08:55:42.000Z</time>
      </trkpt>
      <trkpt lat="41.74123314209282398223876953125" lon="1.7773897759616374969482421875">
        <ele>483.20001220703125</ele>
        <time>2018-06-21T08:55:50.000Z</time>
      </trkpt>
      <trkpt lat="41.74121906049549579620361328125" lon="1.77744853310286998748779296875">
        <ele>484</ele>
        <time>2018-06-21T08:55:53.000Z</time>
      </trkpt>
      <trkpt lat="41.74114278517663478851318359375" lon="1.77750385366380214691162109375">
        <ele>483.399993896484375</ele>
        <time>2018-06-21T08:56:00.000Z</time>
      </trkpt>
      <trkpt lat="41.741141863167285919189453125" lon="1.777616254985332489013671875">
        <ele>485.399993896484375</ele>
        <time>2018-06-21T08:56:07.000Z</time>
      </trkpt>
      <trkpt lat="41.7411361634731292724609375" lon="1.7776541411876678466796875">
        <ele>485.79998779296875</ele>
        <time>2018-06-21T08:56:09.000Z</time>
      </trkpt>
      <trkpt lat="41.74110607244074344635009765625" lon="1.777834184467792510986328125">
        <ele>488.399993896484375</ele>
        <time>2018-06-21T08:56:18.000Z</time>
      </trkpt>
      <trkpt lat="41.74106064252555370330810546875" lon="1.777935437858104705810546875">
        <ele>489.600006103515625</ele>
        <time>2018-06-21T08:56:24.000Z</time>
      </trkpt>
      <trkpt lat="41.7410481534898281097412109375" lon="1.77799603901803493499755859375">
        <ele>490.600006103515625</ele>
        <time>2018-06-21T08:56:28.000Z</time>
      </trkpt>
      <trkpt lat="41.7410501651465892791748046875" lon="1.7780725657939910888671875">
        <ele>492</ele>
        <time>2018-06-21T08:56:34.000Z</time>
      </trkpt>
      <trkpt lat="41.74105259589850902557373046875" lon="1.7781404592096805572509765625">
        <ele>493.399993896484375</ele>
        <time>2018-06-21T08:56:40.000Z</time>
      </trkpt>
      <trkpt lat="41.7410476505756378173828125" lon="1.77815898321568965911865234375">
        <ele>493.600006103515625</ele>
        <time>2018-06-21T08:56:41.000Z</time>
      </trkpt>
      <trkpt lat="41.741048656404018402099609375" lon="1.77824095822870731353759765625">
        <ele>495.399993896484375</ele>
        <time>2018-06-21T08:56:45.000Z</time>
      </trkpt>
      <trkpt lat="41.7410712875425815582275390625" lon="1.77834816277027130126953125">
        <ele>498.600006103515625</ele>
        <time>2018-06-21T08:56:51.000Z</time>
      </trkpt>
      <trkpt lat="41.74107556231319904327392578125" lon="1.77837766706943511962890625">
        <ele>499.399993896484375</ele>
        <time>2018-06-21T08:56:53.000Z</time>
      </trkpt>
      <trkpt lat="41.74107086844742298126220703125" lon="1.77843407727777957916259765625">
        <ele>500.600006103515625</ele>
        <time>2018-06-21T08:56:57.000Z</time>
      </trkpt>
      <trkpt lat="41.74109785817563533782958984375" lon="1.77851655520498752593994140625">
        <ele>503.20001220703125</ele>
        <time>2018-06-21T08:57:02.000Z</time>
      </trkpt>
      <trkpt lat="41.74111193977296352386474609375" lon="1.77859987132251262664794921875">
        <ele>505.600006103515625</ele>
        <time>2018-06-21T08:57:08.000Z</time>
      </trkpt>
      <trkpt lat="41.7411222495138645172119140625" lon="1.7786802537739276885986328125">
        <ele>507.600006103515625</ele>
        <time>2018-06-21T08:57:13.000Z</time>
      </trkpt>
      <trkpt lat="41.7411433719098567962646484375" lon="1.77868905477225780487060546875">
        <ele>508.20001220703125</ele>
        <time>2018-06-21T08:57:15.000Z</time>
      </trkpt>
      <trkpt lat="41.74119559116661548614501953125" lon="1.77871805615723133087158203125">
        <ele>509.79998779296875</ele>
        <time>2018-06-21T08:57:23.000Z</time>
      </trkpt>
      <trkpt lat="41.74125426448881626129150390625" lon="1.778747476637363433837890625">
        <ele>511.600006103515625</ele>
        <time>2018-06-21T08:57:28.000Z</time>
      </trkpt>
      <trkpt lat="41.74133255146443843841552734375" lon="1.77875929512083530426025390625">
        <ele>513.20001220703125</ele>
        <time>2018-06-21T08:57:34.000Z</time>
      </trkpt>
      <trkpt lat="41.74140036106109619140625" lon="1.77879265509545803070068359375">
        <ele>515.20001220703125</ele>
        <time>2018-06-21T08:57:40.000Z</time>
      </trkpt>
      <trkpt lat="41.741428188979625701904296875" lon="1.7788076587021350860595703125">
        <ele>516</ele>
        <time>2018-06-21T08:57:43.000Z</time>
      </trkpt>
      <trkpt lat="41.74149348400533199310302734375" lon="1.77882668562233448028564453125">
        <ele>517.5999755859375</ele>
        <time>2018-06-21T08:57:51.000Z</time>
      </trkpt>
      <trkpt lat="41.74151225946843624114990234375" lon="1.77887798286974430084228515625">
        <ele>519.20001220703125</ele>
        <time>2018-06-21T08:57:58.000Z</time>
      </trkpt>
      <trkpt lat="41.74152835272252559661865234375" lon="1.7789330519735813140869140625">
        <ele>521</ele>
        <time>2018-06-21T08:58:03.000Z</time>
      </trkpt>
      <trkpt lat="41.74154545180499553680419921875" lon="1.7789823375642299652099609375">
        <ele>522.4000244140625</ele>
        <time>2018-06-21T08:58:08.000Z</time>
      </trkpt>
      <trkpt lat="41.7415312863886356353759765625" lon="1.77905215881764888763427734375">
        <ele>524</ele>
        <time>2018-06-21T08:58:15.000Z</time>
      </trkpt>
      <trkpt lat="41.74151175655424594879150390625" lon="1.77912457846105098724365234375">
        <ele>524.79998779296875</ele>
        <time>2018-06-21T08:58:22.000Z</time>
      </trkpt>
      <trkpt lat="41.7415252514183521270751953125" lon="1.77917436696588993072509765625">
        <ele>526</ele>
        <time>2018-06-21T08:58:28.000Z</time>
      </trkpt>
      <trkpt lat="41.74154746346175670623779296875" lon="1.77923597395420074462890625">
        <ele>527.20001220703125</ele>
        <time>2018-06-21T08:58:34.000Z</time>
      </trkpt>
      <trkpt lat="41.741555593907833099365234375" lon="1.7792773805558681488037109375">
        <ele>527.79998779296875</ele>
        <time>2018-06-21T08:58:39.000Z</time>
      </trkpt>
      <trkpt lat="41.74155349843204021453857421875" lon="1.7793152667582035064697265625">
        <ele>528.5999755859375</ele>
        <time>2018-06-21T08:58:43.000Z</time>
      </trkpt>
      <trkpt lat="41.74157395027577877044677734375" lon="1.779374778270721435546875">
        <ele>529.20001220703125</ele>
        <time>2018-06-21T08:58:49.000Z</time>
      </trkpt>
      <trkpt lat="41.74156305380165576934814453125" lon="1.7794352956116199493408203125">
        <ele>530.5999755859375</ele>
        <time>2018-06-21T08:58:53.000Z</time>
      </trkpt>
      <trkpt lat="41.7415128462016582489013671875" lon="1.7795271612703800201416015625">
        <ele>532</ele>
        <time>2018-06-21T08:59:00.000Z</time>
      </trkpt>
      <trkpt lat="41.74146448262035846710205078125" lon="1.77958776243031024932861328125">
        <ele>532.20001220703125</ele>
        <time>2018-06-21T08:59:05.000Z</time>
      </trkpt>
      <trkpt lat="41.74142785370349884033203125" lon="1.7796307615935802459716796875">
        <ele>532.20001220703125</ele>
        <time>2018-06-21T08:59:09.000Z</time>
      </trkpt>
      <trkpt lat="41.7413512431085109710693359375" lon="1.7796619422733783721923828125">
        <ele>531.20001220703125</ele>
        <time>2018-06-21T08:59:15.000Z</time>
      </trkpt>
      <trkpt lat="41.7412791587412357330322265625" lon="1.7796300910413265228271484375">
        <ele>529.20001220703125</ele>
        <time>2018-06-21T08:59:21.000Z</time>
      </trkpt>
      <trkpt lat="41.741226352751255035400390625" lon="1.7796230502426624298095703125">
        <ele>528</ele>
        <time>2018-06-21T08:59:26.000Z</time>
      </trkpt>
      <trkpt lat="41.74113624729216098785400390625" lon="1.77961408160626888275146484375">
        <ele>525.79998779296875</ele>
        <time>2018-06-21T08:59:33.000Z</time>
      </trkpt>
      <trkpt lat="41.74109349958598613739013671875" lon="1.77967694588005542755126953125">
        <ele>526</ele>
        <time>2018-06-21T08:59:38.000Z</time>
      </trkpt>
      <trkpt lat="41.74108645878732204437255859375" lon="1.77968968637287616729736328125">
        <ele>526</ele>
        <time>2018-06-21T08:59:39.000Z</time>
      </trkpt>
      <trkpt lat="41.74104387871921062469482421875" lon="1.7798017524182796478271484375">
        <ele>527</ele>
        <time>2018-06-21T08:59:46.000Z</time>
      </trkpt>
      <trkpt lat="41.74103884957730770111083984375" lon="1.77981558255851268768310546875">
        <ele>527</ele>
        <time>2018-06-21T08:59:47.000Z</time>
      </trkpt>
      <trkpt lat="41.7409993708133697509765625" lon="1.779909543693065643310546875">
        <ele>527</ele>
        <time>2018-06-21T08:59:53.000Z</time>
      </trkpt>
      <trkpt lat="41.74099308438599109649658203125" lon="1.77994583733379840850830078125">
        <ele>526.5999755859375</ele>
        <time>2018-06-21T08:59:55.000Z</time>
      </trkpt>
      <trkpt lat="41.7410149611532688140869140625" lon="1.7800897546112537384033203125">
        <ele>525.5999755859375</ele>
        <time>2018-06-21T09:00:02.000Z</time>
      </trkpt>
      <trkpt lat="41.7409703694283962249755859375" lon="1.78018103353679180145263671875">
        <ele>524.20001220703125</ele>
        <time>2018-06-21T09:00:07.000Z</time>
      </trkpt>
      <trkpt lat="41.7409475706517696380615234375" lon="1.7803026549518108367919921875">
        <ele>523.5999755859375</ele>
        <time>2018-06-21T09:00:14.000Z</time>
      </trkpt>
      <trkpt lat="41.740959472954273223876953125" lon="1.78040407598018646240234375">
        <ele>523.79998779296875</ele>
        <time>2018-06-21T09:00:19.000Z</time>
      </trkpt>
      <trkpt lat="41.74094715155661106109619140625" lon="1.78055319003760814666748046875">
        <ele>523.4000244140625</ele>
        <time>2018-06-21T09:00:26.000Z</time>
      </trkpt>
      <trkpt lat="41.7409438826143741607666015625" lon="1.78059359081089496612548828125">
        <ele>523.20001220703125</ele>
        <time>2018-06-21T09:00:28.000Z</time>
      </trkpt>
      <trkpt lat="41.74092317931354045867919921875" lon="1.7807559482753276824951171875">
        <ele>521.4000244140625</ele>
        <time>2018-06-21T09:00:36.000Z</time>
      </trkpt>
      <trkpt lat="41.74088579602539539337158203125" lon="1.78089986555278301239013671875">
        <ele>515.79998779296875</ele>
        <time>2018-06-21T09:00:44.000Z</time>
      </trkpt>
      <trkpt lat="41.74088914878666400909423828125" lon="1.78092165850102901458740234375">
        <ele>515.20001220703125</ele>
        <time>2018-06-21T09:00:45.000Z</time>
      </trkpt>
      <trkpt lat="41.74088126979768276214599609375" lon="1.78096708841621875762939453125">
        <ele>514.20001220703125</ele>
        <time>2018-06-21T09:00:47.000Z</time>
      </trkpt>
      <trkpt lat="41.74087573774158954620361328125" lon="1.78099709562957286834716796875">
        <ele>513.5999755859375</ele>
        <time>2018-06-21T09:00:49.000Z</time>
      </trkpt>
      <trkpt lat="41.74087875522673130035400390625" lon="1.7809745483100414276123046875">
        <ele>514</ele>
        <time>2018-06-21T09:00:53.000Z</time>
      </trkpt>
      <trkpt lat="41.7409264482557773590087890625" lon="1.7809148691594600677490234375">
        <ele>515.5999755859375</ele>
        <time>2018-06-21T09:00:58.000Z</time>
      </trkpt>
      <trkpt lat="41.7409559525549411773681640625" lon="1.78085376508533954620361328125">
        <ele>518.20001220703125</ele>
        <time>2018-06-21T09:01:02.000Z</time>
      </trkpt>
      <trkpt lat="41.7409725487232208251953125" lon="1.7807767353951930999755859375">
        <ele>521.20001220703125</ele>
        <time>2018-06-21T09:01:06.000Z</time>
      </trkpt>
      <trkpt lat="41.741069443523883819580078125" lon="1.780704148113727569580078125">
        <ele>524.79998779296875</ele>
        <time>2018-06-21T09:01:13.000Z</time>
      </trkpt>
      <trkpt lat="41.74113155342638492584228515625" lon="1.78064807318150997161865234375">
        <ele>525.5999755859375</ele>
        <time>2018-06-21T09:01:17.000Z</time>
      </trkpt>
      <trkpt lat="41.74124286510050296783447265625" lon="1.78063399158418178558349609375">
        <ele>527.20001220703125</ele>
        <time>2018-06-21T09:01:23.000Z</time>
      </trkpt>
      <trkpt lat="41.74128376878798007965087890625" lon="1.7806288786232471466064453125">
        <ele>527.79998779296875</ele>
        <time>2018-06-21T09:01:26.000Z</time>
      </trkpt>
      <trkpt lat="41.7413371615111827850341796875" lon="1.7805933393537998199462890625">
        <ele>528.4000244140625</ele>
        <time>2018-06-21T09:01:30.000Z</time>
      </trkpt>
      <trkpt lat="41.74139843322336673736572265625" lon="1.78058688528835773468017578125">
        <ele>529.20001220703125</ele>
        <time>2018-06-21T09:01:35.000Z</time>
      </trkpt>
      <trkpt lat="41.7414923943579196929931640625" lon="1.7805410362780094146728515625">
        <ele>531.5999755859375</ele>
        <time>2018-06-21T09:01:42.000Z</time>
      </trkpt>
      <trkpt lat="41.74156665802001953125" lon="1.7805611528456211090087890625">
        <ele>531.79998779296875</ele>
        <time>2018-06-21T09:01:47.000Z</time>
      </trkpt>
      <trkpt lat="41.7416496388614177703857421875" lon="1.7805547825992107391357421875">
        <ele>530</ele>
        <time>2018-06-21T09:01:53.000Z</time>
      </trkpt>
      <trkpt lat="41.74177796579897403717041015625" lon="1.78053776733577251434326171875">
        <ele>527</ele>
        <time>2018-06-21T09:02:02.000Z</time>
      </trkpt>
      <trkpt lat="41.74187435768544673919677734375" lon="1.78055419586598873138427734375">
        <ele>524.5999755859375</ele>
        <time>2018-06-21T09:02:09.000Z</time>
      </trkpt>
      <trkpt lat="41.74194007180631160736083984375" lon="1.78053776733577251434326171875">
        <ele>523</ele>
        <time>2018-06-21T09:02:15.000Z</time>
      </trkpt>
      <trkpt lat="41.74196706153452396392822265625" lon="1.78054698742926120758056640625">
        <ele>522.4000244140625</ele>
        <time>2018-06-21T09:02:18.000Z</time>
      </trkpt>
      <trkpt lat="41.74199455417692661285400390625" lon="1.7806275375187397003173828125">
        <ele>521</ele>
        <time>2018-06-21T09:02:25.000Z</time>
      </trkpt>
      <trkpt lat="41.74200184643268585205078125" lon="1.780635751783847808837890625">
        <ele>520.5999755859375</ele>
        <time>2018-06-21T09:02:26.000Z</time>
      </trkpt>
      <trkpt lat="41.74199958331882953643798828125" lon="1.7807341553270816802978515625">
        <ele>519.4000244140625</ele>
        <time>2018-06-21T09:02:31.000Z</time>
      </trkpt>
      <trkpt lat="41.74200025387108325958251953125" lon="1.78076483309268951416015625">
        <ele>518.5999755859375</ele>
        <time>2018-06-21T09:02:33.000Z</time>
      </trkpt>
      <trkpt lat="41.742024980485439300537109375" lon="1.78078536875545978546142578125">
        <ele>517.4000244140625</ele>
        <time>2018-06-21T09:02:36.000Z</time>
      </trkpt>
      <trkpt lat="41.74203026108443737030029296875" lon="1.780828870832920074462890625">
        <ele>516.20001220703125</ele>
        <time>2018-06-21T09:02:40.000Z</time>
      </trkpt>
      <trkpt lat="41.74207686446607112884521484375" lon="1.78086549974977970123291015625">
        <ele>514.20001220703125</ele>
        <time>2018-06-21T09:02:46.000Z</time>
      </trkpt>
      <trkpt lat="41.74212095327675342559814453125" lon="1.78090187720954418182373046875">
        <ele>512</ele>
        <time>2018-06-21T09:02:51.000Z</time>
      </trkpt>
      <trkpt lat="41.74216655083000659942626953125" lon="1.78090489469468593597412109375">
        <ele>511</ele>
        <time>2018-06-21T09:02:56.000Z</time>
      </trkpt>
      <trkpt lat="41.742232851684093475341796875" lon="1.7808367498219013214111328125">
        <ele>511.20001220703125</ele>
        <time>2018-06-21T09:03:03.000Z</time>
      </trkpt>
      <trkpt lat="41.74229647032916545867919921875" lon="1.7808149568736553192138671875">
        <ele>510.20001220703125</ele>
        <time>2018-06-21T09:03:08.000Z</time>
      </trkpt>
      <trkpt lat="41.74234843812882900238037109375" lon="1.780796684324741363525390625">
        <ele>509.399993896484375</ele>
        <time>2018-06-21T09:03:12.000Z</time>
      </trkpt>
      <trkpt lat="41.74242504872381687164306640625" lon="1.78073088638484477996826171875">
        <ele>509.399993896484375</ele>
        <time>2018-06-21T09:03:19.000Z</time>
      </trkpt>
      <trkpt lat="41.74243368208408355712890625" lon="1.7807217501103878021240234375">
        <ele>509.20001220703125</ele>
        <time>2018-06-21T09:03:20.000Z</time>
      </trkpt>
      <trkpt lat="41.7425042577087879180908203125" lon="1.78064036183059215545654296875">
        <ele>508.399993896484375</ele>
        <time>2018-06-21T09:03:27.000Z</time>
      </trkpt>
      <trkpt lat="41.74255345948040485382080078125" lon="1.78065896965563297271728515625">
        <ele>506.79998779296875</ele>
        <time>2018-06-21T09:03:32.000Z</time>
      </trkpt>
      <trkpt lat="41.74259386025369167327880859375" lon="1.7807220853865146636962890625">
        <ele>504.79998779296875</ele>
        <time>2018-06-21T09:03:37.000Z</time>
      </trkpt>
      <trkpt lat="41.74259436316788196563720703125" lon="1.78073666989803314208984375">
        <ele>504.79998779296875</ele>
        <time>2018-06-21T09:03:38.000Z</time>
      </trkpt>
      <trkpt lat="41.74262487329542636871337890625" lon="1.780875138938426971435546875">
        <ele>502.79998779296875</ele>
        <time>2018-06-21T09:03:45.000Z</time>
      </trkpt>
      <trkpt lat="41.742627136409282684326171875" lon="1.7809188924729824066162109375">
        <ele>502.20001220703125</ele>
        <time>2018-06-21T09:03:47.000Z</time>
      </trkpt>
      <trkpt lat="41.742625795304775238037109375" lon="1.7810077406466007232666015625">
        <ele>500.79998779296875</ele>
        <time>2018-06-21T09:03:53.000Z</time>
      </trkpt>
      <trkpt lat="41.742651946842670440673828125" lon="1.781087033450603485107421875">
        <ele>498.399993896484375</ele>
        <time>2018-06-21T09:03:58.000Z</time>
      </trkpt>
      <trkpt lat="41.74267063848674297332763671875" lon="1.78114847280085086822509765625">
        <ele>496.600006103515625</ele>
        <time>2018-06-21T09:04:01.000Z</time>
      </trkpt>
      <trkpt lat="41.7426757514476776123046875" lon="1.7812310345470905303955078125">
        <ele>494.399993896484375</ele>
        <time>2018-06-21T09:04:05.000Z</time>
      </trkpt>
      <trkpt lat="41.7426864802837371826171875" lon="1.78128325380384922027587890625">
        <ele>493</ele>
        <time>2018-06-21T09:04:07.000Z</time>
      </trkpt>
      <trkpt lat="41.74272595904767513275146484375" lon="1.781331785023212432861328125">
        <ele>491.399993896484375</ele>
        <time>2018-06-21T09:04:12.000Z</time>
      </trkpt>
      <trkpt lat="41.74276954494416713714599609375" lon="1.78135667927563190460205078125">
        <ele>490.20001220703125</ele>
        <time>2018-06-21T09:04:16.000Z</time>
      </trkpt>
      <trkpt lat="41.74277876503765583038330078125" lon="1.7813993431627750396728515625">
        <ele>489</ele>
        <time>2018-06-21T09:04:19.000Z</time>
      </trkpt>
      <trkpt lat="41.74277926795184612274169921875" lon="1.78145424462854862213134765625">
        <ele>487.600006103515625</ele>
        <time>2018-06-21T09:04:24.000Z</time>
      </trkpt>
      <trkpt lat="41.74278563819825649261474609375" lon="1.78150638006627559661865234375">
        <ele>486.20001220703125</ele>
        <time>2018-06-21T09:04:29.000Z</time>
      </trkpt>
      <trkpt lat="41.74276585690677165985107421875" lon="1.7815411649644374847412109375">
        <ele>485.399993896484375</ele>
        <time>2018-06-21T09:04:33.000Z</time>
      </trkpt>
      <trkpt lat="41.74272076226770877838134765625" lon="1.781590282917022705078125">
        <ele>484</ele>
        <time>2018-06-21T09:04:39.000Z</time>
      </trkpt>
      <trkpt lat="41.7426876537501811981201171875" lon="1.781663037836551666259765625">
        <ele>481.399993896484375</ele>
        <time>2018-06-21T09:04:44.000Z</time>
      </trkpt>
      <trkpt lat="41.74264498986303806304931640625" lon="1.7816997505724430084228515625">
        <ele>480.399993896484375</ele>
        <time>2018-06-21T09:04:48.000Z</time>
      </trkpt>
      <trkpt lat="41.74261565320193767547607421875" lon="1.78177376277744770050048828125">
        <ele>477.600006103515625</ele>
        <time>2018-06-21T09:04:52.000Z</time>
      </trkpt>
      <trkpt lat="41.74260576255619525909423828125" lon="1.7818008363246917724609375">
        <ele>476.79998779296875</ele>
        <time>2018-06-21T09:04:54.000Z</time>
      </trkpt>
      <trkpt lat="41.74257424660027027130126953125" lon="1.781837046146392822265625">
        <ele>475.600006103515625</ele>
        <time>2018-06-21T09:04:57.000Z</time>
      </trkpt>
      <trkpt lat="41.74258765764534473419189453125" lon="1.7818901874125003814697265625">
        <ele>473.600006103515625</ele>
        <time>2018-06-21T09:05:03.000Z</time>
      </trkpt>
      <trkpt lat="41.7426274716854095458984375" lon="1.78189647383987903594970703125">
        <ele>472.79998779296875</ele>
        <time>2018-06-21T09:05:06.000Z</time>
      </trkpt>
      <trkpt lat="41.74266007728874683380126953125" lon="1.78190016187727451324462890625">
        <ele>472.399993896484375</ele>
        <time>2018-06-21T09:05:08.000Z</time>
      </trkpt>
      <trkpt lat="41.742699556052684783935546875" lon="1.78196419961750507354736328125">
        <ele>469.399993896484375</ele>
        <time>2018-06-21T09:05:14.000Z</time>
      </trkpt>
      <trkpt lat="41.74274926073849201202392578125" lon="1.7820762656629085540771484375">
        <ele>464.600006103515625</ele>
        <time>2018-06-21T09:05:22.000Z</time>
      </trkpt>
      <trkpt lat="41.74276099540293216705322265625" lon="1.78212127648293972015380859375">
        <ele>462.79998779296875</ele>
        <time>2018-06-21T09:05:25.000Z</time>
      </trkpt>
      <trkpt lat="41.7427025735378265380859375" lon="1.78225957788527011871337890625">
        <ele>458</ele>
        <time>2018-06-21T09:05:32.000Z</time>
      </trkpt>
      <trkpt lat="41.74270986579358577728271484375" lon="1.78233325481414794921875">
        <ele>455.20001220703125</ele>
        <time>2018-06-21T09:05:36.000Z</time>
      </trkpt>
      <trkpt lat="41.7427161522209644317626953125" lon="1.78242453373968601226806640625">
        <ele>451.600006103515625</ele>
        <time>2018-06-21T09:05:42.000Z</time>
      </trkpt>
      <trkpt lat="41.74269796349108219146728515625" lon="1.782511956989765167236328125">
        <ele>448.399993896484375</ele>
        <time>2018-06-21T09:05:46.000Z</time>
      </trkpt>
      <trkpt lat="41.7426913417875766754150390625" lon="1.7825905792415142059326171875">
        <ele>445.600006103515625</ele>
        <time>2018-06-21T09:05:50.000Z</time>
      </trkpt>
      <trkpt lat="41.74265353940427303314208984375" lon="1.78265956230461597442626953125">
        <ele>443.20001220703125</ele>
        <time>2018-06-21T09:05:55.000Z</time>
      </trkpt>
      <trkpt lat="41.7426462471485137939453125" lon="1.7827015556395053863525390625">
        <ele>441.79998779296875</ele>
        <time>2018-06-21T09:05:58.000Z</time>
      </trkpt>
      <trkpt lat="41.74265638925135135650634765625" lon="1.78276433609426021575927734375">
        <ele>439.399993896484375</ele>
        <time>2018-06-21T09:06:02.000Z</time>
      </trkpt>
      <trkpt lat="41.74264649860560894012451171875" lon="1.7828178964555263519287109375">
        <ele>437.600006103515625</ele>
        <time>2018-06-21T09:06:06.000Z</time>
      </trkpt>
      <trkpt lat="41.7426651902496814727783203125" lon="1.78289727307856082916259765625">
        <ele>434.600006103515625</ele>
        <time>2018-06-21T09:06:11.000Z</time>
      </trkpt>
      <trkpt lat="41.74266527406871318817138671875" lon="1.782915294170379638671875">
        <ele>434</ele>
        <time>2018-06-21T09:06:12.000Z</time>
      </trkpt>
      <trkpt lat="41.742649264633655548095703125" lon="1.78296558558940887451171875">
        <ele>432.399993896484375</ele>
        <time>2018-06-21T09:06:15.000Z</time>
      </trkpt>
      <trkpt lat="41.742607690393924713134765625" lon="1.783024258911609649658203125">
        <ele>430.79998779296875</ele>
        <time>2018-06-21T09:06:20.000Z</time>
      </trkpt>
      <trkpt lat="41.74256737343966960906982421875" lon="1.78308737464249134063720703125">
        <ele>429</ele>
        <time>2018-06-21T09:06:24.000Z</time>
      </trkpt>
      <trkpt lat="41.74255245365202426910400390625" lon="1.78317354060709476470947265625">
        <ele>426</ele>
        <time>2018-06-21T09:06:31.000Z</time>
      </trkpt>
      <trkpt lat="41.74255765043199062347412109375" lon="1.7831786535680294036865234375">
        <ele>425.79998779296875</ele>
        <time>2018-06-21T09:06:32.000Z</time>
      </trkpt>
      <trkpt lat="41.74256988801062107086181640625" lon="1.7832004465162754058837890625">
        <ele>424.79998779296875</ele>
        <time>2018-06-21T09:06:34.000Z</time>
      </trkpt>
      <trkpt lat="41.74261816777288913726806640625" lon="1.78326859138906002044677734375">
        <ele>421.600006103515625</ele>
        <time>2018-06-21T09:06:40.000Z</time>
      </trkpt>
      <trkpt lat="41.74263007007539272308349609375" lon="1.78332944400608539581298828125">
        <ele>419</ele>
        <time>2018-06-21T09:06:45.000Z</time>
      </trkpt>
      <trkpt lat="41.7426973767578601837158203125" lon="1.783362887799739837646484375">
        <ele>416.600006103515625</ele>
        <time>2018-06-21T09:06:50.000Z</time>
      </trkpt>
      <trkpt lat="41.7427588999271392822265625" lon="1.78339415229856967926025390625">
        <ele>414.600006103515625</ele>
        <time>2018-06-21T09:06:55.000Z</time>
      </trkpt>
      <trkpt lat="41.74275579862296581268310546875" lon="1.78347998298704624176025390625">
        <ele>411.20001220703125</ele>
        <time>2018-06-21T09:07:00.000Z</time>
      </trkpt>
      <trkpt lat="41.74270483665168285369873046875" lon="1.783533878624439239501953125">
        <ele>409.600006103515625</ele>
        <time>2018-06-21T09:07:05.000Z</time>
      </trkpt>
      <trkpt lat="41.74268857575953006744384765625" lon="1.783545948565006256103515625">
        <ele>409.399993896484375</ele>
        <time>2018-06-21T09:07:06.000Z</time>
      </trkpt>
      <trkpt lat="41.7426621727645397186279296875" lon="1.78355994634330272674560546875">
        <ele>409.20001220703125</ele>
        <time>2018-06-21T09:07:08.000Z</time>
      </trkpt>
      <trkpt lat="41.74263174645602703094482421875" lon="1.7836865969002246856689453125">
        <ele>405</ele>
        <time>2018-06-21T09:07:14.000Z</time>
      </trkpt>
      <trkpt lat="41.742619760334491729736328125" lon="1.78371635265648365020751953125">
        <ele>404.20001220703125</ele>
        <time>2018-06-21T09:07:15.000Z</time>
      </trkpt>
      <trkpt lat="41.74258665181696414947509765625" lon="1.78379246033728122711181640625">
        <ele>402</ele>
        <time>2018-06-21T09:07:18.000Z</time>
      </trkpt>
      <trkpt lat="41.74260073341429233551025390625" lon="1.78385163657367229461669921875">
        <ele>399.399993896484375</ele>
        <time>2018-06-21T09:07:22.000Z</time>
      </trkpt>
      <trkpt lat="41.74262336455285549163818359375" lon="1.78397007286548614501953125">
        <ele>394.600006103515625</ele>
        <time>2018-06-21T09:07:28.000Z</time>
      </trkpt>
      <trkpt lat="41.7426336742937564849853515625" lon="1.78398055024445056915283203125">
        <ele>394.20001220703125</ele>
        <time>2018-06-21T09:07:30.000Z</time>
      </trkpt>
      <trkpt lat="41.74267784692347049713134765625" lon="1.784001253545284271240234375">
        <ele>392.600006103515625</ele>
        <time>2018-06-21T09:07:35.000Z</time>
      </trkpt>
      <trkpt lat="41.7426658608019351959228515625" lon="1.78405548445880413055419921875">
        <ele>390.79998779296875</ele>
        <time>2018-06-21T09:07:39.000Z</time>
      </trkpt>
      <trkpt lat="41.74268639646470546722412109375" lon="1.78410879336297512054443359375">
        <ele>389.20001220703125</ele>
        <time>2018-06-21T09:07:44.000Z</time>
      </trkpt>
      <trkpt lat="41.7427144758403301239013671875" lon="1.78418473340570926666259765625">
        <ele>386.79998779296875</ele>
        <time>2018-06-21T09:07:50.000Z</time>
      </trkpt>
      <trkpt lat="41.74273937009274959564208984375" lon="1.78425975143909454345703125">
        <ele>384.600006103515625</ele>
        <time>2018-06-21T09:07:56.000Z</time>
      </trkpt>
      <trkpt lat="41.74275345169007778167724609375" lon="1.784326136112213134765625">
        <ele>382.600006103515625</ele>
        <time>2018-06-21T09:08:01.000Z</time>
      </trkpt>
      <trkpt lat="41.742747835814952850341796875" lon="1.7844275571405887603759765625">
        <ele>380</ele>
        <time>2018-06-21T09:08:08.000Z</time>
      </trkpt>
      <trkpt lat="41.74273819662630558013916015625" lon="1.7845036648213863372802734375">
        <ele>377.399993896484375</ele>
        <time>2018-06-21T09:08:12.000Z</time>
      </trkpt>
      <trkpt lat="41.74271154217422008514404296875" lon="1.7845874838531017303466796875">
        <ele>374.600006103515625</ele>
        <time>2018-06-21T09:08:18.000Z</time>
      </trkpt>
      <trkpt lat="41.74273073673248291015625" lon="1.78463735617697238922119140625">
        <ele>372.600006103515625</ele>
        <time>2018-06-21T09:08:22.000Z</time>
      </trkpt>
      <trkpt lat="41.7427213490009307861328125" lon="1.78472083993256092071533203125">
        <ele>369.600006103515625</ele>
        <time>2018-06-21T09:08:27.000Z</time>
      </trkpt>
      <trkpt lat="41.74276619218289852142333984375" lon="1.78476895205676555633544921875">
        <ele>367.600006103515625</ele>
        <time>2018-06-21T09:08:32.000Z</time>
      </trkpt>
      <trkpt lat="41.7427627556025981903076171875" lon="1.78479745052754878997802734375">
        <ele>366.600006103515625</ele>
        <time>2018-06-21T09:08:34.000Z</time>
      </trkpt>
      <trkpt lat="41.74275554716587066650390625" lon="1.78482175804674625396728515625">
        <ele>365.79998779296875</ele>
        <time>2018-06-21T09:08:36.000Z</time>
      </trkpt>
      <trkpt lat="41.74277055077254772186279296875" lon="1.78490524180233478546142578125">
        <ele>363.20001220703125</ele>
        <time>2018-06-21T09:08:41.000Z</time>
      </trkpt>
      <trkpt lat="41.742762587964534759521484375" lon="1.78491865284740924835205078125">
        <ele>363</ele>
        <time>2018-06-21T09:08:42.000Z</time>
      </trkpt>
      <trkpt lat="41.7427530325949192047119140625" lon="1.7849428765475749969482421875">
        <ele>362.600006103515625</ele>
        <time>2018-06-21T09:08:44.000Z</time>
      </trkpt>
      <trkpt lat="41.74275345169007778167724609375" lon="1.7849767394363880157470703125">
        <ele>361.79998779296875</ele>
        <time>2018-06-21T09:08:47.000Z</time>
      </trkpt>
      <trkpt lat="41.74278295598924160003662109375" lon="1.7849837802350521087646484375">
        <ele>361.600006103515625</ele>
        <time>2018-06-21T09:08:52.000Z</time>
      </trkpt>
      <trkpt lat="41.7428110353648662567138671875" lon="1.785010434687137603759765625">
        <ele>360.79998779296875</ele>
        <time>2018-06-21T09:08:55.000Z</time>
      </trkpt>
      <trkpt lat="41.742837689816951751708984375" lon="1.7850950919091701507568359375">
        <ele>359.20001220703125</ele>
        <time>2018-06-21T09:09:01.000Z</time>
      </trkpt>
      <trkpt lat="41.74282796680927276611328125" lon="1.78520095534622669219970703125">
        <ele>357.20001220703125</ele>
        <time>2018-06-21T09:09:07.000Z</time>
      </trkpt>
      <trkpt lat="41.7428703792393207550048828125" lon="1.7852355726063251495361328125">
        <ele>356.20001220703125</ele>
        <time>2018-06-21T09:09:11.000Z</time>
      </trkpt>
      <trkpt lat="41.74293265677988529205322265625" lon="1.78529114462435245513916015625">
        <ele>354.79998779296875</ele>
        <time>2018-06-21T09:09:16.000Z</time>
      </trkpt>
      <trkpt lat="41.7429417930543422698974609375" lon="1.78534545935690402984619140625">
        <ele>353.600006103515625</ele>
        <time>2018-06-21T09:09:21.000Z</time>
      </trkpt>
      <trkpt lat="41.7429424636065959930419921875" lon="1.785465739667415618896484375">
        <ele>351.20001220703125</ele>
        <time>2018-06-21T09:09:28.000Z</time>
      </trkpt>
      <trkpt lat="41.74291974864900112152099609375" lon="1.785540841519832611083984375">
        <ele>349.20001220703125</ele>
        <time>2018-06-21T09:09:32.000Z</time>
      </trkpt>
      <trkpt lat="41.7428700439631938934326171875" lon="1.78558115847408771514892578125">
        <ele>348.20001220703125</ele>
        <time>2018-06-21T09:09:38.000Z</time>
      </trkpt>
      <trkpt lat="41.74284003674983978271484375" lon="1.78555819205939769744873046875">
        <ele>348.600006103515625</ele>
        <time>2018-06-21T09:09:42.000Z</time>
      </trkpt>
      <trkpt lat="41.742819584906101226806640625" lon="1.78569666109979152679443359375">
        <ele>345</ele>
        <time>2018-06-21T09:09:50.000Z</time>
      </trkpt>
      <trkpt lat="41.7428205907344818115234375" lon="1.7857116647064685821533203125">
        <ele>344.600006103515625</ele>
        <time>2018-06-21T09:09:51.000Z</time>
      </trkpt>
      <trkpt lat="41.7428730614483356475830078125" lon="1.7858697474002838134765625">
        <ele>342</ele>
        <time>2018-06-21T09:09:59.000Z</time>
      </trkpt>
      <trkpt lat="41.742897368967533111572265625" lon="1.78593085147440433502197265625">
        <ele>341</ele>
        <time>2018-06-21T09:10:02.000Z</time>
      </trkpt>
      <trkpt lat="41.7428673617541790008544921875" lon="1.78600226528942584991455078125">
        <ele>339.79998779296875</ele>
        <time>2018-06-21T09:10:07.000Z</time>
      </trkpt>
      <trkpt lat="41.74293114803731441497802734375" lon="1.78611458279192447662353515625">
        <ele>338</ele>
        <time>2018-06-21T09:10:12.000Z</time>
      </trkpt>
      <trkpt lat="41.74293969757854938507080078125" lon="1.78614056669175624847412109375">
        <ele>337.600006103515625</ele>
        <time>2018-06-21T09:10:13.000Z</time>
      </trkpt>
      <trkpt lat="41.74294455908238887786865234375" lon="1.78616856224834918975830078125">
        <ele>337</ele>
        <time>2018-06-21T09:10:14.000Z</time>
      </trkpt>
      <trkpt lat="41.7429493367671966552734375" lon="1.78619488142430782318115234375">
        <ele>336.600006103515625</ele>
        <time>2018-06-21T09:10:15.000Z</time>
      </trkpt>
      <trkpt lat="41.7429008893668651580810546875" lon="1.7862118966877460479736328125">
        <ele>336.20001220703125</ele>
        <time>2018-06-21T09:10:19.000Z</time>
      </trkpt>
      <trkpt lat="41.74276988022029399871826171875" lon="1.78615716286003589630126953125">
        <ele>337</ele>
        <time>2018-06-21T09:10:27.000Z</time>
      </trkpt>
      <trkpt lat="41.742678768932819366455078125" lon="1.78611894138157367706298828125">
        <ele>337.600006103515625</ele>
        <time>2018-06-21T09:10:33.000Z</time>
      </trkpt>
      <trkpt lat="41.74254708923399448394775390625" lon="1.7860318534076213836669921875">
        <ele>339</ele>
        <time>2018-06-21T09:10:43.000Z</time>
      </trkpt>
      <trkpt lat="41.74247567541897296905517578125" lon="1.78594593890011310577392578125">
        <ele>340.399993896484375</ele>
        <time>2018-06-21T09:10:49.000Z</time>
      </trkpt>
      <trkpt lat="41.742451451718807220458984375" lon="1.7859168536961078643798828125">
        <ele>340.79998779296875</ele>
        <time>2018-06-21T09:10:51.000Z</time>
      </trkpt>
      <trkpt lat="41.74237073399126529693603515625" lon="1.7858779616653919219970703125">
        <ele>341.399993896484375</ele>
        <time>2018-06-21T09:10:56.000Z</time>
      </trkpt>
      <trkpt lat="41.74226713366806507110595703125" lon="1.78580076433718204498291015625">
        <ele>341.600006103515625</ele>
        <time>2018-06-21T09:11:04.000Z</time>
      </trkpt>
      <trkpt lat="41.74222455359995365142822265625" lon="1.785749383270740509033203125">
        <ele>342</ele>
        <time>2018-06-21T09:11:07.000Z</time>
      </trkpt>
      <trkpt lat="41.7421106435358524322509765625" lon="1.785710155963897705078125">
        <ele>341.600006103515625</ele>
        <time>2018-06-21T09:11:15.000Z</time>
      </trkpt>
      <trkpt lat="41.74198885448276996612548828125" lon="1.7856298573315143585205078125">
        <ele>342.399993896484375</ele>
        <time>2018-06-21T09:11:22.000Z</time>
      </trkpt>
      <trkpt lat="41.74191735684871673583984375" lon="1.78558987565338611602783203125">
        <ele>342.79998779296875</ele>
        <time>2018-06-21T09:11:27.000Z</time>
      </trkpt>
      <trkpt lat="41.74185725860297679901123046875" lon="1.78553505800664424896240234375">
        <ele>343.600006103515625</ele>
        <time>2018-06-21T09:11:32.000Z</time>
      </trkpt>
      <trkpt lat="41.7418045364320278167724609375" lon="1.78548795171082019805908203125">
        <ele>344.20001220703125</ele>
        <time>2018-06-21T09:11:36.000Z</time>
      </trkpt>
      <trkpt lat="41.7416821606457233428955078125" lon="1.78547604940831661224365234375">
        <ele>343.399993896484375</ele>
        <time>2018-06-21T09:11:44.000Z</time>
      </trkpt>
      <trkpt lat="41.7416697554290294647216796875" lon="1.78547068499028682708740234375">
        <ele>343.399993896484375</ele>
        <time>2018-06-21T09:11:45.000Z</time>
      </trkpt>
      <trkpt lat="41.74159415066242218017578125" lon="1.7854759655892848968505859375">
        <ele>342.600006103515625</ele>
        <time>2018-06-21T09:11:51.000Z</time>
      </trkpt>
      <trkpt lat="41.74157529138028621673583984375" lon="1.7854823358356952667236328125">
        <ele>342.20001220703125</ele>
        <time>2018-06-21T09:11:52.000Z</time>
      </trkpt>
      <trkpt lat="41.74152868799865245819091796875" lon="1.7855044640600681304931640625">
        <ele>341.399993896484375</ele>
        <time>2018-06-21T09:11:55.000Z</time>
      </trkpt>
      <trkpt lat="41.74142508767545223236083984375" lon="1.785524748265743255615234375">
        <ele>341</ele>
        <time>2018-06-21T09:12:02.000Z</time>
      </trkpt>
      <trkpt lat="41.741364486515522003173828125" lon="1.78551829420030117034912109375">
        <ele>341.20001220703125</ele>
        <time>2018-06-21T09:12:06.000Z</time>
      </trkpt>
      <trkpt lat="41.74131595529615879058837890625" lon="1.78549448959529399871826171875">
        <ele>341.79998779296875</ele>
        <time>2018-06-21T09:12:11.000Z</time>
      </trkpt>
      <trkpt lat="41.74127253703773021697998046875" lon="1.78546817041933536529541015625">
        <ele>342.600006103515625</ele>
        <time>2018-06-21T09:12:14.000Z</time>
      </trkpt>
      <trkpt lat="41.7411946691572666168212890625" lon="1.78545844741165637969970703125">
        <ele>343.20001220703125</ele>
        <time>2018-06-21T09:12:20.000Z</time>
      </trkpt>
      <trkpt lat="41.74110724590718746185302734375" lon="1.78544704802334308624267578125">
        <ele>344</ele>
        <time>2018-06-21T09:12:27.000Z</time>
      </trkpt>
      <trkpt lat="41.74100616015493869781494140625" lon="1.78546163253486156463623046875">
        <ele>344.399993896484375</ele>
        <time>2018-06-21T09:12:34.000Z</time>
      </trkpt>
      <trkpt lat="41.74099174328148365020751953125" lon="1.78546314127743244171142578125">
        <ele>344.399993896484375</ele>
        <time>2018-06-21T09:12:35.000Z</time>
      </trkpt>
      <trkpt lat="41.74091798253357410430908203125" lon="1.78538787178695201873779296875">
        <ele>346.399993896484375</ele>
        <time>2018-06-21T09:12:41.000Z</time>
      </trkpt>
      <trkpt lat="41.740923933684825897216796875" lon="1.78532165475189685821533203125">
        <ele>347.79998779296875</ele>
        <time>2018-06-21T09:12:45.000Z</time>
      </trkpt>
      <trkpt lat="41.74089007079601287841796875" lon="1.78526884876191616058349609375">
        <ele>349</ele>
        <time>2018-06-21T09:12:49.000Z</time>
      </trkpt>
      <trkpt lat="41.74081228673458099365234375" lon="1.78514295257627964019775390625">
        <ele>352</ele>
        <time>2018-06-21T09:12:56.000Z</time>
      </trkpt>
      <trkpt lat="41.7407802678644657135009765625" lon="1.7850860394537448883056640625">
        <ele>353.399993896484375</ele>
        <time>2018-06-21T09:12:59.000Z</time>
      </trkpt>
      <trkpt lat="41.740753948688507080078125" lon="1.7850719578564167022705078125">
        <ele>353.79998779296875</ele>
        <time>2018-06-21T09:13:01.000Z</time>
      </trkpt>
      <trkpt lat="41.7406538687646389007568359375" lon="1.78508209995925426483154296875">
        <ele>353.399993896484375</ele>
        <time>2018-06-21T09:13:06.000Z</time>
      </trkpt>
      <trkpt lat="41.74054733477532863616943359375" lon="1.785077154636383056640625">
        <ele>352.20001220703125</ele>
        <time>2018-06-21T09:13:13.000Z</time>
      </trkpt>
      <trkpt lat="41.74052185378968715667724609375" lon="1.78508587181568145751953125">
        <ele>351.79998779296875</ele>
        <time>2018-06-21T09:13:15.000Z</time>
      </trkpt>
      <trkpt lat="41.7404664494097232818603515625" lon="1.78506533615291118621826171875">
        <ele>351.600006103515625</ele>
        <time>2018-06-21T09:13:20.000Z</time>
      </trkpt>
      <trkpt lat="41.74040165729820728302001953125" lon="1.78494648076593875885009765625">
        <ele>353.399993896484375</ele>
        <time>2018-06-21T09:13:28.000Z</time>
      </trkpt>
      <trkpt lat="41.74035924486815929412841796875" lon="1.78483399562537670135498046875">
        <ele>355.79998779296875</ele>
        <time>2018-06-21T09:13:34.000Z</time>
      </trkpt>
      <trkpt lat="41.74033175222575664520263671875" lon="1.78479577414691448211669921875">
        <ele>356.600006103515625</ele>
        <time>2018-06-21T09:13:36.000Z</time>
      </trkpt>
      <trkpt lat="41.7402431555092334747314453125" lon="1.784739196300506591796875">
        <ele>357.399993896484375</ele>
        <time>2018-06-21T09:13:42.000Z</time>
      </trkpt>
      <trkpt lat="41.74016855657100677490234375" lon="1.784689240157604217529296875">
        <ele>358.20001220703125</ele>
        <time>2018-06-21T09:13:47.000Z</time>
      </trkpt>
      <trkpt lat="41.74007945694029331207275390625" lon="1.78465277887880802154541015625">
        <ele>358.399993896484375</ele>
        <time>2018-06-21T09:13:53.000Z</time>
      </trkpt>
      <trkpt lat="41.74003033898770809173583984375" lon="1.784669458866119384765625">
        <ele>357.20001220703125</ele>
        <time>2018-06-21T09:13:56.000Z</time>
      </trkpt>
      <trkpt lat="41.73990863375365734100341796875" lon="1.78465294651687145233154296875">
        <ele>356.399993896484375</ele>
        <time>2018-06-21T09:14:04.000Z</time>
      </trkpt>
      <trkpt lat="41.73983604647219181060791015625" lon="1.78463526070117950439453125">
        <ele>356</ele>
        <time>2018-06-21T09:14:09.000Z</time>
      </trkpt>
      <trkpt lat="41.73973177559673786163330078125" lon="1.78453593514859676361083984375">
        <ele>357</ele>
        <time>2018-06-21T09:14:17.000Z</time>
      </trkpt>
      <trkpt lat="41.73970428295433521270751953125" lon="1.7845165729522705078125">
        <ele>357.20001220703125</ele>
        <time>2018-06-21T09:14:19.000Z</time>
      </trkpt>
      <trkpt lat="41.73959934152662754058837890625" lon="1.784463264048099517822265625">
        <ele>356.79998779296875</ele>
        <time>2018-06-21T09:14:26.000Z</time>
      </trkpt>
      <trkpt lat="41.739502362906932830810546875" lon="1.78444826044142246246337890625">
        <ele>355.399993896484375</ele>
        <time>2018-06-21T09:14:32.000Z</time>
      </trkpt>
      <trkpt lat="41.7394874431192874908447265625" lon="1.784438788890838623046875">
        <ele>355.399993896484375</ele>
        <time>2018-06-21T09:14:33.000Z</time>
      </trkpt>
      <trkpt lat="41.739417873322963714599609375" lon="1.78445965982973575592041015625">
        <ele>353.79998779296875</ele>
        <time>2018-06-21T09:14:37.000Z</time>
      </trkpt>
      <trkpt lat="41.7392973415553569793701171875" lon="1.7844637669622898101806640625">
        <ele>352.600006103515625</ele>
        <time>2018-06-21T09:14:44.000Z</time>
      </trkpt>
      <trkpt lat="41.73920405097305774688720703125" lon="1.784405596554279327392578125">
        <ele>353</ele>
        <time>2018-06-21T09:14:50.000Z</time>
      </trkpt>
      <trkpt lat="41.73913263715803623199462890625" lon="1.78438405506312847137451171875">
        <ele>353</ele>
        <time>2018-06-21T09:14:54.000Z</time>
      </trkpt>
      <trkpt lat="41.73906759358942508697509765625" lon="1.78437014110386371612548828125">
        <ele>352.600006103515625</ele>
        <time>2018-06-21T09:14:58.000Z</time>
      </trkpt>
      <trkpt lat="41.738990060985088348388671875" lon="1.78428196348249912261962890625">
        <ele>353.20001220703125</ele>
        <time>2018-06-21T09:15:05.000Z</time>
      </trkpt>
      <trkpt lat="41.73891169019043445587158203125" lon="1.7841670475900173187255859375">
        <ele>354</ele>
        <time>2018-06-21T09:15:12.000Z</time>
      </trkpt>
      <trkpt lat="41.7388956807553768157958984375" lon="1.78414969705045223236083984375">
        <ele>354.20001220703125</ele>
        <time>2018-06-21T09:15:13.000Z</time>
      </trkpt>
      <trkpt lat="41.73882787115871906280517578125" lon="1.7840486951172351837158203125">
        <ele>355</ele>
        <time>2018-06-21T09:15:19.000Z</time>
      </trkpt>
      <trkpt lat="41.73878596164286136627197265625" lon="1.7839707434177398681640625">
        <ele>354.399993896484375</ele>
        <time>2018-06-21T09:15:25.000Z</time>
      </trkpt>
      <trkpt lat="41.73878026194870471954345703125" lon="1.78395473398268222808837890625">
        <ele>354.399993896484375</ele>
        <time>2018-06-21T09:15:26.000Z</time>
      </trkpt>
      <trkpt lat="41.73873349092900753021240234375" lon="1.783869154751300811767578125">
        <ele>354</ele>
        <time>2018-06-21T09:15:32.000Z</time>
      </trkpt>
      <trkpt lat="41.7387008853256702423095703125" lon="1.783816851675510406494140625">
        <ele>353.600006103515625</ele>
        <time>2018-06-21T09:15:35.000Z</time>
      </trkpt>
      <trkpt lat="41.738640367984771728515625" lon="1.78374635986983776092529296875">
        <ele>352.79998779296875</ele>
        <time>2018-06-21T09:15:40.000Z</time>
      </trkpt>
      <trkpt lat="41.73862083815038204193115234375" lon="1.78360235877335071563720703125">
        <ele>353.399993896484375</ele>
        <time>2018-06-21T09:15:46.000Z</time>
      </trkpt>
      <trkpt lat="41.73863626085221767425537109375" lon="1.78356707096099853515625">
        <ele>354.79998779296875</ele>
        <time>2018-06-21T09:15:48.000Z</time>
      </trkpt>
      <trkpt lat="41.73866308294236660003662109375" lon="1.7835343815386295318603515625">
        <ele>356.399993896484375</ele>
        <time>2018-06-21T09:15:50.000Z</time>
      </trkpt>
      <trkpt lat="41.738696359097957611083984375" lon="1.78340144455432891845703125">
        <ele>360.20001220703125</ele>
        <time>2018-06-21T09:15:57.000Z</time>
      </trkpt>
      <trkpt lat="41.73871253617107868194580078125" lon="1.78329407237470149993896484375">
        <ele>363</ele>
        <time>2018-06-21T09:16:02.000Z</time>
      </trkpt>
      <trkpt lat="41.73872016370296478271484375" lon="1.78317639045417308807373046875">
        <ele>365.20001220703125</ele>
        <time>2018-06-21T09:16:08.000Z</time>
      </trkpt>
      <trkpt lat="41.73872443847358226776123046875" lon="1.783156357705593109130859375">
        <ele>365.600006103515625</ele>
        <time>2018-06-21T09:16:09.000Z</time>
      </trkpt>
      <trkpt lat="41.73872955143451690673828125" lon="1.783022247254848480224609375">
        <ele>367.20001220703125</ele>
        <time>2018-06-21T09:16:16.000Z</time>
      </trkpt>
      <trkpt lat="41.738720834255218505859375" lon="1.78291806019842624664306640625">
        <ele>368</ele>
        <time>2018-06-21T09:16:21.000Z</time>
      </trkpt>
      <trkpt lat="41.7387699522078037261962890625" lon="1.78279669024050235748291015625">
        <ele>372.399993896484375</ele>
        <time>2018-06-21T09:16:29.000Z</time>
      </trkpt>
      <trkpt lat="41.73876668326556682586669921875" lon="1.7827065847814083099365234375">
        <ele>374</ele>
        <time>2018-06-21T09:16:36.000Z</time>
      </trkpt>
      <trkpt lat="41.73876735381782054901123046875" lon="1.782681941986083984375">
        <ele>374.399993896484375</ele>
        <time>2018-06-21T09:16:38.000Z</time>
      </trkpt>
      <trkpt lat="41.7387704551219940185546875" lon="1.7826519347727298736572265625">
        <ele>375.20001220703125</ele>
        <time>2018-06-21T09:16:40.000Z</time>
      </trkpt>
      <trkpt lat="41.7386760748922824859619140625" lon="1.782554872334003448486328125">
        <ele>373</ele>
        <time>2018-06-21T09:16:47.000Z</time>
      </trkpt>
      <trkpt lat="41.73833769746124744415283203125" lon="1.78229679353535175323486328125">
        <ele>363</ele>
        <time>2018-06-21T09:17:14.000Z</time>
      </trkpt>
      <trkpt lat="41.738300733268260955810546875" lon="1.782206855714321136474609375">
        <ele>362.79998779296875</ele>
        <time>2018-06-21T09:17:19.000Z</time>
      </trkpt>
      <trkpt lat="41.7382851429283618927001953125" lon="1.78219906054437160491943359375">
        <ele>362.20001220703125</ele>
        <time>2018-06-21T09:17:20.000Z</time>
      </trkpt>
      <trkpt lat="41.7381835542619228363037109375" lon="1.782167963683605194091796875">
        <ele>358.600006103515625</ele>
        <time>2018-06-21T09:17:27.000Z</time>
      </trkpt>
      <trkpt lat="41.73816905356943607330322265625" lon="1.782161258161067962646484375">
        <ele>358.20001220703125</ele>
        <time>2018-06-21T09:17:28.000Z</time>
      </trkpt>
      <trkpt lat="41.7380623519420623779296875" lon="1.78214089013636112213134765625">
        <ele>354.79998779296875</ele>
        <time>2018-06-21T09:17:34.000Z</time>
      </trkpt>
      <trkpt lat="41.7380390502512454986572265625" lon="1.78207349963486194610595703125">
        <ele>355.20001220703125</ele>
        <time>2018-06-21T09:17:38.000Z</time>
      </trkpt>
      <trkpt lat="41.73801834695041179656982421875" lon="1.782001666724681854248046875">
        <ele>355.600006103515625</ele>
        <time>2018-06-21T09:17:41.000Z</time>
      </trkpt>
      <trkpt lat="41.737994961440563201904296875" lon="1.7819491960108280181884765625">
        <ele>355.600006103515625</ele>
        <time>2018-06-21T09:17:45.000Z</time>
      </trkpt>
      <trkpt lat="41.73792916350066661834716796875" lon="1.781938634812831878662109375">
        <ele>353.600006103515625</ele>
        <time>2018-06-21T09:17:49.000Z</time>
      </trkpt>
      <trkpt lat="41.73792279325425624847412109375" lon="1.78191726095974445343017578125">
        <ele>353.600006103515625</ele>
        <time>2018-06-21T09:17:50.000Z</time>
      </trkpt>
      <trkpt lat="41.737857498228549957275390625" lon="1.78182388655841350555419921875">
        <ele>353</ele>
        <time>2018-06-21T09:17:56.000Z</time>
      </trkpt>
      <trkpt lat="41.7378264851868152618408203125" lon="1.7817446775734424591064453125">
        <ele>353.20001220703125</ele>
        <time>2018-06-21T09:18:00.000Z</time>
      </trkpt>
      <trkpt lat="41.73780695535242557525634765625" lon="1.78166144527494907379150390625">
        <ele>353.79998779296875</ele>
        <time>2018-06-21T09:18:04.000Z</time>
      </trkpt>
      <trkpt lat="41.7378008365631103515625" lon="1.78164199925959110260009765625">
        <ele>353.79998779296875</ele>
        <time>2018-06-21T09:18:05.000Z</time>
      </trkpt>
      <trkpt lat="41.73777376301586627960205078125" lon="1.781504787504673004150390625">
        <ele>354.399993896484375</ele>
        <time>2018-06-21T09:18:12.000Z</time>
      </trkpt>
      <trkpt lat="41.73777066171169281005859375" lon="1.7814234830439090728759765625">
        <ele>354.399993896484375</ele>
        <time>2018-06-21T09:18:17.000Z</time>
      </trkpt>
      <trkpt lat="41.73773235641419887542724609375" lon="1.78134284913539886474609375">
        <ele>353</ele>
        <time>2018-06-21T09:18:22.000Z</time>
      </trkpt>
      <trkpt lat="41.7377064563333988189697265625" lon="1.78131728433072566986083984375">
        <ele>352.20001220703125</ele>
        <time>2018-06-21T09:18:24.000Z</time>
      </trkpt>
      <trkpt lat="41.737669743597507476806640625" lon="1.78128425963222980499267578125">
        <ele>351</ele>
        <time>2018-06-21T09:18:27.000Z</time>
      </trkpt>
      <trkpt lat="41.7376256547868251800537109375" lon="1.7812169529497623443603515625">
        <ele>349.399993896484375</ele>
        <time>2018-06-21T09:18:32.000Z</time>
      </trkpt>
      <trkpt lat="41.737625487148761749267578125" lon="1.78115936927497386932373046875">
        <ele>349.399993896484375</ele>
        <time>2018-06-21T09:18:35.000Z</time>
      </trkpt>
      <trkpt lat="41.73764996230602264404296875" lon="1.7811007797718048095703125">
        <ele>350.399993896484375</ele>
        <time>2018-06-21T09:18:38.000Z</time>
      </trkpt>
      <trkpt lat="41.737723387777805328369140625" lon="1.7810147814452648162841796875">
        <ele>352.79998779296875</ele>
        <time>2018-06-21T09:18:45.000Z</time>
      </trkpt>
      <trkpt lat="41.73777409829199314117431640625" lon="1.78096105344593524932861328125">
        <ele>354.20001220703125</ele>
        <time>2018-06-21T09:18:49.000Z</time>
      </trkpt>
      <trkpt lat="41.737826652824878692626953125" lon="1.7808625660836696624755859375">
        <ele>355.79998779296875</ele>
        <time>2018-06-21T09:18:55.000Z</time>
      </trkpt>
      <trkpt lat="41.73786227591335773468017578125" lon="1.78077598102390766143798828125">
        <ele>357</ele>
        <time>2018-06-21T09:19:00.000Z</time>
      </trkpt>
      <trkpt lat="41.73787116073071956634521484375" lon="1.780662238597869873046875">
        <ele>357.20001220703125</ele>
        <time>2018-06-21T09:19:06.000Z</time>
      </trkpt>
      <trkpt lat="41.7378388904035091400146484375" lon="1.78056098520755767822265625">
        <ele>356.20001220703125</ele>
        <time>2018-06-21T09:19:11.000Z</time>
      </trkpt>
      <trkpt lat="41.73784467391669750213623046875" lon="1.7804823629558086395263671875">
        <ele>356.600006103515625</ele>
        <time>2018-06-21T09:19:14.000Z</time>
      </trkpt>
      <trkpt lat="41.73782975412905216217041015625" lon="1.78038588725030422210693359375">
        <ele>356.20001220703125</ele>
        <time>2018-06-21T09:19:19.000Z</time>
      </trkpt>
      <trkpt lat="41.73783545382320880889892578125" lon="1.78034548647701740264892578125">
        <ele>356.399993896484375</ele>
        <time>2018-06-21T09:19:21.000Z</time>
      </trkpt>
      <trkpt lat="41.7378281615674495697021484375" lon="1.78024155087769031524658203125">
        <ele>356.399993896484375</ele>
        <time>2018-06-21T09:19:27.000Z</time>
      </trkpt>
      <trkpt lat="41.73782103694975376129150390625" lon="1.78019888699054718017578125">
        <ele>356.20001220703125</ele>
        <time>2018-06-21T09:19:29.000Z</time>
      </trkpt>
      <trkpt lat="41.737785078585147857666015625" lon="1.7801356874406337738037109375">
        <ele>355</ele>
        <time>2018-06-21T09:19:33.000Z</time>
      </trkpt>
      <trkpt lat="41.73775616101920604705810546875" lon="1.78002127446234226226806640625">
        <ele>354.20001220703125</ele>
        <time>2018-06-21T09:19:38.000Z</time>
      </trkpt>
      <trkpt lat="41.7377446778118610382080078125" lon="1.77994935773313045501708984375">
        <ele>354</ele>
        <time>2018-06-21T09:19:41.000Z</time>
      </trkpt>
      <trkpt lat="41.73776127398014068603515625" lon="1.77985288202762603759765625">
        <ele>354.600006103515625</ele>
        <time>2018-06-21T09:19:46.000Z</time>
      </trkpt>
      <trkpt lat="41.737766973674297332763671875" lon="1.77976495586335659027099609375">
        <ele>354.399993896484375</ele>
        <time>2018-06-21T09:19:50.000Z</time>
      </trkpt>
      <trkpt lat="41.7377644591033458709716796875" lon="1.7796384729444980621337890625">
        <ele>354</ele>
        <time>2018-06-21T09:19:56.000Z</time>
      </trkpt>
      <trkpt lat="41.73775649629533290863037109375" lon="1.7794976569712162017822265625">
        <ele>353.600006103515625</ele>
        <time>2018-06-21T09:20:03.000Z</time>
      </trkpt>
      <trkpt lat="41.7377500422298908233642578125" lon="1.77939129061996936798095703125">
        <ele>353.399993896484375</ele>
        <time>2018-06-21T09:20:08.000Z</time>
      </trkpt>
      <trkpt lat="41.7377369664609432220458984375" lon="1.779293976724147796630859375">
        <ele>353.399993896484375</ele>
        <time>2018-06-21T09:20:12.000Z</time>
      </trkpt>
      <trkpt lat="41.73773445188999176025390625" lon="1.77918945439159870147705078125">
        <ele>354.20001220703125</ele>
        <time>2018-06-21T09:20:17.000Z</time>
      </trkpt>
      <trkpt lat="41.737742163240909576416015625" lon="1.7790864408016204833984375">
        <ele>355.20001220703125</ele>
        <time>2018-06-21T09:20:22.000Z</time>
      </trkpt>
      <trkpt lat="41.73775725066661834716796875" lon="1.77899633534252643585205078125">
        <ele>355.79998779296875</ele>
        <time>2018-06-21T09:20:27.000Z</time>
      </trkpt>
      <trkpt lat="41.7377949692308902740478515625" lon="1.7789112590253353118896484375">
        <ele>357</ele>
        <time>2018-06-21T09:20:32.000Z</time>
      </trkpt>
      <trkpt lat="41.73784987069666385650634765625" lon="1.778813190758228302001953125">
        <ele>358.79998779296875</ele>
        <time>2018-06-21T09:20:38.000Z</time>
      </trkpt>
      <trkpt lat="41.737869568169116973876953125" lon="1.7787784896790981292724609375">
        <ele>359.600006103515625</ele>
        <time>2018-06-21T09:20:40.000Z</time>
      </trkpt>
      <trkpt lat="41.73788859508931636810302734375" lon="1.77871939726173877716064453125">
        <ele>360</ele>
        <time>2018-06-21T09:20:43.000Z</time>
      </trkpt>
      <trkpt lat="41.73791139386594295501708984375" lon="1.77869458682835102081298828125">
        <ele>360.20001220703125</ele>
        <time>2018-06-21T09:20:45.000Z</time>
      </trkpt>
      <trkpt lat="41.7379173450171947479248046875" lon="1.77862367592751979827880859375">
        <ele>359</ele>
        <time>2018-06-21T09:20:49.000Z</time>
      </trkpt>
      <trkpt lat="41.7379109747707843780517578125" lon="1.7785226739943027496337890625">
        <ele>357</ele>
        <time>2018-06-21T09:20:55.000Z</time>
      </trkpt>
      <trkpt lat="41.73787149600684642791748046875" lon="1.77838437259197235107421875">
        <ele>353.399993896484375</ele>
        <time>2018-06-21T09:21:01.000Z</time>
      </trkpt>
      <trkpt lat="41.73786596395075321197509765625" lon="1.77836065180599689483642578125">
        <ele>352.79998779296875</ele>
        <time>2018-06-21T09:21:02.000Z</time>
      </trkpt>
      <trkpt lat="41.7378509603440761566162109375" lon="1.77829183638095855712890625">
        <ele>351.20001220703125</ele>
        <time>2018-06-21T09:21:07.000Z</time>
      </trkpt>
      <trkpt lat="41.7378888465464115142822265625" lon="1.7782440595328807830810546875">
        <ele>351.399993896484375</ele>
        <time>2018-06-21T09:21:13.000Z</time>
      </trkpt>
      <trkpt lat="41.73795045353472232818603515625" lon="1.778262667357921600341796875">
        <ele>353.600006103515625</ele>
        <time>2018-06-21T09:21:18.000Z</time>
      </trkpt>
      <trkpt lat="41.7379575781524181365966796875" lon="1.77827415056526660919189453125">
        <ele>354</ele>
        <time>2018-06-21T09:21:19.000Z</time>
      </trkpt>
      <trkpt lat="41.738003678619861602783203125" lon="1.7782792635262012481689453125">
        <ele>355.399993896484375</ele>
        <time>2018-06-21T09:21:23.000Z</time>
      </trkpt>
      <trkpt lat="41.7380641959607601165771484375" lon="1.77826476283371448516845703125">
        <ele>356.79998779296875</ele>
        <time>2018-06-21T09:21:27.000Z</time>
      </trkpt>
      <trkpt lat="41.73814608715474605560302734375" lon="1.77823374979197978973388671875">
        <ele>358.600006103515625</ele>
        <time>2018-06-21T09:21:32.000Z</time>
      </trkpt>
      <trkpt lat="41.73817743547260761260986328125" lon="1.77821715362370014190673828125">
        <ele>359.20001220703125</ele>
        <time>2018-06-21T09:21:34.000Z</time>
      </trkpt>
      <trkpt lat="41.7382586561143398284912109375" lon="1.778132580220699310302734375">
        <ele>361</ele>
        <time>2018-06-21T09:21:41.000Z</time>
      </trkpt>
      <trkpt lat="41.73830173909664154052734375" lon="1.77808857522904872894287109375">
        <ele>362.20001220703125</ele>
        <time>2018-06-21T09:21:45.000Z</time>
      </trkpt>
      <trkpt lat="41.73834658227860927581787109375" lon="1.77797759883105754852294921875">
        <ele>362.600006103515625</ele>
        <time>2018-06-21T09:21:52.000Z</time>
      </trkpt>
      <trkpt lat="41.73838379792869091033935546875" lon="1.7779285646975040435791015625">
        <ele>363.399993896484375</ele>
        <time>2018-06-21T09:21:55.000Z</time>
      </trkpt>
      <trkpt lat="41.7384190857410430908203125" lon="1.7778712324798107147216796875">
        <ele>364.20001220703125</ele>
        <time>2018-06-21T09:21:59.000Z</time>
      </trkpt>
      <trkpt lat="41.73842587508261203765869140625" lon="1.7777662910521030426025390625">
        <ele>362.79998779296875</ele>
        <time>2018-06-21T09:22:05.000Z</time>
      </trkpt>
      <trkpt lat="41.73839184455573558807373046875" lon="1.777698062360286712646484375">
        <ele>360.20001220703125</ele>
        <time>2018-06-21T09:22:09.000Z</time>
      </trkpt>
      <trkpt lat="41.7383793555200099945068359375" lon="1.7775976471602916717529296875">
        <ele>358</ele>
        <time>2018-06-21T09:22:14.000Z</time>
      </trkpt>
      <trkpt lat="41.73835764639079570770263671875" lon="1.777552552521228790283203125">
        <ele>356.399993896484375</ele>
        <time>2018-06-21T09:22:17.000Z</time>
      </trkpt>
      <trkpt lat="41.73834105022251605987548828125" lon="1.777456663548946380615234375">
        <ele>354.20001220703125</ele>
        <time>2018-06-21T09:22:22.000Z</time>
      </trkpt>
      <trkpt lat="41.738356053829193115234375" lon="1.7773572541773319244384765625">
        <ele>353.20001220703125</ele>
        <time>2018-06-21T09:22:27.000Z</time>
      </trkpt>
      <trkpt lat="41.73838245682418346405029296875" lon="1.77729413844645023345947265625">
        <ele>353.399993896484375</ele>
        <time>2018-06-21T09:22:31.000Z</time>
      </trkpt>
      <trkpt lat="41.738415062427520751953125" lon="1.77719439379870891571044921875">
        <ele>353.399993896484375</ele>
        <time>2018-06-21T09:22:36.000Z</time>
      </trkpt>
      <trkpt lat="41.738424785435199737548828125" lon="1.7770615406334400177001953125">
        <ele>351.79998779296875</ele>
        <time>2018-06-21T09:22:43.000Z</time>
      </trkpt>
      <trkpt lat="41.73841866664588451385498046875" lon="1.776891387999057769775390625">
        <ele>349.20001220703125</ele>
        <time>2018-06-21T09:22:51.000Z</time>
      </trkpt>
      <trkpt lat="41.73841447569429874420166015625" lon="1.77687286399304866790771484375">
        <ele>348.600006103515625</ele>
        <time>2018-06-21T09:22:52.000Z</time>
      </trkpt>
      <trkpt lat="41.73842453397810459136962890625" lon="1.77679709158837795257568359375">
        <ele>348</ele>
        <time>2018-06-21T09:22:56.000Z</time>
      </trkpt>
      <trkpt lat="41.73850114457309246063232421875" lon="1.77668058313429355621337890625">
        <ele>348.399993896484375</ele>
        <time>2018-06-21T09:23:03.000Z</time>
      </trkpt>
      <trkpt lat="41.7385255359113216400146484375" lon="1.77664504386484622955322265625">
        <ele>348.399993896484375</ele>
        <time>2018-06-21T09:23:05.000Z</time>
      </trkpt>
      <trkpt lat="41.73862704075872898101806640625" lon="1.77660338580608367919921875">
        <ele>351</ele>
        <time>2018-06-21T09:23:12.000Z</time>
      </trkpt>
      <trkpt lat="41.73864615149796009063720703125" lon="1.77659994922578334808349609375">
        <ele>351.600006103515625</ele>
        <time>2018-06-21T09:23:13.000Z</time>
      </trkpt>
      <trkpt lat="41.73872343264520168304443359375" lon="1.77658989094197750091552734375">
        <ele>354</ele>
        <time>2018-06-21T09:23:19.000Z</time>
      </trkpt>
      <trkpt lat="41.73878696747124195098876953125" lon="1.7765257693827152252197265625">
        <ele>355</ele>
        <time>2018-06-21T09:23:24.000Z</time>
      </trkpt>
      <trkpt lat="41.7388108558952808380126953125" lon="1.77650255151093006134033203125">
        <ele>355.600006103515625</ele>
        <time>2018-06-21T09:23:26.000Z</time>
      </trkpt>
      <trkpt lat="41.738854944705963134765625" lon="1.77644605748355388641357421875">
        <ele>356.399993896484375</ele>
        <time>2018-06-21T09:23:30.000Z</time>
      </trkpt>
      <trkpt lat="41.73894505016505718231201171875" lon="1.77635553292930126190185546875">
        <ele>358.20001220703125</ele>
        <time>2018-06-21T09:23:37.000Z</time>
      </trkpt>
      <trkpt lat="41.73897606320679187774658203125" lon="1.776340194046497344970703125">
        <ele>359</ele>
        <time>2018-06-21T09:23:39.000Z</time>
      </trkpt>
      <trkpt lat="41.73900104127824306488037109375" lon="1.77631295286118984222412109375">
        <ele>359.399993896484375</ele>
        <time>2018-06-21T09:23:41.000Z</time>
      </trkpt>
      <trkpt lat="41.73904546536505222320556640625" lon="1.77618336863815784454345703125">
        <ele>359</ele>
        <time>2018-06-21T09:23:47.000Z</time>
      </trkpt>
      <trkpt lat="41.73901579342782497406005859375" lon="1.77610944025218486785888671875">
        <ele>357</ele>
        <time>2018-06-21T09:23:52.000Z</time>
      </trkpt>
      <trkpt lat="41.7389362491667270660400390625" lon="1.77604909054934978485107421875">
        <ele>353.399993896484375</ele>
        <time>2018-06-21T09:23:58.000Z</time>
      </trkpt>
      <trkpt lat="41.7388777434825897216796875" lon="1.77595965564250946044921875">
        <ele>350.20001220703125</ele>
        <time>2018-06-21T09:24:04.000Z</time>
      </trkpt>
      <trkpt lat="41.738858632743358612060546875" lon="1.77590525709092617034912109375">
        <ele>348.79998779296875</ele>
        <time>2018-06-21T09:24:08.000Z</time>
      </trkpt>
      <trkpt lat="41.73890699632465839385986328125" lon="1.77569805644452571868896484375">
        <ele>347.600006103515625</ele>
        <time>2018-06-21T09:24:17.000Z</time>
      </trkpt>
      <trkpt lat="41.73894085921347141265869140625" lon="1.7756027542054653167724609375">
        <ele>348.399993896484375</ele>
        <time>2018-06-21T09:24:21.000Z</time>
      </trkpt>
      <trkpt lat="41.73900255002081394195556640625" lon="1.77553586661815643310546875">
        <ele>349.79998779296875</ele>
        <time>2018-06-21T09:24:27.000Z</time>
      </trkpt>
      <trkpt lat="41.739008836448192596435546875" lon="1.77543335594236850738525390625">
        <ele>349.399993896484375</ele>
        <time>2018-06-21T09:24:32.000Z</time>
      </trkpt>
      <trkpt lat="41.73899098299443721771240234375" lon="1.775335036218166351318359375">
        <ele>348.399993896484375</ele>
        <time>2018-06-21T09:24:37.000Z</time>
      </trkpt>
      <trkpt lat="41.738994754850864410400390625" lon="1.7751903645694255828857421875">
        <ele>347.600006103515625</ele>
        <time>2018-06-21T09:24:44.000Z</time>
      </trkpt>
      <trkpt lat="41.7389945872128009796142578125" lon="1.77514216862618923187255859375">
        <ele>347.20001220703125</ele>
        <time>2018-06-21T09:24:48.000Z</time>
      </trkpt>
      <trkpt lat="41.73898276872932910919189453125" lon="1.77512347698211669921875">
        <ele>346.79998779296875</ele>
        <time>2018-06-21T09:24:50.000Z</time>
      </trkpt>
      <trkpt lat="41.73893935047090053558349609375" lon="1.77522229962050914764404296875">
        <ele>346.20001220703125</ele>
        <time>2018-06-21T09:24:57.000Z</time>
      </trkpt>
      <trkpt lat="41.7389392666518688201904296875" lon="1.775252558290958404541015625">
        <ele>346.399993896484375</ele>
        <time>2018-06-21T09:24:59.000Z</time>
      </trkpt>
      <trkpt lat="41.7389211617410182952880859375" lon="1.77531215362250804901123046875">
        <ele>346.20001220703125</ele>
        <time>2018-06-21T09:25:02.000Z</time>
      </trkpt>
      <trkpt lat="41.73889609985053539276123046875" lon="1.77540536038577556610107421875">
        <ele>346</ele>
        <time>2018-06-21T09:25:06.000Z</time>
      </trkpt>
      <trkpt lat="41.73880423419177532196044921875" lon="1.77547375671565532684326171875">
        <ele>343.79998779296875</ele>
        <time>2018-06-21T09:25:12.000Z</time>
      </trkpt>
      <trkpt lat="41.73875595442950725555419921875" lon="1.77553595043718814849853515625">
        <ele>342.399993896484375</ele>
        <time>2018-06-21T09:25:16.000Z</time>
      </trkpt>
      <trkpt lat="41.73872997052967548370361328125" lon="1.77559697069227695465087890625">
        <ele>341.600006103515625</ele>
        <time>2018-06-21T09:25:20.000Z</time>
      </trkpt>
      <trkpt lat="41.73871924169361591339111328125" lon="1.775678694248199462890625">
        <ele>341.600006103515625</ele>
        <time>2018-06-21T09:25:25.000Z</time>
      </trkpt>
      <trkpt lat="41.73870415426790714263916015625" lon="1.775734685361385345458984375">
        <ele>341.399993896484375</ele>
        <time>2018-06-21T09:25:29.000Z</time>
      </trkpt>
      <trkpt lat="41.738664843142032623291015625" lon="1.7758384533226490020751953125">
        <ele>341.600006103515625</ele>
        <time>2018-06-21T09:25:34.000Z</time>
      </trkpt>
      <trkpt lat="41.73865838907659053802490234375" lon="1.7759021557867527008056640625">
        <ele>342.399993896484375</ele>
        <time>2018-06-21T09:25:37.000Z</time>
      </trkpt>
      <trkpt lat="41.7385999672114849090576171875" lon="1.7760684527456760406494140625">
        <ele>342.79998779296875</ele>
        <time>2018-06-21T09:25:45.000Z</time>
      </trkpt>
      <trkpt lat="41.738524697721004486083984375" lon="1.77615788765251636505126953125">
        <ele>341.399993896484375</ele>
        <time>2018-06-21T09:25:52.000Z</time>
      </trkpt>
      <trkpt lat="41.7385057546198368072509765625" lon="1.77616895176470279693603515625">
        <ele>340.79998779296875</ele>
        <time>2018-06-21T09:25:54.000Z</time>
      </trkpt>
      <trkpt lat="41.7384618334472179412841796875" lon="1.77616828121244907379150390625">
        <ele>339.399993896484375</ele>
        <time>2018-06-21T09:25:58.000Z</time>
      </trkpt>
      <trkpt lat="41.73838815651834011077880859375" lon="1.7761626653373241424560546875">
        <ele>336.79998779296875</ele>
        <time>2018-06-21T09:26:03.000Z</time>
      </trkpt>
      <trkpt lat="41.7382921837270259857177734375" lon="1.7761834524571895599365234375">
        <ele>333.600006103515625</ele>
        <time>2018-06-21T09:26:09.000Z</time>
      </trkpt>
      <trkpt lat="41.73820509575307369232177734375" lon="1.77621505223214626312255859375">
        <ele>331</ele>
        <time>2018-06-21T09:26:14.000Z</time>
      </trkpt>
      <trkpt lat="41.738143153488636016845703125" lon="1.77624556235969066619873046875">
        <ele>330.399993896484375</ele>
        <time>2018-06-21T09:26:18.000Z</time>
      </trkpt>
      <trkpt lat="41.7380274832248687744140625" lon="1.77630624733865261077880859375">
        <ele>329.20001220703125</ele>
        <time>2018-06-21T09:26:25.000Z</time>
      </trkpt>
      <trkpt lat="41.7379602603614330291748046875" lon="1.77628126926720142364501953125">
        <ele>327.600006103515625</ele>
        <time>2018-06-21T09:26:29.000Z</time>
      </trkpt>
      <trkpt lat="41.73789664171636104583740234375" lon="1.77622117102146148681640625">
        <ele>325.79998779296875</ele>
        <time>2018-06-21T09:26:34.000Z</time>
      </trkpt>
      <trkpt lat="41.7378241382539272308349609375" lon="1.77621086128056049346923828125">
        <ele>324.399993896484375</ele>
        <time>2018-06-21T09:26:38.000Z</time>
      </trkpt>
      <trkpt lat="41.73775498755276203155517578125" lon="1.776182949542999267578125">
        <ele>322.79998779296875</ele>
        <time>2018-06-21T09:26:42.000Z</time>
      </trkpt>
      <trkpt lat="41.7377364635467529296875" lon="1.77617716602981090545654296875">
        <ele>322.399993896484375</ele>
        <time>2018-06-21T09:26:43.000Z</time>
      </trkpt>
      <trkpt lat="41.7377104796469211578369140625" lon="1.77617155015468597412109375">
        <ele>321.79998779296875</ele>
        <time>2018-06-21T09:26:45.000Z</time>
      </trkpt>
      <trkpt lat="41.737610064446926116943359375" lon="1.77618605084717273712158203125">
        <ele>320</ele>
        <time>2018-06-21T09:26:51.000Z</time>
      </trkpt>
      <trkpt lat="41.7375552468001842498779296875" lon="1.77620767615735530853271484375">
        <ele>319.20001220703125</ele>
        <time>2018-06-21T09:26:55.000Z</time>
      </trkpt>
      <trkpt lat="41.73746463842689990997314453125" lon="1.7762246914207935333251953125">
        <ele>317.600006103515625</ele>
        <time>2018-06-21T09:27:01.000Z</time>
      </trkpt>
      <trkpt lat="41.73742876388132572174072265625" lon="1.7762330733239650726318359375">
        <ele>317</ele>
        <time>2018-06-21T09:27:03.000Z</time>
      </trkpt>
      <trkpt lat="41.73733656294643878936767578125" lon="1.776244975626468658447265625">
        <ele>316</ele>
        <time>2018-06-21T09:27:09.000Z</time>
      </trkpt>
      <trkpt lat="41.7372112534940242767333984375" lon="1.7762746475636959075927734375">
        <ele>315.79998779296875</ele>
        <time>2018-06-21T09:27:17.000Z</time>
      </trkpt>
      <trkpt lat="41.737198345363140106201171875" lon="1.77628126926720142364501953125">
        <ele>315.79998779296875</ele>
        <time>2018-06-21T09:27:18.000Z</time>
      </trkpt>
      <trkpt lat="41.737069599330425262451171875" lon="1.7763205803930759429931640625">
        <ele>315.20001220703125</ele>
        <time>2018-06-21T09:27:26.000Z</time>
      </trkpt>
      <trkpt lat="41.7369711957871913909912109375" lon="1.77633776329457759857177734375">
        <ele>314.399993896484375</ele>
        <time>2018-06-21T09:27:32.000Z</time>
      </trkpt>
      <trkpt lat="41.7368598841130733489990234375" lon="1.776363663375377655029296875">
        <ele>313.399993896484375</ele>
        <time>2018-06-21T09:27:39.000Z</time>
      </trkpt>
      <trkpt lat="41.7367324791848659515380859375" lon="1.77640029229223728179931640625">
        <ele>312.399993896484375</ele>
        <time>2018-06-21T09:27:47.000Z</time>
      </trkpt>
      <trkpt lat="41.73660499043762683868408203125" lon="1.776454858481884002685546875">
        <ele>311.20001220703125</ele>
        <time>2018-06-21T09:27:56.000Z</time>
      </trkpt>
      <trkpt lat="41.73652804456651210784912109375" lon="1.77651755511760711669921875">
        <ele>310.79998779296875</ele>
        <time>2018-06-21T09:28:02.000Z</time>
      </trkpt>
      <trkpt lat="41.7364518530666828155517578125" lon="1.77667303942143917083740234375">
        <ele>311.79998779296875</ele>
        <time>2018-06-21T09:28:11.000Z</time>
      </trkpt>
      <trkpt lat="41.73642913810908794403076171875" lon="1.77673489786684513092041015625">
        <ele>312.20001220703125</ele>
        <time>2018-06-21T09:28:15.000Z</time>
      </trkpt>
    </trkseg>
  </trk>
</gpx>
